Time,TemperatureF,DewpointF,PressureIn,WindDirection,WindDirectionDegrees,WindSpeedMPH,WindSpeedGustMPH,Humidity,HourlyPrecipIn,Conditions,Clouds,dailyrainin,SoftwareType,DateUTC
2013-06-01 00:00:00,60.9,57.3,29.39,SE,132,5.0,8.0,88,0.00,,SKC,0.21,VWS V14.01,2013-06-01 05:00:00,
2013-06-01 00:01:00,60.9,57.3,29.39,SE,132,5.0,5.0,88,0.00,,SKC,0.00,VWS V14.01,2013-06-01 05:01:00,
2013-06-01 00:02:00,60.9,57.3,29.39,SE,132,5.0,5.0,88,0.00,,SKC,0.00,VWS V14.01,2013-06-01 05:02:00,
2013-06-01 00:03:00,60.9,57.3,29.39,SE,132,5.0,5.0,88,0.00,,SKC,0.00,VWS V14.01,2013-06-01 05:03:00,
2013-06-01 00:04:00,60.9,57.3,29.40,SE,132,5.0,6.0,88,0.00,,SKC,0.00,VWS V14.01,2013-06-01 05:04:00,
2013-06-01 00:05:00,60.8,57.2,29.40,SE,132,4.0,6.0,88,0.00,,SKC,0.00,VWS V14.01,2013-06-01 05:05:00,
2013-06-01 00:06:00,60.8,57.2,29.40,SE,132,6.0,6.0,88,0.00,,SKC,0.00,VWS V14.01,2013-06-01 05:06:00,
2013-06-01 00:07:00,60.8,57.2,29.40,SE,132,2.0,6.0,88,0.00,,SKC,0.00,VWS V14.01,2013-06-01 05:07:00,
2013-06-01 00:08:00,60.8,57.2,29.39,SE,132,4.0,6.0,88,0.00,,SKC,0.00,VWS V14.01,2013-06-01 05:08:00,
2013-06-01 00:09:00,60.8,57.2,29.39,SE,132,2.0,6.0,88,0.00,,SKC,0.00,VWS V14.01,2013-06-01 05:09:00,
2013-06-01 00:10:00,60.7,57.1,29.39,SE,132,2.0,6.0,88,0.00,,SKC,0.00,VWS V14.01,2013-06-01 05:10:00,
2013-06-01 00:11:00,60.7,57.1,29.40,SE,132,2.0,6.0,88,0.00,,SKC,0.00,VWS V14.01,2013-06-01 05:11:00,
2013-06-01 00:12:00,60.7,57.1,29.39,SE,132,0.0,6.0,88,0.00,,SKC,0.00,VWS V14.01,2013-06-01 05:12:00,
2013-06-01 00:13:00,60.7,57.1,29.40,SE,132,2.0,6.0,88,0.00,,SKC,0.00,VWS V14.01,2013-06-01 05:13:00,
2013-06-01 00:14:00,60.7,57.4,29.40,SE,132,0.0,6.0,89,0.00,,SKC,0.00,VWS V14.01,2013-06-01 05:14:00,
2013-06-01 00:15:00,60.6,57.3,29.39,SE,132,2.0,6.0,89,0.00,,SKC,0.00,VWS V14.01,2013-06-01 05:15:00,
2013-06-01 00:16:00,60.6,57.3,29.40,SE,132,2.0,6.0,89,0.00,,SKC,0.00,VWS V14.01,2013-06-01 05:16:00,
2013-06-01 00:17:00,60.6,57.3,29.40,SE,132,1.0,6.0,89,0.00,,SKC,0.00,VWS V14.01,2013-06-01 05:17:00,
2013-06-01 00:18:00,60.6,57.3,29.40,SE,132,1.0,6.0,89,0.00,,SKC,0.00,VWS V14.01,2013-06-01 05:18:00,
2013-06-01 00:19:00,60.5,57.2,29.40,SE,132,0.0,6.0,89,0.00,,SKC,0.00,VWS V14.01,2013-06-01 05:19:00,
2013-06-01 00:20:00,60.5,57.2,29.40,SE,132,3.0,6.0,89,0.00,,SKC,0.00,VWS V14.01,2013-06-01 05:20:00,
2013-06-01 00:21:00,60.5,57.2,29.40,SE,132,4.0,6.0,89,0.00,,SKC,0.00,VWS V14.01,2013-06-01 05:21:00,
2013-06-01 00:22:00,60.5,57.2,29.40,SE,132,6.0,6.0,89,0.00,,SKC,0.00,VWS V14.01,2013-06-01 05:22:00,
2013-06-01 00:23:00,60.4,57.2,29.40,SE,132,4.0,6.0,89,0.00,,SKC,0.00,VWS V14.01,2013-06-01 05:23:00,
2013-06-01 00:24:00,60.4,57.2,29.40,SE,132,4.0,6.0,89,0.00,,SKC,0.00,VWS V14.01,2013-06-01 05:24:00,
2013-06-01 00:25:00,60.4,57.2,29.40,SE,132,5.0,6.0,89,0.00,,SKC,0.00,VWS V14.01,2013-06-01 05:25:00,
2013-06-01 00:26:00,60.4,57.2,29.40,SE,132,5.0,6.0,89,0.00,,SKC,0.00,VWS V14.01,2013-06-01 05:26:00,
2013-06-01 00:27:00,60.4,57.2,29.40,SE,132,6.0,7.0,89,0.00,,SKC,0.00,VWS V14.01,2013-06-01 05:27:00,
2013-06-01 00:28:00,60.3,57.0,29.40,SE,132,4.0,7.0,89,0.00,,SKC,0.00,VWS V14.01,2013-06-01 05:28:00,
2013-06-01 00:29:00,60.3,57.0,29.40,SE,132,2.0,7.0,89,0.00,,SKC,0.00,VWS V14.01,2013-06-01 05:29:00,
2013-06-01 00:30:00,60.3,57.0,29.40,SE,132,5.0,7.0,89,0.00,,SKC,0.00,VWS V14.01,2013-06-01 05:30:00,
2013-06-01 00:31:00,60.3,57.0,29.40,SE,132,5.0,7.0,89,0.00,,SKC,0.00,VWS V14.01,2013-06-01 05:31:00,
2013-06-01 00:32:00,60.2,57.0,29.40,SE,132,4.0,7.0,89,0.00,,SKC,0.00,VWS V14.01,2013-06-01 05:32:00,
2013-06-01 00:33:00,60.2,57.0,29.40,SE,132,5.0,7.0,89,0.00,,SKC,0.00,VWS V14.01,2013-06-01 05:33:00,
2013-06-01 00:34:00,60.2,57.0,29.40,SE,132,3.0,7.0,89,0.00,,SKC,0.00,VWS V14.01,2013-06-01 05:34:00,
2013-06-01 00:35:00,60.2,57.0,29.40,SE,132,2.0,7.0,89,0.00,,SKC,0.00,VWS V14.01,2013-06-01 05:35:00,
2013-06-01 00:36:00,60.2,57.3,29.40,SE,132,2.0,7.0,90,0.00,,SKC,0.00,VWS V14.01,2013-06-01 05:36:00,
2013-06-01 00:37:00,60.2,57.3,29.40,SE,132,3.0,7.0,90,0.00,,SKC,0.00,VWS V14.01,2013-06-01 05:37:00,
2013-06-01 00:38:00,60.2,57.3,29.40,SE,132,2.0,7.0,90,0.00,,SKC,0.00,VWS V14.01,2013-06-01 05:38:00,
2013-06-01 00:39:00,60.1,57.2,29.40,SE,132,2.0,7.0,90,0.00,,SKC,0.00,VWS V14.01,2013-06-01 05:39:00,
2013-06-01 00:40:00,60.1,57.2,29.40,SE,132,2.0,7.0,90,0.00,,SKC,0.00,VWS V14.01,2013-06-01 05:40:00,
2013-06-01 00:41:00,60.1,57.2,29.40,SE,132,5.0,7.0,90,0.00,,SKC,0.00,VWS V14.01,2013-06-01 05:41:00,
2013-06-01 00:42:00,60.1,57.2,29.40,SE,132,4.0,7.0,90,0.00,,SKC,0.00,VWS V14.01,2013-06-01 05:42:00,
2013-06-01 00:43:00,60.1,57.2,29.40,SE,132,2.0,7.0,90,0.00,,SKC,0.00,VWS V14.01,2013-06-01 05:43:00,
2013-06-01 00:44:00,60.1,57.2,29.40,SE,132,1.0,7.0,90,0.00,,SKC,0.00,VWS V14.01,2013-06-01 05:44:00,
2013-06-01 00:45:00,60.1,57.2,29.40,SE,132,4.0,7.0,90,0.00,,SKC,0.00,VWS V14.01,2013-06-01 05:45:00,
2013-06-01 00:46:00,60.0,57.1,29.40,SE,132,6.0,7.0,90,0.00,,SKC,0.00,VWS V14.01,2013-06-01 05:46:00,
2013-06-01 00:47:00,60.0,57.1,29.40,SE,132,3.0,7.0,90,0.00,,SKC,0.00,VWS V14.01,2013-06-01 05:47:00,
2013-06-01 00:48:00,60.1,57.2,29.40,SE,132,4.0,7.0,90,0.00,,SKC,0.00,VWS V14.01,2013-06-01 05:48:00,
2013-06-01 00:49:00,60.0,57.1,29.40,SE,132,5.0,7.0,90,0.00,,SKC,0.00,VWS V14.01,2013-06-01 05:49:00,
2013-06-01 00:50:00,60.0,57.1,29.40,SE,132,4.0,7.0,90,0.00,,SKC,0.00,VWS V14.01,2013-06-01 05:50:00,
2013-06-01 00:51:00,60.0,57.1,29.40,SE,132,4.0,7.0,90,0.00,,SKC,0.00,VWS V14.01,2013-06-01 05:51:00,
2013-06-01 00:52:00,60.0,57.1,29.40,SE,132,4.0,7.0,90,0.00,,SKC,0.00,VWS V14.01,2013-06-01 05:52:00,
2013-06-01 00:53:00,60.0,57.1,29.40,SE,132,4.0,7.0,90,0.00,,SKC,0.00,VWS V14.01,2013-06-01 05:53:00,
2013-06-01 00:54:00,60.0,57.1,29.40,SE,132,5.0,7.0,90,0.00,,SKC,0.00,VWS V14.01,2013-06-01 05:54:00,
2013-06-01 00:55:00,60.0,57.1,29.40,SE,132,4.0,7.0,90,0.00,,SKC,0.00,VWS V14.01,2013-06-01 05:55:00,
2013-06-01 00:56:00,60.0,57.1,29.40,SE,132,4.0,7.0,90,0.00,,SKC,0.00,VWS V14.01,2013-06-01 05:56:00,
2013-06-01 00:57:00,60.0,57.4,29.40,SE,132,2.0,7.0,91,0.00,,SKC,0.00,VWS V14.01,2013-06-01 05:57:00,
2013-06-01 00:58:00,60.0,57.4,29.40,SE,132,0.0,7.0,91,0.00,,SKC,0.00,VWS V14.01,2013-06-01 05:58:00,
2013-06-01 00:59:00,60.0,57.4,29.40,SE,132,0.0,7.0,91,0.00,,SKC,0.00,VWS V14.01,2013-06-01 05:59:00,
2013-06-01 01:00:00,60.0,57.4,29.40,SE,132,0.0,7.0,91,0.00,,SKC,0.00,VWS V14.01,2013-06-01 06:00:00,
2013-06-01 01:01:00,60.0,57.1,29.40,SE,132,2.0,4.0,90,0.00,,SKC,0.00,VWS V14.01,2013-06-01 06:01:00,
2013-06-01 01:02:00,60.0,57.1,29.40,SE,132,2.0,4.0,90,0.00,,SKC,0.00,VWS V14.01,2013-06-01 06:02:00,
2013-06-01 01:03:00,60.0,57.1,29.40,SE,132,4.0,5.0,90,0.00,,SKC,0.00,VWS V14.01,2013-06-01 06:03:00,
2013-06-01 01:04:00,59.9,57.0,29.40,SE,132,2.0,5.0,90,0.00,,SKC,0.00,VWS V14.01,2013-06-01 06:04:00,
2013-06-01 01:05:00,59.9,57.0,29.40,SE,132,5.0,5.0,90,0.00,,SKC,0.00,VWS V14.01,2013-06-01 06:05:00,
2013-06-01 01:06:00,59.9,57.0,29.40,SE,132,4.0,5.0,90,0.00,,SKC,0.00,VWS V14.01,2013-06-01 06:06:00,
2013-06-01 01:07:00,59.9,57.0,29.40,SE,132,4.0,5.0,90,0.00,,SKC,0.00,VWS V14.01,2013-06-01 06:07:00,
2013-06-01 01:08:00,59.9,57.0,29.40,SE,132,3.0,5.0,90,0.00,,SKC,0.00,VWS V14.01,2013-06-01 06:08:00,
2013-06-01 01:09:00,59.8,56.9,29.40,SE,132,4.0,5.0,90,0.00,,SKC,0.00,VWS V14.01,2013-06-01 06:09:00,
2013-06-01 01:10:00,59.8,56.9,29.40,SE,132,4.0,5.0,90,0.00,,SKC,0.00,VWS V14.01,2013-06-01 06:10:00,
2013-06-01 01:11:00,59.8,56.9,29.40,SE,132,5.0,5.0,90,0.00,,SKC,0.00,VWS V14.01,2013-06-01 06:11:00,
2013-06-01 01:12:00,59.8,56.9,29.40,SE,132,5.0,5.0,90,0.00,,SKC,0.00,VWS V14.01,2013-06-01 06:12:00,
2013-06-01 01:13:00,59.8,56.9,29.40,SE,132,3.0,5.0,90,0.00,,SKC,0.00,VWS V14.01,2013-06-01 06:13:00,
2013-06-01 01:14:00,59.8,56.9,29.40,SE,132,2.0,5.0,90,0.00,,SKC,0.00,VWS V14.01,2013-06-01 06:14:00,
2013-06-01 01:15:00,59.7,56.8,29.40,SE,132,2.0,5.0,90,0.00,,SKC,0.00,VWS V14.01,2013-06-01 06:15:00,
2013-06-01 01:16:00,59.7,56.8,29.40,SE,132,4.0,5.0,90,0.00,,SKC,0.00,VWS V14.01,2013-06-01 06:16:00,
2013-06-01 01:17:00,59.7,56.8,29.40,SE,132,4.0,5.0,90,0.00,,SKC,0.00,VWS V14.01,2013-06-01 06:17:00,
2013-06-01 01:18:00,59.6,56.7,29.40,SE,132,4.0,5.0,90,0.00,,SKC,0.00,VWS V14.01,2013-06-01 06:18:00,
2013-06-01 01:19:00,59.6,56.7,29.40,SE,132,5.0,5.0,90,0.00,,SKC,0.00,VWS V14.01,2013-06-01 06:19:00,
2013-06-01 01:20:00,59.6,56.7,29.40,SE,132,4.0,5.0,90,0.00,,SKC,0.00,VWS V14.01,2013-06-01 06:20:00,
2013-06-01 01:21:00,59.5,56.6,29.40,SE,132,5.0,5.0,90,0.00,,SKC,0.00,VWS V14.01,2013-06-01 06:21:00,
2013-06-01 01:22:00,59.5,56.6,29.40,SE,132,4.0,5.0,90,0.00,,SKC,0.00,VWS V14.01,2013-06-01 06:22:00,
2013-06-01 01:23:00,59.5,56.6,29.40,SE,132,4.0,5.0,90,0.00,,SKC,0.00,VWS V14.01,2013-06-01 06:23:00,
2013-06-01 01:24:00,59.5,56.6,29.40,SE,132,2.0,5.0,90,0.00,,SKC,0.00,VWS V14.01,2013-06-01 06:24:00,
2013-06-01 01:25:00,59.5,56.6,29.40,SE,132,2.0,5.0,90,0.00,,SKC,0.00,VWS V14.01,2013-06-01 06:25:00,
2013-06-01 01:26:00,59.4,56.5,29.40,SE,132,2.0,5.0,90,0.00,,SKC,0.00,VWS V14.01,2013-06-01 06:26:00,
2013-06-01 01:27:00,59.4,56.5,29.40,SE,132,3.0,5.0,90,0.00,,SKC,0.00,VWS V14.01,2013-06-01 06:27:00,
2013-06-01 01:28:00,59.4,56.5,29.40,SE,132,1.0,5.0,90,0.00,,SKC,0.00,VWS V14.01,2013-06-01 06:28:00,
2013-06-01 01:29:00,59.3,56.4,29.40,SE,132,0.0,5.0,90,0.00,,SKC,0.00,VWS V14.01,2013-06-01 06:29:00,
2013-06-01 01:30:00,59.3,56.4,29.40,SE,132,0.0,5.0,90,0.00,,SKC,0.00,VWS V14.01,2013-06-01 06:30:00,
2013-06-01 01:31:00,59.3,56.4,29.40,SE,132,0.0,1.0,90,0.00,,SKC,0.00,VWS V14.01,2013-06-01 06:31:00,
2013-06-01 01:32:00,59.3,56.4,29.40,SE,132,0.0,1.0,90,0.00,,SKC,0.00,VWS V14.01,2013-06-01 06:32:00,
2013-06-01 01:33:00,59.3,56.7,29.40,SE,132,0.0,1.0,91,0.00,,SKC,0.00,VWS V14.01,2013-06-01 06:33:00,
2013-06-01 01:34:00,59.3,56.7,29.40,SE,132,4.0,4.0,91,0.00,,SKC,0.00,VWS V14.01,2013-06-01 06:34:00,
2013-06-01 01:35:00,59.2,56.6,29.40,SE,132,2.0,4.0,91,0.00,,SKC,0.00,VWS V14.01,2013-06-01 06:35:00,
2013-06-01 01:36:00,59.3,56.7,29.40,SE,132,2.0,4.0,91,0.00,,SKC,0.00,VWS V14.01,2013-06-01 06:36:00,
2013-06-01 01:37:00,59.2,56.6,29.40,SE,132,2.0,5.0,91,0.00,,SKC,0.00,VWS V14.01,2013-06-01 06:37:00,
2013-06-01 01:39:00,59.1,56.5,29.40,SE,132,3.0,5.0,91,0.00,,SKC,0.00,VWS V14.01,2013-06-01 06:39:00,
2013-06-01 01:40:00,59.1,56.5,29.40,SE,132,1.0,5.0,91,0.00,,SKC,0.00,VWS V14.01,2013-06-01 06:40:00,
2013-06-01 01:41:00,59.1,56.5,29.40,SE,132,1.0,5.0,91,0.00,,SKC,0.00,VWS V14.01,2013-06-01 06:41:00,
2013-06-01 01:42:00,59.1,56.5,29.39,SE,132,0.0,5.0,91,0.00,,SKC,0.00,VWS V14.01,2013-06-01 06:42:00,
2013-06-01 01:43:00,59.1,56.5,29.40,SE,132,0.0,5.0,91,0.00,,SKC,0.00,VWS V14.01,2013-06-01 06:43:00,
2013-06-01 01:44:00,59.0,56.4,29.39,SE,132,0.0,5.0,91,0.00,,SKC,0.00,VWS V14.01,2013-06-01 06:44:00,
2013-06-01 01:45:00,59.0,56.4,29.39,SE,132,0.0,5.0,91,0.00,,SKC,0.00,VWS V14.01,2013-06-01 06:45:00,
2013-06-01 01:46:00,59.0,56.1,29.40,SE,132,0.0,5.0,90,0.00,,SKC,0.00,VWS V14.01,2013-06-01 06:46:00,
2013-06-01 01:47:00,59.0,56.1,29.40,SE,132,0.0,5.0,90,0.00,,SKC,0.00,VWS V14.01,2013-06-01 06:47:00,
2013-06-01 01:49:00,59.0,56.1,29.40,SE,132,0.0,5.0,90,0.00,,SKC,0.00,VWS V14.01,2013-06-01 06:49:00,
2013-06-01 01:50:00,59.0,56.1,29.40,SE,132,0.0,5.0,90,0.00,,SKC,0.00,VWS V14.01,2013-06-01 06:50:00,
2013-06-01 01:51:00,59.0,56.4,29.40,SE,132,2.0,5.0,91,0.00,,SKC,0.00,VWS V14.01,2013-06-01 06:51:00,
2013-06-01 01:52:00,59.0,56.4,29.40,SE,132,2.0,5.0,91,0.00,,SKC,0.00,VWS V14.01,2013-06-01 06:52:00,
2013-06-01 01:53:00,59.0,56.4,29.40,SE,132,4.0,5.0,91,0.00,,SKC,0.00,VWS V14.01,2013-06-01 06:53:00,
2013-06-01 01:54:00,59.2,56.6,29.40,SE,132,4.0,5.0,91,0.00,,SKC,0.00,VWS V14.01,2013-06-01 06:54:00,
2013-06-01 01:55:00,59.0,56.4,29.40,SE,132,4.0,5.0,91,0.00,,SKC,0.00,VWS V14.01,2013-06-01 06:55:00,
2013-06-01 01:56:00,59.0,56.4,29.40,SE,132,3.0,5.0,91,0.00,,SKC,0.00,VWS V14.01,2013-06-01 06:56:00,
2013-06-01 01:58:00,59.0,56.4,29.40,SE,132,4.0,5.0,91,0.00,,SKC,0.00,VWS V14.01,2013-06-01 06:58:00,
2013-06-01 01:59:00,59.0,56.4,29.40,SE,132,4.0,5.0,91,0.00,,SKC,0.00,VWS V14.01,2013-06-01 06:59:00,
2013-06-01 02:00:00,59.0,56.4,29.40,SE,132,4.0,5.0,91,0.00,,SKC,0.00,VWS V14.01,2013-06-01 07:00:00,
2013-06-01 02:01:00,59.0,56.4,29.40,SE,132,2.0,5.0,91,0.00,,SKC,0.00,VWS V14.01,2013-06-01 07:01:00,
2013-06-01 02:03:00,59.0,56.4,29.40,SE,132,3.0,5.0,91,0.00,,SKC,0.00,VWS V14.01,2013-06-01 07:03:00,
2013-06-01 02:04:00,59.0,56.1,29.40,SE,132,0.0,5.0,90,0.00,,SKC,0.00,VWS V14.01,2013-06-01 07:04:00,
2013-06-01 02:05:00,59.0,56.4,29.40,SE,132,4.0,5.0,91,0.00,,SKC,0.00,VWS V14.01,2013-06-01 07:05:00,
2013-06-01 02:06:00,59.0,56.4,29.40,SE,132,2.0,5.0,91,0.00,,SKC,0.00,VWS V14.01,2013-06-01 07:06:00,
2013-06-01 02:07:00,59.0,56.4,29.40,SE,132,2.0,5.0,91,0.00,,SKC,0.00,VWS V14.01,2013-06-01 07:07:00,
2013-06-01 02:08:00,59.0,56.4,29.40,SE,132,3.0,5.0,91,0.00,,SKC,0.00,VWS V14.01,2013-06-01 07:08:00,
2013-06-01 02:09:00,59.0,56.4,29.40,SE,132,4.0,5.0,91,0.00,,SKC,0.00,VWS V14.01,2013-06-01 07:09:00,
2013-06-01 02:10:00,59.0,56.4,29.40,SE,132,3.0,5.0,91,0.00,,SKC,0.00,VWS V14.01,2013-06-01 07:10:00,
2013-06-01 02:11:00,59.0,56.7,29.40,SE,132,2.0,5.0,92,0.00,,SKC,0.00,VWS V14.01,2013-06-01 07:11:00,
2013-06-01 02:12:00,59.0,56.7,29.40,SE,132,3.0,5.0,92,0.00,,SKC,0.00,VWS V14.01,2013-06-01 07:12:00,
2013-06-01 02:13:00,59.0,56.7,29.40,SE,132,4.0,5.0,92,0.00,,SKC,0.00,VWS V14.01,2013-06-01 07:13:00,
2013-06-01 02:14:00,59.0,56.7,29.40,SE,132,2.0,5.0,92,0.00,,SKC,0.00,VWS V14.01,2013-06-01 07:14:00,
2013-06-01 02:15:00,59.0,56.7,29.40,SE,132,2.0,5.0,92,0.00,,SKC,0.00,VWS V14.01,2013-06-01 07:15:00,
2013-06-01 02:16:00,59.0,56.7,29.40,SE,132,2.0,5.0,92,0.00,,SKC,0.00,VWS V14.01,2013-06-01 07:16:00,
2013-06-01 02:17:00,59.0,56.7,29.40,SE,132,2.0,5.0,92,0.00,,SKC,0.00,VWS V14.01,2013-06-01 07:17:00,
2013-06-01 02:18:00,59.0,56.7,29.40,SE,132,4.0,5.0,92,0.00,,SKC,0.00,VWS V14.01,2013-06-01 07:18:00,
2013-06-01 02:19:00,59.0,56.4,29.40,SE,132,3.0,5.0,91,0.00,,SKC,0.00,VWS V14.01,2013-06-01 07:19:00,
2013-06-01 02:20:00,59.0,56.7,29.40,SE,132,2.0,5.0,92,0.00,,SKC,0.00,VWS V14.01,2013-06-01 07:20:00,
2013-06-01 02:21:00,59.0,56.7,29.40,SE,132,2.0,5.0,92,0.00,,SKC,0.00,VWS V14.01,2013-06-01 07:21:00,
2013-06-01 02:22:00,59.0,56.7,29.40,SE,132,3.0,5.0,92,0.00,,SKC,0.00,VWS V14.01,2013-06-01 07:22:00,
2013-06-01 02:23:00,59.0,56.7,29.40,SE,132,2.0,5.0,92,0.00,,SKC,0.00,VWS V14.01,2013-06-01 07:23:00,
2013-06-01 02:24:00,59.0,56.7,29.40,SE,132,2.0,5.0,92,0.00,,SKC,0.00,VWS V14.01,2013-06-01 07:24:00,
2013-06-01 02:25:00,59.0,56.7,29.40,SE,132,2.0,5.0,92,0.00,,SKC,0.00,VWS V14.01,2013-06-01 07:25:00,
2013-06-01 02:26:00,59.0,56.7,29.40,SE,132,4.0,5.0,92,0.00,,SKC,0.00,VWS V14.01,2013-06-01 07:26:00,
2013-06-01 02:27:00,59.0,56.7,29.40,SE,132,4.0,5.0,92,0.00,,SKC,0.00,VWS V14.01,2013-06-01 07:27:00,
2013-06-01 02:28:00,59.0,56.7,29.40,SE,132,5.0,5.0,92,0.00,,SKC,0.00,VWS V14.01,2013-06-01 07:28:00,
2013-06-01 02:29:00,59.0,56.7,29.40,SE,132,4.0,5.0,92,0.00,,SKC,0.00,VWS V14.01,2013-06-01 07:29:00,
2013-06-01 02:30:00,59.0,56.7,29.40,SE,132,4.0,5.0,92,0.00,,SKC,0.00,VWS V14.01,2013-06-01 07:30:00,
2013-06-01 02:31:00,59.0,56.7,29.40,SE,132,4.0,4.0,92,0.00,,SKC,0.00,VWS V14.01,2013-06-01 07:31:00,
2013-06-01 02:32:00,59.0,56.7,29.40,SE,132,2.0,4.0,92,0.00,,SKC,0.00,VWS V14.01,2013-06-01 07:32:00,
2013-06-01 02:33:00,59.0,56.7,29.40,SE,132,4.0,4.0,92,0.00,,SKC,0.00,VWS V14.01,2013-06-01 07:33:00,
2013-06-01 02:34:00,59.0,56.7,29.40,SE,132,3.0,4.0,92,0.00,,SKC,0.00,VWS V14.01,2013-06-01 07:34:00,
2013-06-01 02:35:00,59.0,56.7,29.40,SE,132,2.0,5.0,92,0.00,,SKC,0.00,VWS V14.01,2013-06-01 07:35:00,
2013-06-01 02:36:00,58.9,56.6,29.40,SE,132,3.0,5.0,92,0.00,,SKC,0.00,VWS V14.01,2013-06-01 07:36:00,
2013-06-01 02:37:00,58.9,56.6,29.40,SE,132,2.0,5.0,92,0.00,,SKC,0.00,VWS V14.01,2013-06-01 07:37:00,
2013-06-01 02:38:00,58.9,56.6,29.40,SE,132,2.0,5.0,92,0.00,,SKC,0.00,VWS V14.01,2013-06-01 07:38:00,
2013-06-01 02:39:00,58.9,56.6,29.39,SE,132,2.0,5.0,92,0.00,,SKC,0.00,VWS V14.01,2013-06-01 07:39:00,
2013-06-01 02:40:00,58.9,56.6,29.40,SE,132,0.0,5.0,92,0.00,,SKC,0.00,VWS V14.01,2013-06-01 07:40:00,
2013-06-01 02:41:00,58.8,56.5,29.40,SE,132,0.0,5.0,92,0.00,,SKC,0.00,VWS V14.01,2013-06-01 07:41:00,
2013-06-01 02:42:00,58.8,56.5,29.40,SE,132,5.0,5.0,92,0.00,,SKC,0.00,VWS V14.01,2013-06-01 07:42:00,
2013-06-01 02:43:00,58.8,56.5,29.40,SE,132,2.0,5.0,92,0.00,,SKC,0.00,VWS V14.01,2013-06-01 07:43:00,
2013-06-01 02:44:00,58.8,56.5,29.40,SE,132,3.0,5.0,92,0.00,,SKC,0.00,VWS V14.01,2013-06-01 07:44:00,
2013-06-01 02:45:00,58.8,56.5,29.40,SE,132,4.0,5.0,92,0.00,,SKC,0.00,VWS V14.01,2013-06-01 07:45:00,
2013-06-01 02:46:00,58.9,56.6,29.40,SE,132,4.0,5.0,92,0.00,,SKC,0.00,VWS V14.01,2013-06-01 07:46:00,
2013-06-01 02:47:00,58.9,56.6,29.40,SE,132,4.0,5.0,92,0.00,,SKC,0.00,VWS V14.01,2013-06-01 07:47:00,
2013-06-01 02:48:00,58.9,56.6,29.40,SE,132,4.0,5.0,92,0.00,,SKC,0.00,VWS V14.01,2013-06-01 07:48:00,
2013-06-01 02:49:00,58.9,56.6,29.40,SE,132,3.0,5.0,92,0.00,,SKC,0.00,VWS V14.01,2013-06-01 07:49:00,
2013-06-01 02:50:00,58.9,56.6,29.39,SE,132,4.0,5.0,92,0.00,,SKC,0.00,VWS V14.01,2013-06-01 07:50:00,
2013-06-01 02:51:00,59.0,56.7,29.39,SE,132,5.0,5.0,92,0.00,,SKC,0.00,VWS V14.01,2013-06-01 07:51:00,
2013-06-01 02:52:00,59.0,56.7,29.40,SE,132,4.0,5.0,92,0.00,,SKC,0.00,VWS V14.01,2013-06-01 07:52:00,
2013-06-01 02:53:00,59.0,56.7,29.39,SE,132,2.0,5.0,92,0.00,,SKC,0.00,VWS V14.01,2013-06-01 07:53:00,
2013-06-01 02:54:00,59.0,56.7,29.40,SE,132,2.0,5.0,92,0.00,,SKC,0.00,VWS V14.01,2013-06-01 07:54:00,
2013-06-01 02:55:00,59.0,56.7,29.40,SE,132,4.0,5.0,92,0.00,,SKC,0.00,VWS V14.01,2013-06-01 07:55:00,
2013-06-01 02:56:00,59.0,56.7,29.40,SE,132,3.0,5.0,92,0.00,,SKC,0.00,VWS V14.01,2013-06-01 07:56:00,
2013-06-01 02:57:00,59.0,56.7,29.40,SE,132,4.0,5.0,92,0.00,,SKC,0.00,VWS V14.01,2013-06-01 07:57:00,
2013-06-01 02:58:00,59.0,56.7,29.40,SE,132,4.0,5.0,92,0.00,,SKC,0.00,VWS V14.01,2013-06-01 07:58:00,
2013-06-01 02:59:00,59.0,56.7,29.40,SE,132,4.0,5.0,92,0.00,,SKC,0.00,VWS V14.01,2013-06-01 07:59:00,
2013-06-01 03:00:00,59.0,56.7,29.40,SE,132,4.0,5.0,92,0.00,,SKC,0.00,VWS V14.01,2013-06-01 08:00:00,
2013-06-01 03:01:00,59.0,56.7,29.39,SE,132,4.0,5.0,92,0.00,,SKC,0.00,VWS V14.01,2013-06-01 08:01:00,
2013-06-01 03:02:00,59.0,56.7,29.40,SE,132,4.0,5.0,92,0.00,,SKC,0.00,VWS V14.01,2013-06-01 08:02:00,
2013-06-01 03:03:00,59.0,56.7,29.40,SE,132,5.0,5.0,92,0.00,,SKC,0.00,VWS V14.01,2013-06-01 08:03:00,
2013-06-01 03:04:00,59.0,56.7,29.40,SE,132,4.0,5.0,92,0.00,,SKC,0.00,VWS V14.01,2013-06-01 08:04:00,
2013-06-01 03:05:00,59.0,56.7,29.40,SE,132,5.0,5.0,92,0.00,,SKC,0.00,VWS V14.01,2013-06-01 08:05:00,
2013-06-01 03:06:00,59.0,56.7,29.40,SE,132,4.0,5.0,92,0.00,,SKC,0.00,VWS V14.01,2013-06-01 08:06:00,
2013-06-01 03:07:00,59.0,56.7,29.40,SE,132,4.0,5.0,92,0.00,,SKC,0.00,VWS V14.01,2013-06-01 08:07:00,
2013-06-01 03:08:00,59.0,56.7,29.40,SE,132,4.0,5.0,92,0.00,,SKC,0.00,VWS V14.01,2013-06-01 08:08:00,
2013-06-01 03:09:00,59.0,56.7,29.40,SE,132,2.0,5.0,92,0.00,,SKC,0.00,VWS V14.01,2013-06-01 08:09:00,
2013-06-01 03:10:00,59.0,56.7,29.40,SE,132,4.0,5.0,92,0.00,,SKC,0.00,VWS V14.01,2013-06-01 08:10:00,
2013-06-01 03:11:00,59.0,56.7,29.40,SE,132,4.0,5.0,92,0.00,,SKC,0.00,VWS V14.01,2013-06-01 08:11:00,
2013-06-01 03:12:00,59.0,56.7,29.40,SE,132,4.0,5.0,92,0.00,,SKC,0.00,VWS V14.01,2013-06-01 08:12:00,
2013-06-01 03:13:00,59.0,56.7,29.40,SE,132,5.0,5.0,92,0.00,,SKC,0.00,VWS V14.01,2013-06-01 08:13:00,
2013-06-01 03:14:00,59.0,56.7,29.40,SE,132,5.0,5.0,92,0.00,,SKC,0.00,VWS V14.01,2013-06-01 08:14:00,
2013-06-01 03:15:00,59.0,56.7,29.40,SE,132,5.0,5.0,92,0.00,,SKC,0.00,VWS V14.01,2013-06-01 08:15:00,
2013-06-01 03:16:00,59.0,56.7,29.40,SE,132,5.0,5.0,92,0.00,,SKC,0.00,VWS V14.01,2013-06-01 08:16:00,
2013-06-01 03:17:00,59.0,56.7,29.40,SE,132,4.0,5.0,92,0.00,,SKC,0.00,VWS V14.01,2013-06-01 08:17:00,
2013-06-01 03:19:00,59.0,56.7,29.39,SE,132,4.0,5.0,92,0.00,,SKC,0.00,VWS V14.01,2013-06-01 08:19:00,
2013-06-01 03:21:00,59.0,56.7,29.39,SE,132,3.0,5.0,92,0.00,,SKC,0.00,VWS V14.01,2013-06-01 08:21:00,
2013-06-01 03:22:00,59.0,56.7,29.39,SE,132,2.0,5.0,92,0.00,,SKC,0.00,VWS V14.01,2013-06-01 08:22:00,
2013-06-01 03:25:00,59.0,56.7,29.39,SE,132,3.0,5.0,92,0.00,,SKC,0.00,VWS V14.01,2013-06-01 08:25:00,
2013-06-01 03:26:00,59.0,56.7,29.39,SE,132,4.0,5.0,92,0.00,,SKC,0.00,VWS V14.01,2013-06-01 08:26:00,
2013-06-01 03:27:00,59.0,56.7,29.39,SE,132,4.0,5.0,92,0.00,,SKC,0.00,VWS V14.01,2013-06-01 08:27:00,
2013-06-01 03:29:00,58.9,56.6,29.39,SE,132,5.0,6.0,92,0.00,,SKC,0.00,VWS V14.01,2013-06-01 08:29:00,
2013-06-01 03:30:00,59.0,56.7,29.39,SE,132,6.0,6.0,92,0.00,,SKC,0.00,VWS V14.01,2013-06-01 08:30:00,
2013-06-01 03:31:00,59.0,56.7,29.39,SE,132,5.0,6.0,92,0.00,,SKC,0.00,VWS V14.01,2013-06-01 08:31:00,
2013-06-01 03:33:00,59.0,56.7,29.39,SE,132,4.0,5.0,92,0.00,,SKC,0.00,VWS V14.01,2013-06-01 08:33:00,
2013-06-01 03:35:00,59.0,56.7,29.39,SE,132,5.0,7.0,92,0.00,,SKC,0.00,VWS V14.01,2013-06-01 08:35:00,
2013-06-01 03:36:00,58.9,56.6,29.39,SE,132,4.0,7.0,92,0.00,,SKC,0.00,VWS V14.01,2013-06-01 08:36:00,
2013-06-01 03:37:00,59.0,56.7,29.39,SE,132,5.0,7.0,92,0.00,,SKC,0.00,VWS V14.01,2013-06-01 08:37:00,
2013-06-01 03:38:00,59.0,56.7,29.39,SE,132,2.0,5.0,92,0.00,,SKC,0.00,VWS V14.01,2013-06-01 08:38:00,
2013-06-01 03:39:00,58.9,56.6,29.39,SE,132,5.0,7.0,92,0.00,,SKC,0.00,VWS V14.01,2013-06-01 08:39:00,
2013-06-01 03:40:00,58.8,56.5,29.39,SE,132,6.0,7.0,92,0.00,,SKC,0.00,VWS V14.01,2013-06-01 08:40:00,
2013-06-01 03:41:00,58.8,56.5,29.40,SE,132,6.0,7.0,92,0.00,,SKC,0.00,VWS V14.01,2013-06-01 08:41:00,
2013-06-01 03:42:00,58.9,56.6,29.40,SE,132,5.0,7.0,92,0.00,,SKC,0.00,VWS V14.01,2013-06-01 08:42:00,
2013-06-01 03:43:00,59.0,56.7,29.39,SE,132,5.0,6.0,92,0.00,,SKC,0.00,VWS V14.01,2013-06-01 08:43:00,
2013-06-01 03:45:00,58.8,56.5,29.39,SE,132,5.0,7.0,92,0.00,,SKC,0.00,VWS V14.01,2013-06-01 08:45:00,
2013-06-01 03:48:00,58.7,56.4,29.39,SE,132,4.0,7.0,92,0.00,,SKC,0.00,VWS V14.01,2013-06-01 08:48:00,
2013-06-01 03:49:00,59.0,56.7,29.39,SE,132,5.0,7.0,92,0.00,,SKC,0.00,VWS V14.01,2013-06-01 08:49:00,
2013-06-01 03:52:00,58.7,56.4,29.39,SE,132,5.0,7.0,92,0.00,,SKC,0.00,VWS V14.01,2013-06-01 08:52:00,
2013-06-01 03:58:00,58.8,56.5,29.40,SE,132,5.0,7.0,92,0.00,,SKC,0.00,VWS V14.01,2013-06-01 08:58:00,
2013-06-01 03:59:00,58.9,56.6,29.40,SE,132,5.0,8.0,92,0.00,,SKC,0.00,VWS V14.01,2013-06-01 08:59:00,
2013-06-01 04:00:00,58.9,56.6,29.40,SE,132,2.0,8.0,92,0.00,,SKC,0.00,VWS V14.01,2013-06-01 09:00:00,
2013-06-01 04:02:00,58.9,56.6,29.40,SE,132,0.0,5.0,92,0.00,,SKC,0.00,VWS V14.01,2013-06-01 09:02:00,
2013-06-01 04:04:00,58.7,56.4,29.40,SE,132,2.0,7.0,92,0.00,,SKC,0.00,VWS V14.01,2013-06-01 09:04:00,
2013-06-01 04:10:00,58.7,56.4,29.40,SE,132,7.0,7.0,92,0.00,,SKC,0.00,VWS V14.01,2013-06-01 09:10:00,
2013-06-01 04:12:00,58.9,56.6,29.40,SE,132,6.0,7.0,92,0.00,,SKC,0.00,VWS V14.01,2013-06-01 09:12:00,
2013-06-01 04:15:00,59.0,56.7,29.40,SE,132,5.0,7.0,92,0.00,,SKC,0.00,VWS V14.01,2013-06-01 09:15:00,
2013-06-01 04:17:00,58.9,56.6,29.40,SE,132,2.0,5.0,92,0.00,,SKC,0.00,VWS V14.01,2013-06-01 09:17:00,
2013-06-01 04:21:00,59.0,57.0,29.40,SE,132,0.0,7.0,93,0.00,,SKC,0.00,VWS V14.01,2013-06-01 09:21:00,
2013-06-01 04:22:00,58.9,56.6,29.40,SE,132,4.0,5.0,92,0.00,,SKC,0.00,VWS V14.01,2013-06-01 09:22:00,
2013-06-01 04:23:00,59.0,56.7,29.40,SE,132,2.0,7.0,92,0.00,,SKC,0.00,VWS V14.01,2013-06-01 09:23:00,
2013-06-01 04:27:00,58.9,56.6,29.40,SE,132,5.0,7.0,92,0.00,,SKC,0.00,VWS V14.01,2013-06-01 09:27:00,
2013-06-01 04:30:00,59.0,56.7,29.40,SE,132,5.0,7.0,92,0.00,,SKC,0.00,VWS V14.01,2013-06-01 09:30:00,
2013-06-01 04:31:00,59.0,56.7,29.40,SE,132,4.0,6.0,92,0.00,,SKC,0.00,VWS V14.01,2013-06-01 09:31:00,
2013-06-01 04:32:00,59.0,57.0,29.40,SE,132,4.0,7.0,93,0.00,,SKC,0.00,VWS V14.01,2013-06-01 09:32:00,
2013-06-01 04:37:00,59.0,56.7,29.40,SE,132,1.0,6.0,92,0.00,,SKC,0.00,VWS V14.01,2013-06-01 09:37:00,
2013-06-01 04:38:00,59.0,56.7,29.40,SE,132,2.0,7.0,92,0.00,,SKC,0.00,VWS V14.01,2013-06-01 09:38:00,
2013-06-01 04:43:00,59.0,56.7,29.40,SE,132,5.0,7.0,92,0.00,,SKC,0.00,VWS V14.01,2013-06-01 09:43:00,
2013-06-01 04:46:00,59.0,56.7,29.41,SE,132,0.0,6.0,92,0.00,,SKC,0.00,VWS V14.01,2013-06-01 09:46:00,
2013-06-01 04:47:00,59.0,56.7,29.41,SE,132,0.0,6.0,92,0.00,,SKC,0.00,VWS V14.01,2013-06-01 09:47:00,
2013-06-01 04:48:00,59.0,56.7,29.41,SE,132,0.0,6.0,92,0.00,,SKC,0.00,VWS V14.01,2013-06-01 09:48:00,
2013-06-01 04:49:00,59.0,56.7,29.40,SE,132,5.0,6.0,92,0.00,,SKC,0.00,VWS V14.01,2013-06-01 09:49:00,
2013-06-01 04:50:00,59.0,56.7,29.41,SE,132,0.0,6.0,92,0.00,,SKC,0.00,VWS V14.01,2013-06-01 09:50:00,
2013-06-01 04:52:00,59.0,57.0,29.41,SE,132,0.0,6.0,93,0.00,,SKC,0.00,VWS V14.01,2013-06-01 09:52:00,
2013-06-01 04:53:00,59.0,57.0,29.41,SE,132,0.0,6.0,93,0.00,,SKC,0.00,VWS V14.01,2013-06-01 09:53:00,
2013-06-01 04:54:00,59.0,57.0,29.41,SE,132,0.0,6.0,93,0.00,,SKC,0.00,VWS V14.01,2013-06-01 09:54:00,
2013-06-01 04:55:00,59.0,56.7,29.40,SE,132,0.0,6.0,92,0.00,,SKC,0.00,VWS V14.01,2013-06-01 09:55:00,
2013-06-01 04:56:00,59.0,57.0,29.41,SE,132,0.0,6.0,93,0.00,,SKC,0.00,VWS V14.01,2013-06-01 09:56:00,
2013-06-01 04:57:00,59.0,57.0,29.41,SE,132,0.0,6.0,93,0.00,,SKC,0.00,VWS V14.01,2013-06-01 09:57:00,
2013-06-01 04:58:00,59.0,57.0,29.41,SE,132,2.0,6.0,93,0.00,,SKC,0.00,VWS V14.01,2013-06-01 09:58:00,
2013-06-01 04:59:00,59.0,57.0,29.40,SE,132,4.0,6.0,93,0.00,,SKC,0.00,VWS V14.01,2013-06-01 09:59:00,
2013-06-01 05:00:00,59.0,56.7,29.41,SE,132,0.0,6.0,92,0.00,,SKC,0.00,VWS V14.01,2013-06-01 10:00:00,
2013-06-01 05:01:00,59.0,57.0,29.41,SE,132,4.0,4.0,93,0.00,,SKC,0.00,VWS V14.01,2013-06-01 10:01:00,
2013-06-01 05:02:00,59.0,57.0,29.41,SE,132,4.0,5.0,93,0.00,,SKC,0.00,VWS V14.01,2013-06-01 10:02:00,
2013-06-01 05:03:00,59.0,57.0,29.41,SE,132,4.0,5.0,93,0.00,,SKC,0.00,VWS V14.01,2013-06-01 10:03:00,
2013-06-01 05:05:00,59.0,57.0,29.41,SE,132,4.0,5.0,93,0.00,,SKC,0.00,VWS V14.01,2013-06-01 10:05:00,
2013-06-01 05:07:00,59.0,56.7,29.41,SE,132,0.0,6.0,92,0.00,,SKC,0.00,VWS V14.01,2013-06-01 10:07:00,
2013-06-01 05:08:00,59.0,56.7,29.41,SE,132,1.0,5.0,92,0.00,,SKC,0.00,VWS V14.01,2013-06-01 10:08:00,
2013-06-01 05:09:00,58.9,56.6,29.41,SE,132,0.0,5.0,92,0.00,,SKC,0.00,VWS V14.01,2013-06-01 10:09:00,
2013-06-01 05:10:00,58.8,56.5,29.41,SE,132,0.0,5.0,92,0.00,,SKC,0.00,VWS V14.01,2013-06-01 10:10:00,
2013-06-01 05:11:00,58.7,56.4,29.41,SE,132,0.0,5.0,92,0.00,,SKC,0.00,VWS V14.01,2013-06-01 10:11:00,
2013-06-01 05:12:00,58.7,56.4,29.41,SE,132,0.0,5.0,92,0.00,,SKC,0.00,VWS V14.01,2013-06-01 10:12:00,
2013-06-01 05:13:00,58.7,56.4,29.41,SE,132,0.0,5.0,92,0.00,,SKC,0.00,VWS V14.01,2013-06-01 10:13:00,
2013-06-01 05:14:00,58.7,56.4,29.41,SE,132,0.0,5.0,92,0.00,,SKC,0.00,VWS V14.01,2013-06-01 10:14:00,
2013-06-01 05:15:00,58.7,56.4,29.41,SE,132,0.0,5.0,92,0.00,,SKC,0.00,VWS V14.01,2013-06-01 10:15:00,
2013-06-01 05:16:00,58.7,56.4,29.41,SE,132,0.0,5.0,92,0.00,,SKC,0.00,VWS V14.01,2013-06-01 10:16:00,
2013-06-01 05:17:00,58.6,56.3,29.41,SE,132,0.0,5.0,92,0.00,,SKC,0.00,VWS V14.01,2013-06-01 10:17:00,
2013-06-01 05:18:00,58.6,56.3,29.41,SE,132,0.0,5.0,92,0.00,,SKC,0.00,VWS V14.01,2013-06-01 10:18:00,
2013-06-01 05:19:00,58.6,56.3,29.41,SE,132,0.0,5.0,92,0.00,,SKC,0.00,VWS V14.01,2013-06-01 10:19:00,
2013-06-01 05:20:00,59.0,57.0,29.41,SE,132,2.0,5.0,93,0.00,,SKC,0.00,VWS V14.01,2013-06-01 10:20:00,
2013-06-01 05:21:00,58.6,56.6,29.41,SE,132,0.0,5.0,93,0.00,,SKC,0.00,VWS V14.01,2013-06-01 10:21:00,
2013-06-01 05:22:00,58.6,56.6,29.41,SE,132,0.0,5.0,93,0.00,,SKC,0.00,VWS V14.01,2013-06-01 10:22:00,
2013-06-01 05:23:00,58.5,56.5,29.41,SE,132,0.0,5.0,93,0.00,,SKC,0.00,VWS V14.01,2013-06-01 10:23:00,
2013-06-01 05:24:00,58.5,56.5,29.41,SE,132,0.0,5.0,93,0.00,,SKC,0.00,VWS V14.01,2013-06-01 10:24:00,
2013-06-01 05:25:00,58.5,56.5,29.41,SE,132,0.0,5.0,93,0.00,,SKC,0.00,VWS V14.01,2013-06-01 10:25:00,
2013-06-01 05:26:00,58.5,56.5,29.41,SE,132,0.0,5.0,93,0.00,,SKC,0.00,VWS V14.01,2013-06-01 10:26:00,
2013-06-01 05:27:00,58.5,56.5,29.41,SE,132,0.0,5.0,93,0.00,,SKC,0.00,VWS V14.01,2013-06-01 10:27:00,
2013-06-01 05:28:00,58.5,56.5,29.41,SE,132,0.0,5.0,93,0.00,,SKC,0.00,VWS V14.01,2013-06-01 10:28:00,
2013-06-01 05:29:00,58.5,56.5,29.42,SE,132,0.0,5.0,93,0.00,,SKC,0.00,VWS V14.01,2013-06-01 10:29:00,
2013-06-01 05:30:00,58.5,56.5,29.42,SE,132,0.0,5.0,93,0.00,,SKC,0.00,VWS V14.01,2013-06-01 10:30:00,
2013-06-01 05:31:00,58.5,56.5,29.42,SE,132,0.0,0.0,93,0.00,,SKC,0.00,VWS V14.01,2013-06-01 10:31:00,
2013-06-01 05:32:00,58.5,56.5,29.42,SE,132,0.0,0.0,93,0.00,,SKC,0.00,VWS V14.01,2013-06-01 10:32:00,
2013-06-01 05:33:00,58.5,56.5,29.42,SE,132,0.0,0.0,93,0.00,,SKC,0.00,VWS V14.01,2013-06-01 10:33:00,
2013-06-01 05:34:00,58.5,56.5,29.42,SE,132,0.0,0.0,93,0.00,,SKC,0.00,VWS V14.01,2013-06-01 10:34:00,
2013-06-01 05:35:00,58.4,56.4,29.42,SE,132,0.0,0.0,93,0.00,,SKC,0.00,VWS V14.01,2013-06-01 10:35:00,
2013-06-01 05:36:00,58.4,56.4,29.42,SE,132,0.0,0.0,93,0.00,,SKC,0.00,VWS V14.01,2013-06-01 10:36:00,
2013-06-01 05:37:00,58.4,56.4,29.42,SE,132,0.0,0.0,93,0.00,,SKC,0.00,VWS V14.01,2013-06-01 10:37:00,
2013-06-01 05:38:00,58.4,56.4,29.42,SE,132,0.0,0.0,93,0.00,,SKC,0.00,VWS V14.01,2013-06-01 10:38:00,
2013-06-01 05:39:00,58.4,56.4,29.42,SE,132,0.0,0.0,93,0.00,,SKC,0.00,VWS V14.01,2013-06-01 10:39:00,
2013-06-01 05:40:00,58.4,56.4,29.42,SE,132,0.0,0.0,93,0.00,,SKC,0.00,VWS V14.01,2013-06-01 10:40:00,
2013-06-01 05:41:00,58.4,56.4,29.42,SE,132,0.0,0.0,93,0.00,,SKC,0.00,VWS V14.01,2013-06-01 10:41:00,
2013-06-01 05:42:00,58.4,56.4,29.42,SE,132,0.0,0.0,93,0.00,,SKC,0.00,VWS V14.01,2013-06-01 10:42:00,
2013-06-01 05:43:00,58.4,56.4,29.42,SE,132,0.0,0.0,93,0.00,,SKC,0.00,VWS V14.01,2013-06-01 10:43:00,
2013-06-01 05:44:00,58.4,56.4,29.42,SE,132,0.0,0.0,93,0.00,,SKC,0.00,VWS V14.01,2013-06-01 10:44:00,
2013-06-01 05:45:00,58.4,56.4,29.42,SE,132,0.0,0.0,93,0.00,,SKC,0.00,VWS V14.01,2013-06-01 10:45:00,
2013-06-01 05:46:00,58.4,56.4,29.42,SE,132,0.0,0.0,93,0.00,,SKC,0.00,VWS V14.01,2013-06-01 10:46:00,
2013-06-01 05:47:00,58.4,56.4,29.42,SE,132,0.0,0.0,93,0.00,,SKC,0.00,VWS V14.01,2013-06-01 10:47:00,
2013-06-01 05:48:00,58.4,56.4,29.42,SE,132,0.0,0.0,93,0.00,,SKC,0.00,VWS V14.01,2013-06-01 10:48:00,
2013-06-01 05:49:00,58.4,56.4,29.42,SE,132,0.0,0.0,93,0.00,,SKC,0.00,VWS V14.01,2013-06-01 10:49:00,
2013-06-01 05:50:00,58.4,56.4,29.42,SE,132,0.0,0.0,93,0.00,,SKC,0.00,VWS V14.01,2013-06-01 10:50:00,
2013-06-01 05:51:00,58.4,56.4,29.42,SE,132,0.0,0.0,93,0.00,,SKC,0.00,VWS V14.01,2013-06-01 10:51:00,
2013-06-01 05:52:00,58.4,56.4,29.42,SE,132,0.0,0.0,93,0.00,,SKC,0.00,VWS V14.01,2013-06-01 10:52:00,
2013-06-01 05:53:00,58.4,56.4,29.42,SE,132,0.0,0.0,93,0.00,,SKC,0.00,VWS V14.01,2013-06-01 10:53:00,
2013-06-01 05:54:00,58.4,56.4,29.42,SE,132,0.0,0.0,93,0.00,,SKC,0.00,VWS V14.01,2013-06-01 10:54:00,
2013-06-01 05:55:00,58.4,56.4,29.42,SE,132,0.0,0.0,93,0.00,,SKC,0.00,VWS V14.01,2013-06-01 10:55:00,
2013-06-01 05:56:00,58.4,56.4,29.42,SE,132,0.0,0.0,93,0.00,,SKC,0.00,VWS V14.01,2013-06-01 10:56:00,
2013-06-01 05:57:00,58.5,56.5,29.42,SE,132,0.0,0.0,93,0.00,,SKC,0.00,VWS V14.01,2013-06-01 10:57:00,
2013-06-01 05:58:00,58.5,56.5,29.42,SE,132,0.0,0.0,93,0.00,,SKC,0.00,VWS V14.01,2013-06-01 10:58:00,
2013-06-01 05:59:00,58.5,56.5,29.42,SE,132,0.0,0.0,93,0.00,,SKC,0.00,VWS V14.01,2013-06-01 10:59:00,
2013-06-01 06:00:00,58.5,56.5,29.42,SE,132,0.0,0.0,93,0.00,,SKC,0.00,VWS V14.01,2013-06-01 11:00:00,
2013-06-01 06:01:00,58.5,56.5,29.42,SE,132,0.0,0.0,93,0.00,,SKC,0.00,VWS V14.01,2013-06-01 11:01:00,
2013-06-01 06:02:00,58.5,56.5,29.42,SE,132,0.0,0.0,93,0.00,,SKC,0.00,VWS V14.01,2013-06-01 11:02:00,
2013-06-01 06:03:00,58.6,56.6,29.42,SE,132,0.0,0.0,93,0.00,,SKC,0.00,VWS V14.01,2013-06-01 11:03:00,
2013-06-01 06:04:00,58.6,56.6,29.42,SE,132,0.0,0.0,93,0.00,,SKC,0.00,VWS V14.01,2013-06-01 11:04:00,
2013-06-01 06:05:00,58.7,57.0,29.42,SE,132,0.0,0.0,94,0.00,,SKC,0.00,VWS V14.01,2013-06-01 11:05:00,
2013-06-01 06:06:00,58.7,57.0,29.42,SE,132,0.0,0.0,94,0.00,,SKC,0.00,VWS V14.01,2013-06-01 11:06:00,
2013-06-01 06:07:00,58.8,57.1,29.42,SE,132,0.0,0.0,94,0.00,,SKC,0.00,VWS V14.01,2013-06-01 11:07:00,
2013-06-01 06:08:00,58.9,57.2,29.42,SE,132,0.0,0.0,94,0.00,,SKC,0.00,VWS V14.01,2013-06-01 11:08:00,
2013-06-01 06:09:00,58.9,57.2,29.42,SE,132,0.0,0.0,94,0.00,,SKC,0.00,VWS V14.01,2013-06-01 11:09:00,
2013-06-01 06:10:00,59.0,57.0,29.43,SE,132,0.0,0.0,93,0.00,,SKC,0.00,VWS V14.01,2013-06-01 11:10:00,
2013-06-01 06:11:00,59.0,57.0,29.43,SE,132,0.0,0.0,93,0.00,,SKC,0.00,VWS V14.01,2013-06-01 11:11:00,
2013-06-01 06:12:00,59.0,57.0,29.43,SE,132,0.0,0.0,93,0.00,,SKC,0.00,VWS V14.01,2013-06-01 11:12:00,
2013-06-01 06:14:00,59.0,57.0,29.43,SE,132,0.0,0.0,93,0.00,,SKC,0.00,VWS V14.01,2013-06-01 11:14:00,
2013-06-01 06:15:00,59.0,57.0,29.43,SE,132,0.0,0.0,93,0.00,,SKC,0.00,VWS V14.01,2013-06-01 11:15:00,
2013-06-01 06:16:00,59.0,57.0,29.43,SE,132,0.0,0.0,93,0.00,,SKC,0.00,VWS V14.01,2013-06-01 11:16:00,
2013-06-01 06:17:00,59.0,57.0,29.43,SE,132,0.0,0.0,93,0.00,,SKC,0.00,VWS V14.01,2013-06-01 11:17:00,
2013-06-01 06:18:00,59.0,57.0,29.43,SE,132,0.0,0.0,93,0.00,,SKC,0.00,VWS V14.01,2013-06-01 11:18:00,
2013-06-01 06:19:00,59.0,57.0,29.43,SE,132,0.0,0.0,93,0.00,,SKC,0.00,VWS V14.01,2013-06-01 11:19:00,
2013-06-01 06:20:00,59.0,57.0,29.43,SE,132,0.0,0.0,93,0.00,,SKC,0.00,VWS V14.01,2013-06-01 11:20:00,
2013-06-01 06:21:00,59.0,57.0,29.43,SE,132,0.0,0.0,93,0.00,,SKC,0.00,VWS V14.01,2013-06-01 11:21:00,
2013-06-01 06:24:00,59.0,57.0,29.44,SE,132,0.0,0.0,93,0.00,,SKC,0.00,VWS V14.01,2013-06-01 11:24:00,
2013-06-01 06:25:00,59.0,57.0,29.43,SE,132,0.0,0.0,93,0.00,,SKC,0.00,VWS V14.01,2013-06-01 11:25:00,
2013-06-01 06:26:00,59.0,57.0,29.43,SE,132,0.0,0.0,93,0.00,,SKC,0.00,VWS V14.01,2013-06-01 11:26:00,
2013-06-01 06:27:00,59.0,57.0,29.43,SE,132,0.0,0.0,93,0.00,,SKC,0.00,VWS V14.01,2013-06-01 11:27:00,
2013-06-01 06:28:00,59.0,57.0,29.43,SE,132,0.0,0.0,93,0.00,,SKC,0.00,VWS V14.01,2013-06-01 11:28:00,
2013-06-01 06:30:00,59.0,57.0,29.43,SE,132,0.0,0.0,93,0.00,,SKC,0.00,VWS V14.01,2013-06-01 11:30:00,
2013-06-01 06:31:00,59.0,57.0,29.43,SE,132,0.0,0.0,93,0.00,,SKC,0.00,VWS V14.01,2013-06-01 11:31:00,
2013-06-01 06:32:00,59.0,57.0,29.43,SE,132,0.0,0.0,93,0.00,,SKC,0.00,VWS V14.01,2013-06-01 11:32:00,
2013-06-01 06:33:00,58.9,56.9,29.43,SE,132,0.0,0.0,93,0.00,,SKC,0.00,VWS V14.01,2013-06-01 11:33:00,
2013-06-01 06:34:00,59.0,57.0,29.44,SE,132,0.0,0.0,93,0.00,,SKC,0.00,VWS V14.01,2013-06-01 11:34:00,
2013-06-01 06:35:00,59.0,57.0,29.44,SE,132,0.0,0.0,93,0.00,,SKC,0.00,VWS V14.01,2013-06-01 11:35:00,
2013-06-01 06:36:00,59.0,57.0,29.44,SE,132,0.0,0.0,93,0.00,,SKC,0.00,VWS V14.01,2013-06-01 11:36:00,
2013-06-01 06:37:00,59.0,57.0,29.43,SE,132,0.0,0.0,93,0.00,,SKC,0.00,VWS V14.01,2013-06-01 11:37:00,
2013-06-01 06:38:00,59.0,57.0,29.44,SE,132,0.0,0.0,93,0.00,,SKC,0.00,VWS V14.01,2013-06-01 11:38:00,
2013-06-01 06:39:00,59.0,57.0,29.44,SE,132,0.0,0.0,93,0.00,,SKC,0.00,VWS V14.01,2013-06-01 11:39:00,
2013-06-01 06:40:00,59.0,57.0,29.44,SE,132,0.0,0.0,93,0.00,,SKC,0.00,VWS V14.01,2013-06-01 11:40:00,
2013-06-01 06:41:00,59.0,57.0,29.44,SE,132,0.0,0.0,93,0.00,,SKC,0.00,VWS V14.01,2013-06-01 11:41:00,
2013-06-01 06:42:00,59.0,57.0,29.44,SE,132,0.0,0.0,93,0.00,,SKC,0.00,VWS V14.01,2013-06-01 11:42:00,
2013-06-01 06:43:00,59.0,57.0,29.44,SE,132,0.0,0.0,93,0.00,,SKC,0.00,VWS V14.01,2013-06-01 11:43:00,
2013-06-01 06:44:00,59.0,57.0,29.43,SE,132,0.0,0.0,93,0.00,,SKC,0.00,VWS V14.01,2013-06-01 11:44:00,
2013-06-01 06:45:00,59.0,57.0,29.44,SE,132,0.0,0.0,93,0.00,,SKC,0.00,VWS V14.01,2013-06-01 11:45:00,
2013-06-01 06:46:00,59.0,57.0,29.44,SE,132,0.0,0.0,93,0.00,,SKC,0.00,VWS V14.01,2013-06-01 11:46:00,
2013-06-01 06:47:00,59.0,57.0,29.44,SE,132,0.0,0.0,93,0.00,,SKC,0.00,VWS V14.01,2013-06-01 11:47:00,
2013-06-01 06:48:00,59.0,57.0,29.44,SE,132,0.0,0.0,93,0.00,,SKC,0.00,VWS V14.01,2013-06-01 11:48:00,
2013-06-01 06:49:00,59.0,57.0,29.44,SE,132,0.0,0.0,93,0.00,,SKC,0.00,VWS V14.01,2013-06-01 11:49:00,
2013-06-01 06:52:00,59.0,57.0,29.44,SE,132,0.0,0.0,93,0.00,,SKC,0.00,VWS V14.01,2013-06-01 11:52:00,
2013-06-01 06:53:00,59.0,57.0,29.44,SE,132,0.0,0.0,93,0.00,,SKC,0.00,VWS V14.01,2013-06-01 11:53:00,
2013-06-01 06:55:00,59.0,57.0,29.44,SE,132,0.0,0.0,93,0.00,,SKC,0.00,VWS V14.01,2013-06-01 11:55:00,
2013-06-01 06:56:00,59.0,57.0,29.44,SE,132,0.0,0.0,93,0.00,,SKC,0.00,VWS V14.01,2013-06-01 11:56:00,
2013-06-01 06:57:00,59.0,57.0,29.44,SE,132,0.0,0.0,93,0.00,,SKC,0.00,VWS V14.01,2013-06-01 11:57:00,
2013-06-01 06:58:00,59.0,57.0,29.44,SE,132,0.0,0.0,93,0.00,,SKC,0.00,VWS V14.01,2013-06-01 11:58:00,
2013-06-01 07:00:00,59.0,57.0,29.44,SE,132,0.0,0.0,93,0.00,,SKC,0.00,VWS V14.01,2013-06-01 12:00:00,
2013-06-01 07:02:00,59.0,57.0,29.44,SE,132,0.0,0.0,93,0.00,,SKC,0.00,VWS V14.01,2013-06-01 12:02:00,
2013-06-01 07:03:00,59.0,57.0,29.44,SE,132,0.0,0.0,93,0.00,,SKC,0.00,VWS V14.01,2013-06-01 12:03:00,
2013-06-01 07:04:00,59.0,57.0,29.44,SE,132,0.0,0.0,93,0.00,,SKC,0.00,VWS V14.01,2013-06-01 12:04:00,
2013-06-01 07:06:00,59.0,57.0,29.44,SE,132,0.0,0.0,93,0.00,,SKC,0.00,VWS V14.01,2013-06-01 12:06:00,
2013-06-01 07:08:00,59.0,56.7,29.44,SE,132,0.0,0.0,92,0.00,,SKC,0.00,VWS V14.01,2013-06-01 12:08:00,
2013-06-01 07:09:00,59.0,56.7,29.44,SE,132,0.0,0.0,92,0.00,,SKC,0.00,VWS V14.01,2013-06-01 12:09:00,
2013-06-01 07:12:00,59.0,56.7,29.44,SE,132,0.0,0.0,92,0.00,,SKC,0.00,VWS V14.01,2013-06-01 12:12:00,
2013-06-01 07:15:00,59.0,57.0,29.44,SE,132,0.0,0.0,93,0.00,,SKC,0.00,VWS V14.01,2013-06-01 12:15:00,
2013-06-01 07:21:00,59.0,57.0,29.44,SE,132,0.0,0.0,93,0.00,,SKC,0.00,VWS V14.01,2013-06-01 12:21:00,
2013-06-01 07:22:00,59.3,57.3,29.44,SE,132,0.0,0.0,93,0.00,,SKC,0.00,VWS V14.01,2013-06-01 12:22:00,
2013-06-01 07:24:00,59.5,57.2,29.44,SE,132,0.0,0.0,92,0.00,,SKC,0.00,VWS V14.01,2013-06-01 12:24:00,
2013-06-01 07:25:00,59.5,57.2,29.44,SE,132,0.0,0.0,92,0.00,,SKC,0.00,VWS V14.01,2013-06-01 12:25:00,
2013-06-01 07:26:00,59.0,56.7,29.44,SE,132,0.0,0.0,92,0.00,,SKC,0.00,VWS V14.01,2013-06-01 12:26:00,
2013-06-01 07:27:00,59.6,57.3,29.44,SE,132,0.0,0.0,92,0.00,,SKC,0.00,VWS V14.01,2013-06-01 12:27:00,
2013-06-01 07:28:00,59.6,57.3,29.44,SE,132,0.0,0.0,92,0.00,,SKC,0.00,VWS V14.01,2013-06-01 12:28:00,
2013-06-01 07:30:00,59.6,57.6,29.44,SE,132,0.0,0.0,93,0.00,,SKC,0.00,VWS V14.01,2013-06-01 12:30:00,
2013-06-01 07:32:00,59.0,57.0,29.44,SE,132,0.0,0.0,93,0.00,,SKC,0.00,VWS V14.01,2013-06-01 12:32:00,
2013-06-01 07:34:00,59.8,57.5,29.44,SE,132,0.0,0.0,92,0.00,,SKC,0.00,VWS V14.01,2013-06-01 12:34:00,
2013-06-01 07:35:00,59.9,57.6,29.44,SE,132,0.0,0.0,92,0.00,,SKC,0.00,VWS V14.01,2013-06-01 12:35:00,
2013-06-01 07:37:00,59.3,57.3,29.44,SE,132,0.0,0.0,93,0.00,,SKC,0.00,VWS V14.01,2013-06-01 12:37:00,
2013-06-01 07:38:00,60.0,57.7,29.44,SE,132,0.0,0.0,92,0.00,,SKC,0.00,VWS V14.01,2013-06-01 12:38:00,
2013-06-01 07:40:00,60.1,57.8,29.44,SE,132,0.0,0.0,92,0.00,,SKC,0.00,VWS V14.01,2013-06-01 12:40:00,
2013-06-01 07:42:00,59.5,57.2,29.44,SE,132,0.0,0.0,92,0.00,,SKC,0.00,VWS V14.01,2013-06-01 12:42:00,
2013-06-01 07:43:00,60.2,57.9,29.44,SE,132,0.0,0.0,92,0.00,,SKC,0.00,VWS V14.01,2013-06-01 12:43:00,
2013-06-01 07:44:00,60.2,57.9,29.44,SE,132,0.0,0.0,92,0.00,,SKC,0.00,VWS V14.01,2013-06-01 12:44:00,
2013-06-01 07:45:00,60.2,57.9,29.44,SE,132,0.0,0.0,92,0.00,,SKC,0.00,VWS V14.01,2013-06-01 12:45:00,
2013-06-01 07:46:00,60.3,58.0,29.44,SE,132,0.0,0.0,92,0.00,,SKC,0.00,VWS V14.01,2013-06-01 12:46:00,
2013-06-01 07:47:00,59.7,57.4,29.44,SE,132,0.0,0.0,92,0.00,,SKC,0.00,VWS V14.01,2013-06-01 12:47:00,
2013-06-01 07:48:00,60.4,58.1,29.44,SE,132,0.0,0.0,92,0.00,,SKC,0.00,VWS V14.01,2013-06-01 12:48:00,
2013-06-01 07:49:00,60.4,58.1,29.44,SE,132,0.0,0.0,92,0.00,,SKC,0.00,VWS V14.01,2013-06-01 12:49:00,
2013-06-01 07:50:00,60.5,58.2,29.44,SE,132,0.0,0.0,92,0.00,,SKC,0.00,VWS V14.01,2013-06-01 12:50:00,
2013-06-01 07:51:00,60.5,58.2,29.44,SE,132,0.0,0.0,92,0.00,,SKC,0.00,VWS V14.01,2013-06-01 12:51:00,
2013-06-01 07:52:00,59.9,57.6,29.44,SE,132,0.0,0.0,92,0.00,,SKC,0.00,VWS V14.01,2013-06-01 12:52:00,
2013-06-01 07:53:00,60.7,58.4,29.44,SE,132,0.0,0.0,92,0.00,,SKC,0.00,VWS V14.01,2013-06-01 12:53:00,
2013-06-01 07:54:00,60.7,58.4,29.44,SE,132,0.0,0.0,92,0.00,,SKC,0.00,VWS V14.01,2013-06-01 12:54:00,
2013-06-01 07:55:00,60.7,58.4,29.44,SE,132,0.0,0.0,92,0.00,,SKC,0.00,VWS V14.01,2013-06-01 12:55:00,
2013-06-01 07:56:00,60.8,58.5,29.44,SE,132,0.0,0.0,92,0.00,,SKC,0.00,VWS V14.01,2013-06-01 12:56:00,
2013-06-01 07:57:00,60.2,57.9,29.44,SE,132,0.0,0.0,92,0.00,,SKC,0.00,VWS V14.01,2013-06-01 12:57:00,
2013-06-01 07:58:00,60.8,58.2,29.44,SE,132,0.0,0.0,91,0.00,,SKC,0.00,VWS V14.01,2013-06-01 12:58:00,
2013-06-01 07:59:00,60.9,58.3,29.44,SE,132,0.0,0.0,91,0.00,,SKC,0.00,VWS V14.01,2013-06-01 12:59:00,
2013-06-01 08:00:00,60.9,58.3,29.44,SE,132,0.0,0.0,91,0.00,,SKC,0.00,VWS V14.01,2013-06-01 13:00:00,
2013-06-01 08:01:00,60.9,58.3,29.44,SE,132,0.0,0.0,91,0.00,,SKC,0.00,VWS V14.01,2013-06-01 13:01:00,
2013-06-01 08:02:00,61.0,58.4,29.44,SE,132,0.0,0.0,91,0.00,,SKC,0.00,VWS V14.01,2013-06-01 13:02:00,
2013-06-01 08:03:00,61.0,58.4,29.44,SE,132,0.0,0.0,91,0.00,,SKC,0.00,VWS V14.01,2013-06-01 13:03:00,
2013-06-01 08:04:00,61.0,58.4,29.44,SE,132,0.0,0.0,91,0.00,,SKC,0.00,VWS V14.01,2013-06-01 13:04:00,
2013-06-01 08:05:00,61.0,58.4,29.44,SE,132,0.0,0.0,91,0.00,,SKC,0.00,VWS V14.01,2013-06-01 13:05:00,
2013-06-01 08:06:00,61.1,58.5,29.44,SE,132,0.0,0.0,91,0.00,,SKC,0.00,VWS V14.01,2013-06-01 13:06:00,
2013-06-01 08:07:00,61.1,58.5,29.44,SE,132,0.0,0.0,91,0.00,,SKC,0.00,VWS V14.01,2013-06-01 13:07:00,
2013-06-01 08:08:00,61.1,58.5,29.44,SE,132,0.0,0.0,91,0.00,,SKC,0.00,VWS V14.01,2013-06-01 13:08:00,
2013-06-01 08:09:00,61.1,58.5,29.44,SE,132,0.0,0.0,91,0.00,,SKC,0.00,VWS V14.01,2013-06-01 13:09:00,
2013-06-01 08:10:00,61.1,58.5,29.44,SE,132,0.0,0.0,91,0.00,,SKC,0.00,VWS V14.01,2013-06-01 13:10:00,
2013-06-01 08:11:00,61.1,58.5,29.44,SE,132,0.0,0.0,91,0.00,,SKC,0.00,VWS V14.01,2013-06-01 13:11:00,
2013-06-01 08:12:00,61.1,58.5,29.44,SE,132,0.0,0.0,91,0.00,,SKC,0.00,VWS V14.01,2013-06-01 13:12:00,
2013-06-01 08:13:00,61.2,58.6,29.44,SE,132,0.0,1.0,91,0.00,,SKC,0.00,VWS V14.01,2013-06-01 13:13:00,
2013-06-01 08:14:00,61.2,58.6,29.44,SE,132,0.0,1.0,91,0.00,,SKC,0.00,VWS V14.01,2013-06-01 13:14:00,
2013-06-01 08:15:00,61.2,58.6,29.45,SE,132,0.0,1.0,91,0.00,,SKC,0.00,VWS V14.01,2013-06-01 13:15:00,
2013-06-01 08:16:00,61.2,58.6,29.45,SE,132,0.0,1.0,91,0.00,,SKC,0.00,VWS V14.01,2013-06-01 13:16:00,
2013-06-01 08:17:00,61.3,58.7,29.45,SE,132,0.0,1.0,91,0.00,,SKC,0.00,VWS V14.01,2013-06-01 13:17:00,
2013-06-01 08:18:00,61.3,58.7,29.45,SE,132,0.0,1.0,91,0.00,,SKC,0.00,VWS V14.01,2013-06-01 13:18:00,
2013-06-01 08:19:00,61.3,58.7,29.45,SE,132,0.0,1.0,91,0.00,,SKC,0.00,VWS V14.01,2013-06-01 13:19:00,
2013-06-01 08:20:00,61.3,58.7,29.45,SE,132,0.0,1.0,91,0.00,,SKC,0.00,VWS V14.01,2013-06-01 13:20:00,
2013-06-01 08:21:00,61.4,58.8,29.45,SE,132,0.0,1.0,91,0.00,,SKC,0.00,VWS V14.01,2013-06-01 13:21:00,
2013-06-01 08:22:00,61.4,58.8,29.45,SE,132,0.0,1.0,91,0.00,,SKC,0.00,VWS V14.01,2013-06-01 13:22:00,
2013-06-01 08:23:00,61.4,58.8,29.45,SE,132,0.0,1.0,91,0.00,,SKC,0.00,VWS V14.01,2013-06-01 13:23:00,
2013-06-01 08:24:00,61.5,58.8,29.45,SE,132,0.0,1.0,91,0.00,,SKC,0.00,VWS V14.01,2013-06-01 13:24:00,
2013-06-01 08:25:00,61.6,59.0,29.45,SE,132,0.0,1.0,91,0.00,,SKC,0.00,VWS V14.01,2013-06-01 13:25:00,
2013-06-01 08:26:00,61.6,59.0,29.45,SE,132,0.0,1.0,91,0.00,,SKC,0.00,VWS V14.01,2013-06-01 13:26:00,
2013-06-01 08:27:00,61.6,59.0,29.45,SE,132,0.0,1.0,91,0.00,,SKC,0.00,VWS V14.01,2013-06-01 13:27:00,
2013-06-01 08:28:00,61.7,59.0,29.45,SE,132,0.0,1.0,91,0.00,,SKC,0.00,VWS V14.01,2013-06-01 13:28:00,
2013-06-01 08:29:00,61.7,58.7,29.45,SE,132,0.0,1.0,90,0.00,,SKC,0.00,VWS V14.01,2013-06-01 13:29:00,
2013-06-01 08:30:00,61.8,58.8,29.45,SE,132,0.0,1.0,90,0.00,,SKC,0.00,VWS V14.01,2013-06-01 13:30:00,
2013-06-01 08:31:00,61.8,58.8,29.45,SE,132,0.0,2.0,90,0.00,,SKC,0.00,VWS V14.01,2013-06-01 13:31:00,
2013-06-01 08:32:00,61.8,58.8,29.45,SE,132,0.0,2.0,90,0.00,,SKC,0.00,VWS V14.01,2013-06-01 13:32:00,
2013-06-01 08:33:00,61.8,58.8,29.45,SE,132,0.0,2.0,90,0.00,,SKC,0.00,VWS V14.01,2013-06-01 13:33:00,
2013-06-01 08:34:00,61.8,58.8,29.45,SE,132,0.0,2.0,90,0.00,,SKC,0.00,VWS V14.01,2013-06-01 13:34:00,
2013-06-01 08:35:00,61.8,58.5,29.45,SE,132,0.0,2.0,89,0.00,,SKC,0.00,VWS V14.01,2013-06-01 13:35:00,
2013-06-01 08:36:00,61.8,58.5,29.45,SE,132,0.0,2.0,89,0.00,,SKC,0.00,VWS V14.01,2013-06-01 13:36:00,
2013-06-01 08:37:00,61.8,58.5,29.45,SE,132,0.0,2.0,89,0.00,,SKC,0.00,VWS V14.01,2013-06-01 13:37:00,
2013-06-01 08:38:00,61.8,58.5,29.45,SE,132,0.0,2.0,89,0.00,,SKC,0.00,VWS V14.01,2013-06-01 13:38:00,
2013-06-01 08:39:00,61.8,58.5,29.45,SE,132,0.0,2.0,89,0.00,,SKC,0.00,VWS V14.01,2013-06-01 13:39:00,
2013-06-01 08:40:00,61.8,58.5,29.45,SE,132,0.0,2.0,89,0.00,,SKC,0.00,VWS V14.01,2013-06-01 13:40:00,
2013-06-01 08:41:00,61.8,58.5,29.45,SE,132,0.0,2.0,89,0.00,,SKC,0.00,VWS V14.01,2013-06-01 13:41:00,
2013-06-01 08:42:00,61.8,58.5,29.45,SE,132,0.0,2.0,89,0.00,,SKC,0.00,VWS V14.01,2013-06-01 13:42:00,
2013-06-01 08:43:00,61.8,58.5,29.46,SE,132,0.0,2.0,89,0.00,,SKC,0.00,VWS V14.01,2013-06-01 13:43:00,
2013-06-01 08:44:00,61.9,58.6,29.46,SE,132,0.0,2.0,89,0.00,,SKC,0.00,VWS V14.01,2013-06-01 13:44:00,
2013-06-01 08:45:00,61.9,58.6,29.46,SE,132,0.0,2.0,89,0.00,,SKC,0.00,VWS V14.01,2013-06-01 13:45:00,
2013-06-01 08:46:00,61.9,58.6,29.45,SE,132,0.0,2.0,89,0.00,,SKC,0.00,VWS V14.01,2013-06-01 13:46:00,
2013-06-01 08:47:00,62.0,58.7,29.46,SE,132,0.0,2.0,89,0.00,,SKC,0.00,VWS V14.01,2013-06-01 13:47:00,
2013-06-01 08:48:00,62.0,59.0,29.46,SE,132,0.0,2.0,90,0.00,,SKC,0.00,VWS V14.01,2013-06-01 13:48:00,
2013-06-01 08:49:00,62.0,59.0,29.46,SE,132,0.0,2.0,90,0.00,,SKC,0.00,VWS V14.01,2013-06-01 13:49:00,
2013-06-01 08:50:00,62.1,59.1,29.46,SE,132,0.0,2.0,90,0.00,,SKC,0.00,VWS V14.01,2013-06-01 13:50:00,
2013-06-01 08:51:00,62.1,59.1,29.46,SE,132,0.0,2.0,90,0.00,,SKC,0.00,VWS V14.01,2013-06-01 13:51:00,
2013-06-01 08:52:00,62.2,59.2,29.46,SE,132,0.0,2.0,90,0.00,,SKC,0.00,VWS V14.01,2013-06-01 13:52:00,
2013-06-01 08:53:00,62.2,58.9,29.46,SE,132,0.0,2.0,89,0.00,,SKC,0.00,VWS V14.01,2013-06-01 13:53:00,
2013-06-01 08:54:00,62.2,58.9,29.46,SE,132,1.0,2.0,89,0.00,,SKC,0.00,VWS V14.01,2013-06-01 13:54:00,
2013-06-01 08:55:00,62.3,59.0,29.46,SE,132,0.0,2.0,89,0.00,,SKC,0.00,VWS V14.01,2013-06-01 13:55:00,
2013-06-01 08:56:00,62.3,59.0,29.46,SE,132,0.0,2.0,89,0.00,,SKC,0.00,VWS V14.01,2013-06-01 13:56:00,
2013-06-01 08:57:00,62.4,59.1,29.46,SE,132,0.0,2.0,89,0.00,,SKC,0.00,VWS V14.01,2013-06-01 13:57:00,
2013-06-01 08:58:00,62.4,59.1,29.46,SE,132,0.0,2.0,89,0.00,,SKC,0.00,VWS V14.01,2013-06-01 13:58:00,
2013-06-01 08:59:00,62.5,59.2,29.46,SE,132,0.0,2.0,89,0.00,,SKC,0.00,VWS V14.01,2013-06-01 13:59:00,
2013-06-01 09:00:00,62.5,59.2,29.46,SE,132,0.0,2.0,89,0.00,,SKC,0.00,VWS V14.01,2013-06-01 14:00:00,
2013-06-01 09:01:00,62.6,59.3,29.47,SE,132,0.0,1.0,89,0.00,,SKC,0.00,VWS V14.01,2013-06-01 14:01:00,
2013-06-01 09:02:00,62.7,59.4,29.47,SE,132,1.0,1.0,89,0.00,,SKC,0.00,VWS V14.01,2013-06-01 14:02:00,
2013-06-01 09:03:00,62.8,59.5,29.47,SE,132,0.0,1.0,89,0.00,,SKC,0.00,VWS V14.01,2013-06-01 14:03:00,
2013-06-01 09:04:00,62.9,59.6,29.47,SE,132,0.0,1.0,89,0.00,,SKC,0.00,VWS V14.01,2013-06-01 14:04:00,
2013-06-01 09:05:00,63.0,59.7,29.47,SE,132,0.0,1.0,89,0.00,,SKC,0.00,VWS V14.01,2013-06-01 14:05:00,
2013-06-01 09:06:00,63.0,59.4,29.47,SE,132,0.0,1.0,88,0.00,,SKC,0.00,VWS V14.01,2013-06-01 14:06:00,
2013-06-01 09:08:00,63.1,59.5,29.47,SE,132,0.0,1.0,88,0.00,,SKC,0.00,VWS V14.01,2013-06-01 14:08:00,
2013-06-01 09:09:00,63.1,59.5,29.47,SE,132,0.0,1.0,88,0.00,,SKC,0.00,VWS V14.01,2013-06-01 14:09:00,
2013-06-01 09:10:00,63.2,59.6,29.47,SE,132,0.0,1.0,88,0.00,,SKC,0.00,VWS V14.01,2013-06-01 14:10:00,
2013-06-01 09:11:00,63.2,59.3,29.47,SE,132,0.0,1.0,87,0.00,,SKC,0.00,VWS V14.01,2013-06-01 14:11:00,
2013-06-01 09:12:00,63.3,59.4,29.47,SE,132,0.0,1.0,87,0.00,,SKC,0.00,VWS V14.01,2013-06-01 14:12:00,
2013-06-01 09:13:00,63.3,59.4,29.47,SE,132,0.0,1.0,87,0.00,,SKC,0.00,VWS V14.01,2013-06-01 14:13:00,
2013-06-01 09:14:00,63.4,59.5,29.47,SE,132,0.0,1.0,87,0.00,,SKC,0.00,VWS V14.01,2013-06-01 14:14:00,
2013-06-01 09:15:00,63.4,59.5,29.47,SE,132,0.0,1.0,87,0.00,,SKC,0.00,VWS V14.01,2013-06-01 14:15:00,
2013-06-01 09:16:00,63.4,59.5,29.47,SE,132,0.0,1.0,87,0.00,,SKC,0.00,VWS V14.01,2013-06-01 14:16:00,
2013-06-01 09:17:00,63.5,59.6,29.47,SE,132,0.0,1.0,87,0.00,,SKC,0.00,VWS V14.01,2013-06-01 14:17:00,
2013-06-01 09:18:00,63.6,59.7,29.47,SE,132,0.0,1.0,87,0.00,,SKC,0.00,VWS V14.01,2013-06-01 14:18:00,
2013-06-01 09:19:00,63.6,59.3,29.47,SE,132,0.0,1.0,86,0.00,,SKC,0.00,VWS V14.01,2013-06-01 14:19:00,
2013-06-01 09:20:00,63.7,59.4,29.47,SE,132,0.0,1.0,86,0.00,,SKC,0.00,VWS V14.01,2013-06-01 14:20:00,
2013-06-01 09:21:00,63.7,59.4,29.47,SE,132,0.0,1.0,86,0.00,,SKC,0.00,VWS V14.01,2013-06-01 14:21:00,
2013-06-01 09:22:00,63.8,59.5,29.47,SE,132,0.0,1.0,86,0.00,,SKC,0.00,VWS V14.01,2013-06-01 14:22:00,
2013-06-01 09:23:00,63.8,59.5,29.47,SE,132,0.0,1.0,86,0.00,,SKC,0.00,VWS V14.01,2013-06-01 14:23:00,
2013-06-01 09:24:00,63.8,59.5,29.47,SE,132,0.0,1.0,86,0.00,,SKC,0.00,VWS V14.01,2013-06-01 14:24:00,
2013-06-01 09:25:00,63.9,59.6,29.47,SE,132,0.0,1.0,86,0.00,,SKC,0.00,VWS V14.01,2013-06-01 14:25:00,
2013-06-01 09:26:00,63.9,59.6,29.47,SE,132,0.0,1.0,86,0.00,,SKC,0.00,VWS V14.01,2013-06-01 14:26:00,
2013-06-01 09:27:00,64.0,59.7,29.47,SE,132,0.0,1.0,86,0.00,,SKC,0.00,VWS V14.01,2013-06-01 14:27:00,
2013-06-01 09:28:00,64.0,59.7,29.47,SE,132,0.0,1.0,86,0.00,,SKC,0.00,VWS V14.01,2013-06-01 14:28:00,
2013-06-01 09:29:00,64.0,59.4,29.47,SE,132,0.0,1.0,85,0.00,,SKC,0.00,VWS V14.01,2013-06-01 14:29:00,
2013-06-01 09:30:00,63.9,59.3,29.47,SE,132,0.0,1.0,85,0.00,,SKC,0.00,VWS V14.01,2013-06-01 14:30:00,
2013-06-01 09:31:00,63.9,59.3,29.47,SE,132,0.0,1.0,85,0.00,,SKC,0.00,VWS V14.01,2013-06-01 14:31:00,
2013-06-01 09:32:00,63.9,59.3,29.47,SE,132,0.0,1.0,85,0.00,,SKC,0.00,VWS V14.01,2013-06-01 14:32:00,
2013-06-01 09:33:00,63.9,59.3,29.48,SE,132,0.0,1.0,85,0.00,,SKC,0.00,VWS V14.01,2013-06-01 14:33:00,
2013-06-01 09:34:00,63.9,59.3,29.48,SE,132,0.0,1.0,85,0.00,,SKC,0.00,VWS V14.01,2013-06-01 14:34:00,
2013-06-01 09:35:00,63.8,59.2,29.48,SE,132,1.0,1.0,85,0.00,,SKC,0.00,VWS V14.01,2013-06-01 14:35:00,
2013-06-01 09:36:00,63.8,59.2,29.48,SE,132,0.0,1.0,85,0.00,,SKC,0.00,VWS V14.01,2013-06-01 14:36:00,
2013-06-01 09:37:00,63.8,59.2,29.48,SE,132,0.0,1.0,85,0.00,,SKC,0.00,VWS V14.01,2013-06-01 14:37:00,
2013-06-01 09:38:00,63.7,59.1,29.48,SE,132,0.0,1.0,85,0.00,,SKC,0.00,VWS V14.01,2013-06-01 14:38:00,
2013-06-01 09:39:00,63.7,59.1,29.48,SE,132,0.0,1.0,85,0.00,,SKC,0.00,VWS V14.01,2013-06-01 14:39:00,
2013-06-01 09:40:00,63.7,59.4,29.47,SE,132,0.0,1.0,86,0.00,,SKC,0.00,VWS V14.01,2013-06-01 14:40:00,
2013-06-01 09:41:00,63.7,59.4,29.47,SE,132,0.0,1.0,86,0.00,,SKC,0.00,VWS V14.01,2013-06-01 14:41:00,
2013-06-01 09:42:00,63.7,59.4,29.47,SE,132,0.0,1.0,86,0.00,,SKC,0.00,VWS V14.01,2013-06-01 14:42:00,
2013-06-01 09:43:00,63.8,59.5,29.47,SE,132,0.0,1.0,86,0.00,,SKC,0.00,VWS V14.01,2013-06-01 14:43:00,
2013-06-01 09:44:00,63.8,59.5,29.47,SE,132,0.0,1.0,86,0.00,,SKC,0.00,VWS V14.01,2013-06-01 14:44:00,
2013-06-01 09:45:00,63.8,59.5,29.47,SE,132,0.0,1.0,86,0.00,,SKC,0.00,VWS V14.01,2013-06-01 14:45:00,
2013-06-01 09:46:00,63.8,59.5,29.47,SE,132,0.0,1.0,86,0.00,,SKC,0.00,VWS V14.01,2013-06-01 14:46:00,
2013-06-01 09:47:00,63.8,59.5,29.47,SE,132,0.0,1.0,86,0.00,,SKC,0.00,VWS V14.01,2013-06-01 14:47:00,
2013-06-01 09:48:00,63.8,59.2,29.47,SE,132,0.0,1.0,85,0.00,,SKC,0.00,VWS V14.01,2013-06-01 14:48:00,
2013-06-01 09:49:00,63.8,59.2,29.48,SE,132,0.0,1.0,85,0.00,,SKC,0.00,VWS V14.01,2013-06-01 14:49:00,
2013-06-01 09:50:00,63.8,59.2,29.48,SE,132,0.0,1.0,85,0.00,,SKC,0.00,VWS V14.01,2013-06-01 14:50:00,
2013-06-01 09:51:00,63.9,59.3,29.48,SE,132,0.0,1.0,85,0.00,,SKC,0.00,VWS V14.01,2013-06-01 14:51:00,
2013-06-01 09:52:00,63.9,59.3,29.48,SE,132,0.0,1.0,85,0.00,,SKC,0.00,VWS V14.01,2013-06-01 14:52:00,
2013-06-01 09:53:00,63.9,59.6,29.48,SE,132,0.0,1.0,86,0.00,,SKC,0.00,VWS V14.01,2013-06-01 14:53:00,
2013-06-01 09:54:00,64.0,59.7,29.48,SE,132,0.0,1.0,86,0.00,,SKC,0.00,VWS V14.01,2013-06-01 14:54:00,
2013-06-01 09:55:00,64.1,60.2,29.47,SE,132,0.0,1.0,87,0.00,,SKC,0.00,VWS V14.01,2013-06-01 14:55:00,
2013-06-01 09:56:00,64.1,60.2,29.47,SE,132,0.0,1.0,87,0.00,,SKC,0.00,VWS V14.01,2013-06-01 14:56:00,
2013-06-01 09:57:00,64.2,60.3,29.47,SE,132,0.0,1.0,87,0.00,,SKC,0.00,VWS V14.01,2013-06-01 14:57:00,
2013-06-01 09:58:00,64.2,60.3,29.47,SE,132,0.0,1.0,87,0.00,,SKC,0.00,VWS V14.01,2013-06-01 14:58:00,
2013-06-01 09:59:00,64.3,60.0,29.47,SE,132,0.0,1.0,86,0.00,,SKC,0.00,VWS V14.01,2013-06-01 14:59:00,
2013-06-01 10:00:00,64.4,60.1,29.47,SE,132,0.0,1.0,86,0.00,,SKC,0.00,VWS V14.01,2013-06-01 15:00:00,
2013-06-01 10:01:00,64.5,60.2,29.48,SE,132,0.0,0.0,86,0.00,,SKC,0.00,VWS V14.01,2013-06-01 15:01:00,
2013-06-01 10:02:00,64.6,60.3,29.48,SE,132,0.0,1.0,86,0.00,,SKC,0.00,VWS V14.01,2013-06-01 15:02:00,
2013-06-01 10:03:00,64.7,60.4,29.48,SE,132,0.0,1.0,86,0.00,,SKC,0.00,VWS V14.01,2013-06-01 15:03:00,
2013-06-01 10:04:00,64.8,60.5,29.48,SE,132,2.0,2.0,86,0.00,,SKC,0.00,VWS V14.01,2013-06-01 15:04:00,
2013-06-01 10:05:00,64.9,60.6,29.48,SE,132,0.0,2.0,86,0.00,,SKC,0.00,VWS V14.01,2013-06-01 15:05:00,
2013-06-01 10:06:00,65.1,60.5,29.48,SE,132,0.0,2.0,85,0.00,,SKC,0.00,VWS V14.01,2013-06-01 15:06:00,
2013-06-01 10:07:00,65.2,60.2,29.48,SE,132,0.0,2.0,84,0.00,,SKC,0.00,VWS V14.01,2013-06-01 15:07:00,
2013-06-01 10:08:00,65.3,60.0,29.48,SE,132,2.0,2.0,83,0.00,,SKC,0.00,VWS V14.01,2013-06-01 15:08:00,
2013-06-01 10:09:00,65.5,60.2,29.48,SE,132,1.0,2.0,83,0.00,,SKC,0.00,VWS V14.01,2013-06-01 15:09:00,
2013-06-01 10:10:00,65.6,60.3,29.48,SE,132,0.0,2.0,83,0.00,,SKC,0.00,VWS V14.01,2013-06-01 15:10:00,
2013-06-01 10:11:00,65.7,60.4,29.47,SE,132,0.0,2.0,83,0.00,,SKC,0.00,VWS V14.01,2013-06-01 15:11:00,
2013-06-01 10:12:00,65.7,60.4,29.47,SE,132,0.0,2.0,83,0.00,,SKC,0.00,VWS V14.01,2013-06-01 15:12:00,
2013-06-01 10:13:00,65.8,60.5,29.47,SE,132,0.0,2.0,83,0.00,,SKC,0.00,VWS V14.01,2013-06-01 15:13:00,
2013-06-01 10:14:00,65.9,60.6,29.48,SE,132,0.0,5.0,83,0.00,,SKC,0.00,VWS V14.01,2013-06-01 15:14:00,
2013-06-01 10:15:00,66.0,60.3,29.48,SE,132,0.0,5.0,82,0.00,,SKC,0.00,VWS V14.01,2013-06-01 15:15:00,
2013-06-01 10:16:00,66.0,60.0,29.48,SE,132,0.0,5.0,81,0.00,,SKC,0.00,VWS V14.01,2013-06-01 15:16:00,
2013-06-01 10:17:00,66.1,60.1,29.48,SE,132,0.0,5.0,81,0.00,,SKC,0.00,VWS V14.01,2013-06-01 15:17:00,
2013-06-01 10:18:00,66.1,60.1,29.48,SE,132,1.0,5.0,81,0.00,,SKC,0.00,VWS V14.01,2013-06-01 15:18:00,
2013-06-01 10:19:00,66.2,60.2,29.48,SE,132,0.0,5.0,81,0.00,,SKC,0.00,VWS V14.01,2013-06-01 15:19:00,
2013-06-01 10:20:00,66.2,60.2,29.48,SE,132,0.0,5.0,81,0.00,,SKC,0.00,VWS V14.01,2013-06-01 15:20:00,
2013-06-01 10:21:00,66.2,59.9,29.48,SE,132,0.0,5.0,80,0.00,,SKC,0.00,VWS V14.01,2013-06-01 15:21:00,
2013-06-01 10:22:00,66.3,60.0,29.48,SE,132,2.0,5.0,80,0.00,,SKC,0.00,VWS V14.01,2013-06-01 15:22:00,
2013-06-01 10:23:00,66.3,60.0,29.48,SE,132,0.0,5.0,80,0.00,,SKC,0.00,VWS V14.01,2013-06-01 15:23:00,
2013-06-01 10:24:00,66.3,60.0,29.48,SE,132,1.0,5.0,80,0.00,,SKC,0.00,VWS V14.01,2013-06-01 15:24:00,
2013-06-01 10:25:00,66.3,60.0,29.48,SE,132,0.0,5.0,80,0.00,,SKC,0.00,VWS V14.01,2013-06-01 15:25:00,
2013-06-01 10:26:00,66.3,60.3,29.48,SE,132,0.0,5.0,81,0.00,,SKC,0.00,VWS V14.01,2013-06-01 15:26:00,
2013-06-01 10:27:00,66.3,60.0,29.48,SE,132,0.0,5.0,80,0.00,,SKC,0.00,VWS V14.01,2013-06-01 15:27:00,
2013-06-01 10:28:00,66.3,60.0,29.48,SE,132,0.0,5.0,80,0.00,,SKC,0.00,VWS V14.01,2013-06-01 15:28:00,
2013-06-01 10:29:00,66.3,60.0,29.48,SE,132,0.0,5.0,80,0.00,,SKC,0.00,VWS V14.01,2013-06-01 15:29:00,
2013-06-01 10:30:00,66.3,60.0,29.48,SE,132,0.0,1.0,80,0.00,,SKC,0.00,VWS V14.01,2013-06-01 15:30:00,
2013-06-01 10:31:00,66.3,60.3,29.48,SE,132,0.0,1.0,81,0.00,,SKC,0.00,VWS V14.01,2013-06-01 15:31:00,
2013-06-01 10:32:00,66.4,60.4,29.48,SE,132,0.0,1.0,81,0.00,,SKC,0.00,VWS V14.01,2013-06-01 15:32:00,
2013-06-01 10:33:00,66.4,60.4,29.48,SE,132,0.0,1.0,81,0.00,,SKC,0.00,VWS V14.01,2013-06-01 15:33:00,
2013-06-01 10:34:00,66.4,60.4,29.48,SE,132,2.0,2.0,81,0.00,,SKC,0.00,VWS V14.01,2013-06-01 15:34:00,
2013-06-01 10:35:00,66.5,60.5,29.48,SE,132,0.0,2.0,81,0.00,,SKC,0.00,VWS V14.01,2013-06-01 15:35:00,
2013-06-01 10:37:00,66.6,60.2,29.48,SE,132,0.0,2.0,80,0.00,,SKC,0.00,VWS V14.01,2013-06-01 15:37:00,
2013-06-01 10:38:00,66.6,60.6,29.48,SE,132,0.0,2.0,81,0.00,,SKC,0.00,VWS V14.01,2013-06-01 15:38:00,
2013-06-01 10:40:00,66.7,61.0,29.49,SE,132,0.0,2.0,82,0.00,,SKC,0.00,VWS V14.01,2013-06-01 15:40:00,
2013-06-01 10:41:00,66.7,60.7,29.49,SE,132,0.0,2.0,81,0.00,,SKC,0.00,VWS V14.01,2013-06-01 15:41:00,
2013-06-01 10:43:00,66.7,60.3,29.49,SE,132,2.0,2.0,80,0.00,,SKC,0.00,VWS V14.01,2013-06-01 15:43:00,
2013-06-01 10:44:00,66.8,60.4,29.49,SE,132,0.0,4.0,80,0.00,,SKC,0.00,VWS V14.01,2013-06-01 15:44:00,
2013-06-01 10:45:00,66.3,60.0,29.48,SE,132,0.0,5.0,80,0.00,,SKC,0.00,VWS V14.01,2013-06-01 15:45:00,
2013-06-01 10:48:00,66.8,60.4,29.49,SE,132,0.0,4.0,80,0.00,,SKC,0.00,VWS V14.01,2013-06-01 15:48:00,
2013-06-01 10:49:00,66.8,60.4,29.49,SE,132,0.0,4.0,80,0.00,,SKC,0.00,VWS V14.01,2013-06-01 15:49:00,
2013-06-01 10:50:00,66.8,60.4,29.49,SE,132,0.0,4.0,80,0.00,,SKC,0.00,VWS V14.01,2013-06-01 15:50:00,
2013-06-01 10:51:00,66.5,60.2,29.48,SE,132,0.0,2.0,80,0.00,,SKC,0.00,VWS V14.01,2013-06-01 15:51:00,
2013-06-01 10:52:00,66.8,60.8,29.49,SE,132,0.0,4.0,81,0.00,,SKC,0.00,VWS V14.01,2013-06-01 15:52:00,
2013-06-01 10:53:00,66.8,60.8,29.49,SE,132,0.0,4.0,81,0.00,,SKC,0.00,VWS V14.01,2013-06-01 15:53:00,
2013-06-01 10:54:00,66.8,60.8,29.49,SE,132,0.0,4.0,81,0.00,,SKC,0.00,VWS V14.01,2013-06-01 15:54:00,
2013-06-01 10:57:00,66.7,60.3,29.49,SE,132,0.0,2.0,80,0.00,,SKC,0.00,VWS V14.01,2013-06-01 15:57:00,
2013-06-01 10:58:00,66.7,60.3,29.49,SE,132,0.0,4.0,80,0.00,,SKC,0.00,VWS V14.01,2013-06-01 15:58:00,
2013-06-01 10:59:00,66.6,60.2,29.49,SE,132,0.0,4.0,80,0.00,,SKC,0.00,VWS V14.01,2013-06-01 15:59:00,
2013-06-01 11:00:00,66.6,59.9,29.49,SE,132,0.0,4.0,79,0.00,,SKC,0.00,VWS V14.01,2013-06-01 16:00:00,
2013-06-01 11:01:00,66.6,59.9,29.49,SE,132,0.0,0.0,79,0.00,,SKC,0.00,VWS V14.01,2013-06-01 16:01:00,
2013-06-01 11:02:00,66.8,60.4,29.49,SE,132,0.0,4.0,80,0.00,,SKC,0.00,VWS V14.01,2013-06-01 16:02:00,
2013-06-01 11:03:00,66.5,60.5,29.49,SE,132,0.0,0.0,81,0.00,,SKC,0.00,VWS V14.01,2013-06-01 16:03:00,
2013-06-01 11:05:00,66.6,60.6,29.49,SE,132,0.0,1.0,81,0.00,,SKC,0.00,VWS V14.01,2013-06-01 16:05:00,
2013-06-01 11:06:00,66.6,60.6,29.49,SE,132,0.0,1.0,81,0.00,,SKC,0.00,VWS V14.01,2013-06-01 16:06:00,
2013-06-01 11:07:00,66.6,60.6,29.49,SE,132,0.0,1.0,81,0.00,,SKC,0.00,VWS V14.01,2013-06-01 16:07:00,
2013-06-01 11:08:00,66.6,60.6,29.49,SE,132,0.0,1.0,81,0.00,,SKC,0.00,VWS V14.01,2013-06-01 16:08:00,
2013-06-01 11:09:00,66.7,60.7,29.49,SE,132,0.0,1.0,81,0.00,,SKC,0.00,VWS V14.01,2013-06-01 16:09:00,
2013-06-01 11:10:00,66.8,60.4,29.49,SE,132,0.0,4.0,80,0.00,,SKC,0.00,VWS V14.01,2013-06-01 16:10:00,
2013-06-01 11:11:00,66.7,60.7,29.49,SE,132,0.0,1.0,81,0.00,,SKC,0.00,VWS V14.01,2013-06-01 16:11:00,
2013-06-01 11:14:00,66.9,60.5,29.49,SE,132,1.0,2.0,80,0.00,,SKC,0.00,VWS V14.01,2013-06-01 16:14:00,
2013-06-01 11:15:00,67.0,60.6,29.49,SE,132,0.0,2.0,80,0.00,,SKC,0.00,VWS V14.01,2013-06-01 16:15:00,
2013-06-01 11:16:00,66.6,59.9,29.49,SE,132,0.0,0.0,79,0.00,,SKC,0.00,VWS V14.01,2013-06-01 16:16:00,
2013-06-01 11:25:00,67.5,61.1,29.49,SE,132,1.0,2.0,80,0.00,,SKC,0.00,VWS V14.01,2013-06-01 16:25:00,
2013-06-01 11:28:00,66.8,60.8,29.49,SE,132,0.0,2.0,81,0.00,,SKC,0.00,VWS V14.01,2013-06-01 16:28:00,
2013-06-01 11:29:00,67.6,60.9,29.49,SE,132,0.0,2.0,79,0.00,,SKC,0.00,VWS V14.01,2013-06-01 16:29:00,
2013-06-01 11:30:00,67.6,60.9,29.49,SE,132,0.0,2.0,79,0.00,,SKC,0.00,VWS V14.01,2013-06-01 16:30:00,
2013-06-01 11:32:00,67.6,60.9,29.49,SE,132,0.0,0.0,79,0.00,,SKC,0.00,VWS V14.01,2013-06-01 16:32:00,
2013-06-01 11:33:00,67.1,60.7,29.49,SE,132,0.0,2.0,80,0.00,,SKC,0.00,VWS V14.01,2013-06-01 16:33:00,
2013-06-01 11:35:00,67.6,60.9,29.49,SE,132,0.0,1.0,79,0.00,,SKC,0.00,VWS V14.01,2013-06-01 16:35:00,
2013-06-01 11:36:00,67.6,60.5,29.49,SE,132,0.0,1.0,78,0.00,,SKC,0.00,VWS V14.01,2013-06-01 16:36:00,
2013-06-01 11:37:00,67.6,60.5,29.49,SE,132,0.0,1.0,78,0.00,,SKC,0.00,VWS V14.01,2013-06-01 16:37:00,
2013-06-01 11:38:00,67.3,60.6,29.49,SE,132,0.0,2.0,79,0.00,,SKC,0.00,VWS V14.01,2013-06-01 16:38:00,
2013-06-01 11:39:00,67.6,60.5,29.49,SE,132,0.0,1.0,78,0.00,,SKC,0.00,VWS V14.01,2013-06-01 16:39:00,
2013-06-01 11:42:00,67.6,60.5,29.49,SE,132,0.0,1.0,78,0.00,,SKC,0.00,VWS V14.01,2013-06-01 16:42:00,
2013-06-01 11:43:00,67.5,60.4,29.49,SE,132,0.0,2.0,78,0.00,,SKC,0.00,VWS V14.01,2013-06-01 16:43:00,
2013-06-01 11:45:00,67.5,60.0,29.49,SE,132,0.0,1.0,77,0.00,,SKC,0.00,VWS V14.01,2013-06-01 16:45:00,
2013-06-01 11:47:00,67.5,60.4,29.49,SE,132,0.0,1.0,78,0.00,,SKC,0.00,VWS V14.01,2013-06-01 16:47:00,
2013-06-01 11:50:00,67.6,60.9,29.49,SE,132,1.0,1.0,79,0.00,,SKC,0.00,VWS V14.01,2013-06-01 16:50:00,
2013-06-01 11:51:00,67.5,60.4,29.49,SE,132,0.0,1.0,78,0.00,,SKC,0.00,VWS V14.01,2013-06-01 16:51:00,
2013-06-01 11:53:00,67.5,60.0,29.50,SE,132,0.0,4.0,77,0.00,,SKC,0.00,VWS V14.01,2013-06-01 16:53:00,
2013-06-01 11:55:00,67.5,60.0,29.50,SE,132,0.0,4.0,77,0.00,,SKC,0.00,VWS V14.01,2013-06-01 16:55:00,
2013-06-01 11:56:00,67.6,60.9,29.49,SE,132,0.0,1.0,79,0.00,,SKC,0.00,VWS V14.01,2013-06-01 16:56:00,
2013-06-01 11:57:00,67.4,60.3,29.50,SE,132,0.0,4.0,78,0.00,,SKC,0.00,VWS V14.01,2013-06-01 16:57:00,
2013-06-01 11:58:00,67.4,60.3,29.50,SE,132,0.0,4.0,78,0.00,,SKC,0.00,VWS V14.01,2013-06-01 16:58:00,
2013-06-01 11:59:00,67.4,60.3,29.50,SE,132,0.0,4.0,78,0.00,,SKC,0.00,VWS V14.01,2013-06-01 16:59:00,
2013-06-01 12:00:00,67.3,60.2,29.50,SE,132,0.0,4.0,78,0.00,,SKC,0.00,VWS V14.01,2013-06-01 17:00:00,
2013-06-01 12:01:00,67.3,60.2,29.50,SE,132,0.0,0.0,78,0.00,,SKC,0.00,VWS V14.01,2013-06-01 17:01:00,
2013-06-01 12:02:00,67.5,60.0,29.49,SE,132,0.0,1.0,77,0.00,,SKC,0.00,VWS V14.01,2013-06-01 17:02:00,
2013-06-01 12:03:00,67.2,60.5,29.50,SE,132,0.0,0.0,79,0.00,,SKC,0.00,VWS V14.01,2013-06-01 17:03:00,
2013-06-01 12:04:00,67.1,60.7,29.50,SE,132,0.0,0.0,80,0.00,,SKC,0.00,VWS V14.01,2013-06-01 17:04:00,
2013-06-01 12:05:00,67.1,60.7,29.50,SE,132,0.0,1.0,80,0.00,,SKC,0.00,VWS V14.01,2013-06-01 17:05:00,
2013-06-01 12:06:00,67.0,60.6,29.50,ESE,105,6.0,6.0,80,0.00,,SKC,0.00,VWS V14.01,2013-06-01 17:06:00,
2013-06-01 12:07:00,67.0,60.6,29.50,East,96,0.0,6.0,80,0.00,,SKC,0.00,VWS V14.01,2013-06-01 17:07:00,
2013-06-01 12:08:00,67.5,60.4,29.49,SE,132,2.0,4.0,78,0.00,,SKC,0.00,VWS V14.01,2013-06-01 17:08:00,
2013-06-01 12:09:00,66.7,60.7,29.50,East,96,0.0,6.0,81,0.01,,SKC,0.01,VWS V14.01,2013-06-01 17:09:00,
2013-06-01 12:10:00,66.6,60.9,29.50,East,96,0.0,6.0,82,0.01,,SKC,0.01,VWS V14.01,2013-06-01 17:10:00,
2013-06-01 12:11:00,66.4,60.7,29.50,East,96,0.0,6.0,82,0.01,,SKC,0.01,VWS V14.01,2013-06-01 17:11:00,
2013-06-01 12:12:00,66.2,60.5,29.50,East,96,0.0,6.0,82,0.01,,SKC,0.01,VWS V14.01,2013-06-01 17:12:00,
2013-06-01 12:13:00,66.1,60.8,29.50,East,96,0.0,6.0,83,0.01,,SKC,0.01,VWS V14.01,2013-06-01 17:13:00,
2013-06-01 12:14:00,65.9,60.9,29.50,East,96,0.0,6.0,84,0.01,,SKC,0.01,VWS V14.01,2013-06-01 17:14:00,
2013-06-01 12:15:00,65.8,60.8,29.50,East,96,0.0,6.0,84,0.01,,SKC,0.01,VWS V14.01,2013-06-01 17:15:00,
2013-06-01 12:16:00,65.7,61.1,29.50,East,96,0.0,6.0,85,0.01,,SKC,0.01,VWS V14.01,2013-06-01 17:16:00,
2013-06-01 12:17:00,65.5,60.9,29.50,East,96,0.0,6.0,85,0.01,,SKC,0.01,VWS V14.01,2013-06-01 17:17:00,
2013-06-01 12:18:00,65.4,60.8,29.50,East,96,0.0,6.0,85,0.01,,SKC,0.01,VWS V14.01,2013-06-01 17:18:00,
2013-06-01 12:19:00,65.2,60.9,29.50,East,96,0.0,6.0,86,0.01,,SKC,0.01,VWS V14.01,2013-06-01 17:19:00,
2013-06-01 12:20:00,65.1,61.1,29.50,East,96,0.0,6.0,87,0.01,,SKC,0.01,VWS V14.01,2013-06-01 17:20:00,
2013-06-01 12:21:00,64.9,60.6,29.50,East,96,0.0,6.0,86,0.01,,SKC,0.01,VWS V14.01,2013-06-01 17:21:00,
2013-06-01 12:22:00,64.8,60.8,29.50,East,96,0.0,6.0,87,0.01,,SKC,0.01,VWS V14.01,2013-06-01 17:22:00,
2013-06-01 12:23:00,64.7,60.8,29.50,East,96,0.0,6.0,87,0.01,,SKC,0.01,VWS V14.01,2013-06-01 17:23:00,
2013-06-01 12:24:00,64.7,60.8,29.50,East,96,0.0,6.0,87,0.01,,SKC,0.01,VWS V14.01,2013-06-01 17:24:00,
2013-06-01 12:25:00,64.6,60.7,29.50,East,96,0.0,6.0,87,0.01,,SKC,0.01,VWS V14.01,2013-06-01 17:25:00,
2013-06-01 12:26:00,64.5,60.5,29.50,East,96,0.0,6.0,87,0.01,,SKC,0.01,VWS V14.01,2013-06-01 17:26:00,
2013-06-01 12:27:00,64.4,60.5,29.50,East,96,0.0,6.0,87,0.01,,SKC,0.01,VWS V14.01,2013-06-01 17:27:00,
2013-06-01 12:28:00,64.4,60.5,29.50,East,96,0.0,6.0,87,0.01,,SKC,0.01,VWS V14.01,2013-06-01 17:28:00,
2013-06-01 12:29:00,64.4,60.5,29.50,East,96,0.0,6.0,87,0.01,,SKC,0.01,VWS V14.01,2013-06-01 17:29:00,
2013-06-01 12:30:00,64.4,60.5,29.50,East,96,0.0,6.0,87,0.01,,SKC,0.01,VWS V14.01,2013-06-01 17:30:00,
2013-06-01 12:31:00,64.3,60.3,29.50,East,96,0.0,0.0,87,0.01,,SKC,0.01,VWS V14.01,2013-06-01 17:31:00,
2013-06-01 12:32:00,64.3,60.3,29.51,East,96,0.0,0.0,87,0.01,,SKC,0.01,VWS V14.01,2013-06-01 17:32:00,
2013-06-01 12:33:00,64.3,60.3,29.50,East,96,0.0,0.0,87,0.01,,SKC,0.01,VWS V14.01,2013-06-01 17:33:00,
2013-06-01 12:34:00,64.3,60.7,29.50,East,96,0.0,0.0,88,0.01,,SKC,0.01,VWS V14.01,2013-06-01 17:34:00,
2013-06-01 12:35:00,64.3,60.7,29.50,East,96,0.0,0.0,88,0.01,,SKC,0.01,VWS V14.01,2013-06-01 17:35:00,
2013-06-01 12:36:00,64.4,60.8,29.50,East,96,0.0,0.0,88,0.01,,SKC,0.01,VWS V14.01,2013-06-01 17:36:00,
2013-06-01 12:37:00,64.4,60.8,29.50,East,96,0.0,0.0,88,0.01,,SKC,0.01,VWS V14.01,2013-06-01 17:37:00,
2013-06-01 12:38:00,64.5,60.9,29.50,East,96,0.0,0.0,88,0.01,,SKC,0.01,VWS V14.01,2013-06-01 17:38:00,
2013-06-01 12:39:00,64.5,60.9,29.50,East,96,0.0,0.0,88,0.01,,SKC,0.01,VWS V14.01,2013-06-01 17:39:00,
2013-06-01 12:40:00,64.5,60.9,29.50,East,96,0.0,0.0,88,0.01,,SKC,0.01,VWS V14.01,2013-06-01 17:40:00,
2013-06-01 12:41:00,64.6,61.0,29.50,East,96,0.0,0.0,88,0.01,,SKC,0.01,VWS V14.01,2013-06-01 17:41:00,
2013-06-01 12:42:00,64.7,61.1,29.50,East,96,0.0,0.0,88,0.01,,SKC,0.01,VWS V14.01,2013-06-01 17:42:00,
2013-06-01 12:43:00,64.7,61.1,29.50,East,96,0.0,1.0,88,0.01,,SKC,0.01,VWS V14.01,2013-06-01 17:43:00,
2013-06-01 12:44:00,64.8,60.8,29.50,East,96,0.0,1.0,87,0.01,,SKC,0.01,VWS V14.01,2013-06-01 17:44:00,
2013-06-01 12:45:00,64.9,60.9,29.50,East,96,0.0,1.0,87,0.01,,SKC,0.01,VWS V14.01,2013-06-01 17:45:00,
2013-06-01 12:46:00,64.9,60.9,29.50,East,96,1.0,2.0,87,0.01,,SKC,0.01,VWS V14.01,2013-06-01 17:46:00,
2013-06-01 12:47:00,65.0,61.0,29.50,East,96,1.0,2.0,87,0.01,,SKC,0.01,VWS V14.01,2013-06-01 17:47:00,
2013-06-01 12:48:00,65.0,61.0,29.50,East,96,0.0,2.0,87,0.01,,SKC,0.01,VWS V14.01,2013-06-01 17:48:00,
2013-06-01 12:49:00,65.1,61.1,29.50,East,96,0.0,2.0,87,0.01,,SKC,0.01,VWS V14.01,2013-06-01 17:49:00,
2013-06-01 12:50:00,65.1,61.1,29.50,East,96,0.0,2.0,87,0.01,,SKC,0.01,VWS V14.01,2013-06-01 17:50:00,
2013-06-01 12:51:00,65.2,61.2,29.50,East,96,0.0,2.0,87,0.01,,SKC,0.01,VWS V14.01,2013-06-01 17:51:00,
2013-06-01 12:52:00,65.2,61.2,29.51,East,96,0.0,2.0,87,0.01,,SKC,0.01,VWS V14.01,2013-06-01 17:52:00,
2013-06-01 12:53:00,65.2,61.2,29.51,East,96,2.0,2.0,87,0.01,,SKC,0.01,VWS V14.01,2013-06-01 17:53:00,
2013-06-01 12:54:00,65.2,60.9,29.51,East,93,2.0,7.0,86,0.01,,SKC,0.01,VWS V14.01,2013-06-01 17:54:00,
2013-06-01 12:55:00,65.2,60.9,29.51,East,93,1.0,7.0,86,0.01,,SKC,0.01,VWS V14.01,2013-06-01 17:55:00,
2013-06-01 12:56:00,65.1,60.5,29.51,East,93,0.0,7.0,85,0.01,,SKC,0.01,VWS V14.01,2013-06-01 17:56:00,
2013-06-01 12:57:00,65.0,60.0,29.51,East,93,0.0,7.0,84,0.01,,SKC,0.01,VWS V14.01,2013-06-01 17:57:00,
2013-06-01 12:58:00,64.9,60.0,29.51,East,93,0.0,7.0,84,0.01,,SKC,0.01,VWS V14.01,2013-06-01 17:58:00,
2013-06-01 12:59:00,64.8,59.9,29.51,East,93,1.0,7.0,84,0.01,,SKC,0.01,VWS V14.01,2013-06-01 17:59:00,
2013-06-01 13:00:00,64.8,59.9,29.51,East,93,0.0,7.0,84,0.01,,SKC,0.01,VWS V14.01,2013-06-01 18:00:00,
2013-06-01 13:01:00,64.6,60.0,29.52,East,90,6.0,6.0,85,0.01,,SKC,0.01,VWS V14.01,2013-06-01 18:01:00,
2013-06-01 13:02:00,64.5,59.6,29.51,NNW,341,6.0,6.0,84,0.01,,SKC,0.01,VWS V14.01,2013-06-01 18:02:00,
2013-06-01 13:03:00,64.3,59.4,29.52,NNW,341,3.0,6.0,84,0.01,,SKC,0.01,VWS V14.01,2013-06-01 18:03:00,
2013-06-01 13:04:00,64.2,59.6,29.51,NW,304,6.0,8.0,85,0.01,,SKC,0.01,VWS V14.01,2013-06-01 18:04:00,
2013-06-01 13:05:00,63.9,59.3,29.52,NW,322,8.0,9.0,85,0.01,,SKC,0.01,VWS V14.01,2013-06-01 18:05:00,
2013-06-01 13:06:00,63.6,59.0,29.52,NW,317,8.0,10.0,85,0.01,,SKC,0.01,VWS V14.01,2013-06-01 18:06:00,
2013-06-01 13:07:00,63.4,59.2,29.52,NNE,16,8.0,10.0,86,0.02,,SKC,0.02,VWS V14.01,2013-06-01 18:07:00,
2013-06-01 13:08:00,63.1,58.8,29.52,NNW,335,6.0,11.0,86,0.02,,SKC,0.02,VWS V14.01,2013-06-01 18:08:00,
2013-06-01 13:09:00,62.9,58.7,29.52,NNW,340,6.0,11.0,86,0.02,,SKC,0.02,VWS V14.01,2013-06-01 18:09:00,
2013-06-01 13:10:00,62.7,58.8,29.52,WNW,293,4.0,11.0,87,0.03,,SKC,0.03,VWS V14.01,2013-06-01 18:10:00,
2013-06-01 13:11:00,62.4,58.5,29.52,NNW,331,5.0,11.0,87,0.03,,SKC,0.03,VWS V14.01,2013-06-01 18:11:00,
2013-06-01 13:12:00,62.2,58.6,29.53,NNW,331,3.0,11.0,88,0.03,,SKC,0.03,VWS V14.01,2013-06-01 18:12:00,
2013-06-01 13:13:00,62.1,58.5,29.53,NNW,331,3.0,11.0,88,0.04,,SKC,0.04,VWS V14.01,2013-06-01 18:13:00,
2013-06-01 13:14:00,62.0,58.4,29.53,NNW,332,5.0,11.0,88,0.04,,SKC,0.04,VWS V14.01,2013-06-01 18:14:00,
2013-06-01 13:15:00,61.7,58.4,29.53,NNW,331,6.0,11.0,89,0.04,,SKC,0.04,VWS V14.01,2013-06-01 18:15:00,
2013-06-01 13:16:00,61.6,58.3,29.53,NNW,336,6.0,11.0,89,0.05,,SKC,0.05,VWS V14.01,2013-06-01 18:16:00,
2013-06-01 13:17:00,61.4,58.5,29.53,NNW,331,6.0,11.0,90,0.05,,SKC,0.05,VWS V14.01,2013-06-01 18:17:00,
2013-06-01 13:18:00,61.3,58.3,29.53,NW,325,6.0,11.0,90,0.05,,SKC,0.05,VWS V14.01,2013-06-01 18:18:00,
2013-06-01 13:19:00,61.1,58.2,29.53,NW,325,1.0,11.0,90,0.05,,SKC,0.05,VWS V14.01,2013-06-01 18:19:00,
2013-06-01 13:20:00,60.9,58.0,29.53,NW,325,1.0,11.0,90,0.05,,SKC,0.05,VWS V14.01,2013-06-01 18:20:00,
2013-06-01 13:21:00,60.8,57.8,29.53,NW,325,3.0,11.0,90,0.05,,SKC,0.05,VWS V14.01,2013-06-01 18:21:00,
2013-06-01 13:22:00,60.7,58.1,29.53,NW,323,4.0,11.0,91,0.06,,SKC,0.06,VWS V14.01,2013-06-01 18:22:00,
2013-06-01 13:23:00,60.7,58.1,29.53,NNW,336,2.0,11.0,91,0.06,,SKC,0.06,VWS V14.01,2013-06-01 18:23:00,
2013-06-01 13:24:00,60.6,58.0,29.54,NNW,335,6.0,11.0,91,0.06,,SKC,0.06,VWS V14.01,2013-06-01 18:24:00,
2013-06-01 13:25:00,60.5,57.9,29.53,NNW,328,3.0,11.0,91,0.06,,SKC,0.06,VWS V14.01,2013-06-01 18:25:00,
2013-06-01 13:26:00,60.5,57.9,29.54,NW,323,5.0,11.0,91,0.06,,SKC,0.06,VWS V14.01,2013-06-01 18:26:00,
2013-06-01 13:27:00,60.3,57.7,29.54,North,360,6.0,11.0,91,0.06,,SKC,0.06,VWS V14.01,2013-06-01 18:27:00,
2013-06-01 13:28:00,60.2,57.6,29.54,NW,326,6.0,11.0,91,0.06,,SKC,0.06,VWS V14.01,2013-06-01 18:28:00,
2013-06-01 13:29:00,60.1,57.5,29.54,NW,326,4.0,11.0,91,0.06,,SKC,0.06,VWS V14.01,2013-06-01 18:29:00,
2013-06-01 13:30:00,60.1,57.5,29.54,WNW,300,5.0,11.0,91,0.06,,SKC,0.06,VWS V14.01,2013-06-01 18:30:00,
2013-06-01 13:31:00,60.0,57.4,29.54,NE,35,7.0,8.0,91,0.05,,SKC,0.06,VWS V14.01,2013-06-01 18:31:00,
2013-06-01 13:32:00,60.0,57.7,29.54,NNW,344,6.0,8.0,92,0.05,,SKC,0.06,VWS V14.01,2013-06-01 18:32:00,
2013-06-01 13:33:00,59.9,57.6,29.54,NNW,339,7.0,8.0,92,0.05,,SKC,0.06,VWS V14.01,2013-06-01 18:33:00,
2013-06-01 13:34:00,59.9,57.6,29.54,NNW,346,2.0,8.0,92,0.05,,SKC,0.06,VWS V14.01,2013-06-01 18:34:00,
2013-06-01 13:35:00,59.8,57.5,29.55,NW,309,1.0,8.0,92,0.05,,SKC,0.06,VWS V14.01,2013-06-01 18:35:00,
2013-06-01 13:36:00,59.8,57.5,29.55,NNW,331,1.0,8.0,92,0.05,,SKC,0.06,VWS V14.01,2013-06-01 18:36:00,
2013-06-01 13:37:00,59.9,57.6,29.55,NNW,331,2.0,8.0,92,0.05,,SKC,0.06,VWS V14.01,2013-06-01 18:37:00,
2013-06-01 13:38:00,59.9,57.6,29.55,NNW,331,2.0,8.0,92,0.05,,SKC,0.06,VWS V14.01,2013-06-01 18:38:00,
2013-06-01 13:39:00,59.9,57.6,29.55,North,9,2.0,8.0,92,0.05,,SKC,0.06,VWS V14.01,2013-06-01 18:39:00,
2013-06-01 13:40:00,59.9,57.6,29.55,North,351,5.0,8.0,92,0.05,,SKC,0.06,VWS V14.01,2013-06-01 18:40:00,
2013-06-01 13:41:00,60.0,57.7,29.55,NNW,342,1.0,8.0,92,0.05,,SKC,0.06,VWS V14.01,2013-06-01 18:41:00,
2013-06-01 13:42:00,60.0,58.0,29.55,NNW,343,1.0,8.0,93,0.05,,SKC,0.06,VWS V14.01,2013-06-01 18:42:00,
2013-06-01 13:44:00,60.0,58.0,29.55,NNW,331,4.0,8.0,93,0.05,,SKC,0.06,VWS V14.01,2013-06-01 18:44:00,
2013-06-01 13:46:00,59.9,57.9,29.55,NNW,333,6.0,8.0,93,0.05,,SKC,0.06,VWS V14.01,2013-06-01 18:46:00,
2013-06-01 13:47:00,59.9,57.9,29.55,North,9,1.0,8.0,93,0.05,,SKC,0.06,VWS V14.01,2013-06-01 18:47:00,
2013-06-01 13:48:00,59.9,57.9,29.55,NNW,346,4.0,8.0,93,0.05,,SKC,0.06,VWS V14.01,2013-06-01 18:48:00,
2013-06-01 13:49:00,59.9,57.9,29.55,NNW,346,0.0,8.0,93,0.05,,SKC,0.06,VWS V14.01,2013-06-01 18:49:00,
2013-06-01 13:50:00,60.0,58.0,29.55,NW,317,6.0,8.0,93,0.05,,SKC,0.06,VWS V14.01,2013-06-01 18:50:00,
2013-06-01 13:51:00,59.9,57.9,29.55,NW,320,6.0,8.0,93,0.05,,SKC,0.06,VWS V14.01,2013-06-01 18:51:00,
2013-06-01 13:52:00,59.9,57.9,29.55,NW,311,7.0,8.0,93,0.05,,SKC,0.06,VWS V14.01,2013-06-01 18:52:00,
2013-06-01 13:53:00,59.8,57.8,29.55,NNW,333,4.0,8.0,93,0.05,,SKC,0.06,VWS V14.01,2013-06-01 18:53:00,
2013-06-01 13:54:00,59.7,57.4,29.55,NW,321,3.0,9.0,92,0.05,,SKC,0.06,VWS V14.01,2013-06-01 18:54:00,
2013-06-01 13:55:00,59.7,57.4,29.55,NNW,332,3.0,9.0,92,0.05,,SKC,0.06,VWS V14.01,2013-06-01 18:55:00,
2013-06-01 13:56:00,59.6,57.3,29.55,WNW,296,7.0,9.0,92,0.05,,SKC,0.06,VWS V14.01,2013-06-01 18:56:00,
2013-06-01 13:57:00,59.6,57.3,29.55,NW,316,5.0,9.0,92,0.05,,SKC,0.06,VWS V14.01,2013-06-01 18:57:00,
2013-06-01 13:59:00,60.0,58.0,29.55,NNW,331,4.0,8.0,93,0.05,,SKC,0.06,VWS V14.01,2013-06-01 18:59:00,
2013-06-01 14:00:00,59.5,57.2,29.55,NW,320,2.0,9.0,92,0.05,,SKC,0.06,VWS V14.01,2013-06-01 19:00:00,
2013-06-01 14:01:00,59.5,57.2,29.55,NW,320,6.0,7.0,92,0.05,,SKC,0.06,VWS V14.01,2013-06-01 19:01:00,
2013-06-01 14:06:00,59.0,56.4,29.56,NW,326,4.0,8.0,91,0.05,,SKC,0.06,VWS V14.01,2013-06-01 19:06:00,
2013-06-01 14:07:00,59.0,56.4,29.56,NNW,329,5.0,8.0,91,0.05,,SKC,0.06,VWS V14.01,2013-06-01 19:07:00,
2013-06-01 14:08:00,59.0,56.1,29.56,NNW,329,2.0,8.0,90,0.05,,SKC,0.06,VWS V14.01,2013-06-01 19:08:00,
2013-06-01 14:09:00,59.0,56.1,29.56,NW,323,5.0,9.0,90,0.05,,SKC,0.06,VWS V14.01,2013-06-01 19:09:00,
2013-06-01 14:10:00,59.0,56.1,29.56,NW,323,6.0,9.0,90,0.05,,SKC,0.06,VWS V14.01,2013-06-01 19:10:00,
2013-06-01 14:11:00,59.0,56.1,29.56,NW,323,4.0,9.0,90,0.05,,SKC,0.06,VWS V14.01,2013-06-01 19:11:00,
2013-06-01 14:12:00,59.0,56.1,29.56,NW,318,5.0,9.0,90,0.05,,SKC,0.06,VWS V14.01,2013-06-01 19:12:00,
2013-06-01 14:13:00,59.0,56.1,29.56,NNW,339,7.0,9.0,90,0.05,,SKC,0.06,VWS V14.01,2013-06-01 19:13:00,
2013-06-01 14:14:00,59.5,57.2,29.55,NW,320,5.0,9.0,92,0.05,,SKC,0.06,VWS V14.01,2013-06-01 19:14:00,
2013-06-01 14:15:00,59.0,56.1,29.56,NW,324,4.0,9.0,90,0.05,,SKC,0.06,VWS V14.01,2013-06-01 19:15:00,
2013-06-01 14:16:00,59.0,56.1,29.56,NW,323,4.0,9.0,90,0.05,,SKC,0.06,VWS V14.01,2013-06-01 19:16:00,
2013-06-01 14:17:00,58.9,56.0,29.56,NW,323,7.0,9.0,90,0.05,,SKC,0.06,VWS V14.01,2013-06-01 19:17:00,
2013-06-01 14:18:00,58.8,55.9,29.56,NW,323,5.0,9.0,90,0.05,,SKC,0.06,VWS V14.01,2013-06-01 19:18:00,
2013-06-01 14:19:00,59.2,56.9,29.55,NW,322,8.0,8.0,92,0.05,,SKC,0.06,VWS V14.01,2013-06-01 19:19:00,
2013-06-01 14:20:00,58.7,55.8,29.56,NW,323,9.0,9.0,90,0.05,,SKC,0.06,VWS V14.01,2013-06-01 19:20:00,
2013-06-01 14:21:00,58.6,55.7,29.56,NNW,330,7.0,9.0,90,0.05,,SKC,0.06,VWS V14.01,2013-06-01 19:21:00,
2013-06-01 14:22:00,58.6,55.7,29.56,North,355,6.0,9.0,90,0.05,,SKC,0.06,VWS V14.01,2013-06-01 19:22:00,
2013-06-01 14:23:00,58.6,55.7,29.56,NNW,332,5.0,9.0,90,0.05,,SKC,0.06,VWS V14.01,2013-06-01 19:23:00,
2013-06-01 14:24:00,58.5,55.6,29.56,NNW,329,1.0,9.0,90,0.05,,SKC,0.06,VWS V14.01,2013-06-01 19:24:00,
2013-06-01 14:25:00,58.6,55.7,29.56,NNW,329,4.0,9.0,90,0.05,,SKC,0.06,VWS V14.01,2013-06-01 19:25:00,
2013-06-01 14:26:00,58.6,55.7,29.56,NNW,329,6.0,9.0,90,0.05,,SKC,0.06,VWS V14.01,2013-06-01 19:26:00,
2013-06-01 14:27:00,58.6,55.7,29.56,NNW,329,4.0,9.0,90,0.05,,SKC,0.06,VWS V14.01,2013-06-01 19:27:00,
2013-06-01 14:28:00,58.6,55.7,29.56,NW,316,5.0,9.0,90,0.05,,SKC,0.06,VWS V14.01,2013-06-01 19:28:00,
2013-06-01 14:29:00,58.6,55.7,29.56,NW,317,4.0,9.0,90,0.05,,SKC,0.06,VWS V14.01,2013-06-01 19:29:00,
2013-06-01 14:30:00,58.6,56.0,29.56,NW,317,6.0,9.0,91,0.05,,SKC,0.06,VWS V14.01,2013-06-01 19:30:00,
2013-06-01 14:31:00,58.6,56.0,29.56,NW,317,6.0,8.0,91,0.00,,SKC,0.06,VWS V14.01,2013-06-01 19:31:00,
2013-06-01 14:32:00,58.6,56.0,29.56,NW,317,4.0,8.0,91,0.00,,SKC,0.06,VWS V14.01,2013-06-01 19:32:00,
2013-06-01 14:33:00,58.6,56.0,29.56,NW,317,7.0,8.0,91,0.00,,SKC,0.06,VWS V14.01,2013-06-01 19:33:00,
2013-06-01 14:34:00,58.7,56.1,29.56,NW,317,5.0,8.0,91,0.00,,SKC,0.06,VWS V14.01,2013-06-01 19:34:00,
2013-06-01 14:35:00,58.7,56.1,29.56,NW,319,7.0,8.0,91,0.00,,SKC,0.06,VWS V14.01,2013-06-01 19:35:00,
2013-06-01 14:36:00,58.6,56.0,29.56,NW,319,5.0,8.0,91,0.00,,SKC,0.06,VWS V14.01,2013-06-01 19:36:00,
2013-06-01 14:37:00,58.6,56.0,29.56,NW,319,1.0,8.0,91,0.00,,SKC,0.06,VWS V14.01,2013-06-01 19:37:00,
2013-06-01 14:38:00,58.6,56.0,29.56,NW,319,5.0,8.0,91,0.00,,SKC,0.06,VWS V14.01,2013-06-01 19:38:00,
2013-06-01 14:39:00,58.5,55.9,29.57,NW,320,7.0,10.0,91,0.00,,SKC,0.06,VWS V14.01,2013-06-01 19:39:00,
2013-06-01 14:40:00,58.5,55.6,29.57,NW,315,6.0,10.0,90,0.00,,SKC,0.06,VWS V14.01,2013-06-01 19:40:00,
2013-06-01 14:41:00,58.4,55.5,29.57,NW,317,6.0,10.0,90,0.00,,SKC,0.06,VWS V14.01,2013-06-01 19:41:00,
2013-06-01 14:42:00,58.3,55.4,29.57,WNW,297,6.0,10.0,90,0.00,,SKC,0.06,VWS V14.01,2013-06-01 19:42:00,
2013-06-01 14:43:00,58.3,55.4,29.57,NW,308,6.0,10.0,90,0.00,,SKC,0.06,VWS V14.01,2013-06-01 19:43:00,
2013-06-01 14:44:00,58.2,55.3,29.57,NW,317,5.0,10.0,90,0.00,,SKC,0.06,VWS V14.01,2013-06-01 19:44:00,
2013-06-01 14:45:00,58.2,55.3,29.57,NW,318,5.0,10.0,90,0.00,,SKC,0.06,VWS V14.01,2013-06-01 19:45:00,
2013-06-01 14:46:00,58.2,55.3,29.57,NW,316,6.0,13.0,90,0.00,,SKC,0.06,VWS V14.01,2013-06-01 19:46:00,
2013-06-01 14:47:00,58.2,55.3,29.57,NW,321,5.0,13.0,90,0.00,,SKC,0.06,VWS V14.01,2013-06-01 19:47:00,
2013-06-01 14:48:00,58.2,55.3,29.57,NW,321,2.0,13.0,90,0.00,,SKC,0.06,VWS V14.01,2013-06-01 19:48:00,
2013-06-01 14:49:00,58.2,55.3,29.57,NW,325,5.0,13.0,90,0.00,,SKC,0.06,VWS V14.01,2013-06-01 19:49:00,
2013-06-01 14:50:00,58.2,55.3,29.57,NW,321,6.0,13.0,90,0.00,,SKC,0.06,VWS V14.01,2013-06-01 19:50:00,
2013-06-01 14:51:00,58.2,55.3,29.57,NW,319,6.0,13.0,90,0.00,,SKC,0.06,VWS V14.01,2013-06-01 19:51:00,
2013-06-01 14:52:00,58.2,55.3,29.58,NW,319,4.0,13.0,90,0.00,,SKC,0.06,VWS V14.01,2013-06-01 19:52:00,
2013-06-01 14:53:00,58.2,55.0,29.58,NW,317,7.0,13.0,89,0.00,,SKC,0.06,VWS V14.01,2013-06-01 19:53:00,
2013-06-01 14:54:00,58.2,55.0,29.58,NW,322,7.0,13.0,89,0.00,,SKC,0.06,VWS V14.01,2013-06-01 19:54:00,
2013-06-01 14:55:00,58.1,54.9,29.58,NW,324,7.0,13.0,89,0.00,,SKC,0.06,VWS V14.01,2013-06-01 19:55:00,
2013-06-01 14:56:00,58.0,54.5,29.58,NW,325,5.0,13.0,88,0.00,,SKC,0.06,VWS V14.01,2013-06-01 19:56:00,
2013-06-01 14:57:00,58.0,54.5,29.58,NW,321,8.0,13.0,88,0.00,,SKC,0.06,VWS V14.01,2013-06-01 19:57:00,
2013-06-01 14:58:00,58.0,54.5,29.58,NW,320,7.0,13.0,88,0.00,,SKC,0.06,VWS V14.01,2013-06-01 19:58:00,
2013-06-01 14:59:00,57.9,54.4,29.58,NW,323,6.0,13.0,88,0.00,,SKC,0.06,VWS V14.01,2013-06-01 19:59:00,
2013-06-01 15:00:00,57.8,54.3,29.58,NW,321,6.0,13.0,88,0.00,,SKC,0.06,VWS V14.01,2013-06-01 20:00:00,
2013-06-01 15:01:00,57.8,54.3,29.58,NW,324,6.0,8.0,88,0.00,,SKC,0.06,VWS V14.01,2013-06-01 20:01:00,
2013-06-01 15:02:00,57.8,54.3,29.58,NW,317,6.0,8.0,88,0.00,,SKC,0.06,VWS V14.01,2013-06-01 20:02:00,
2013-06-01 15:03:00,57.8,54.3,29.58,NW,318,5.0,8.0,88,0.00,,SKC,0.06,VWS V14.01,2013-06-01 20:03:00,
2013-06-01 15:04:00,57.8,54.3,29.58,NW,318,2.0,8.0,88,0.00,,SKC,0.06,VWS V14.01,2013-06-01 20:04:00,
2013-06-01 15:05:00,57.9,54.4,29.58,NW,323,6.0,8.0,88,0.00,,SKC,0.06,VWS V14.01,2013-06-01 20:05:00,
2013-06-01 15:06:00,58.0,54.5,29.58,NW,323,2.0,8.0,88,0.00,,SKC,0.06,VWS V14.01,2013-06-01 20:06:00,
2013-06-01 15:07:00,58.1,54.9,29.58,NNW,327,4.0,8.0,89,0.00,,SKC,0.06,VWS V14.01,2013-06-01 20:07:00,
2013-06-01 15:08:00,58.1,54.9,29.58,NNW,340,4.0,8.0,89,0.00,,SKC,0.06,VWS V14.01,2013-06-01 20:08:00,
2013-06-01 15:09:00,58.2,55.0,29.58,NNW,328,3.0,8.0,89,0.00,,SKC,0.06,VWS V14.01,2013-06-01 20:09:00,
2013-06-01 15:10:00,58.3,55.1,29.58,NNW,330,4.0,8.0,89,0.00,,SKC,0.06,VWS V14.01,2013-06-01 20:10:00,
2013-06-01 15:11:00,58.4,54.9,29.58,NNW,329,4.0,8.0,88,0.00,,SKC,0.06,VWS V14.01,2013-06-01 20:11:00,
2013-06-01 15:12:00,58.5,55.0,29.58,NW,319,7.0,11.0,88,0.00,,SKC,0.06,VWS V14.01,2013-06-01 20:12:00,
2013-06-01 15:13:00,58.6,55.1,29.58,NNW,329,5.0,11.0,88,0.00,,SKC,0.06,VWS V14.01,2013-06-01 20:13:00,
2013-06-01 15:14:00,58.6,55.1,29.58,NNW,329,4.0,11.0,88,0.00,,SKC,0.06,VWS V14.01,2013-06-01 20:14:00,
2013-06-01 15:15:00,58.6,54.8,29.58,North,350,5.0,11.0,87,0.00,,SKC,0.06,VWS V14.01,2013-06-01 20:15:00,
2013-06-01 15:16:00,58.7,54.8,29.58,North,350,2.0,11.0,87,0.00,,SKC,0.06,VWS V14.01,2013-06-01 20:16:00,
2013-06-01 15:17:00,58.7,54.8,29.58,NW,321,9.0,11.0,87,0.00,,SKC,0.06,VWS V14.01,2013-06-01 20:17:00,
2013-06-01 15:18:00,58.8,55.0,29.58,WNW,296,5.0,11.0,87,0.00,,SKC,0.06,VWS V14.01,2013-06-01 20:18:00,
2013-06-01 15:20:00,58.9,55.0,29.58,NW,317,6.0,11.0,87,0.00,,SKC,0.06,VWS V14.01,2013-06-01 20:20:00,
2013-06-01 15:21:00,59.0,54.8,29.58,NW,317,5.0,11.0,86,0.00,,SKC,0.06,VWS V14.01,2013-06-01 20:21:00,
2013-06-01 15:22:00,59.0,54.8,29.58,NW,317,0.0,11.0,86,0.00,,SKC,0.06,VWS V14.01,2013-06-01 20:22:00,
2013-06-01 15:23:00,59.0,55.1,29.58,NNW,344,9.0,11.0,87,0.00,,SKC,0.06,VWS V14.01,2013-06-01 20:23:00,
2013-06-01 15:24:00,59.0,55.1,29.59,NNW,329,7.0,11.0,87,0.00,,SKC,0.06,VWS V14.01,2013-06-01 20:24:00,
2013-06-01 15:25:00,59.0,55.1,29.59,NW,324,7.0,11.0,87,0.00,,SKC,0.06,VWS V14.01,2013-06-01 20:25:00,
2013-06-01 15:26:00,59.0,54.5,29.59,NW,318,5.0,11.0,85,0.00,,SKC,0.06,VWS V14.01,2013-06-01 20:26:00,
2013-06-01 15:27:00,59.0,54.2,29.59,NW,318,7.0,11.0,84,0.00,,SKC,0.06,VWS V14.01,2013-06-01 20:27:00,
2013-06-01 15:28:00,59.0,54.2,29.59,NW,321,6.0,11.0,84,0.00,,SKC,0.06,VWS V14.01,2013-06-01 20:28:00,
2013-06-01 15:29:00,58.9,54.1,29.59,NW,313,8.0,11.0,84,0.00,,SKC,0.06,VWS V14.01,2013-06-01 20:29:00,
2013-06-01 15:30:00,58.8,54.0,29.59,NNW,328,5.0,11.0,84,0.00,,SKC,0.06,VWS V14.01,2013-06-01 20:30:00,
2013-06-01 15:31:00,58.6,53.8,29.59,NNW,327,4.0,10.0,84,0.00,,SKC,0.06,VWS V14.01,2013-06-01 20:31:00,
2013-06-01 15:32:00,58.6,53.8,29.59,NW,319,7.0,10.0,84,0.00,,SKC,0.06,VWS V14.01,2013-06-01 20:32:00,
2013-06-01 15:33:00,58.5,53.7,29.59,NW,322,11.0,11.0,84,0.00,,SKC,0.06,VWS V14.01,2013-06-01 20:33:00,
2013-06-01 15:34:00,58.9,55.0,29.58,NW,321,4.0,11.0,87,0.00,,SKC,0.06,VWS V14.01,2013-06-01 20:34:00,
2013-06-01 15:35:00,58.5,53.7,29.59,NW,319,8.0,11.0,84,0.00,,SKC,0.06,VWS V14.01,2013-06-01 20:35:00,
2013-06-01 15:36:00,58.5,53.7,29.59,NW,313,10.0,11.0,84,0.00,,SKC,0.06,VWS V14.01,2013-06-01 20:36:00,
2013-06-01 15:39:00,58.6,53.5,29.59,NW,320,9.0,11.0,83,0.00,,SKC,0.06,VWS V14.01,2013-06-01 20:39:00,
2013-06-01 15:40:00,58.6,53.5,29.59,NNW,329,9.0,11.0,83,0.00,,SKC,0.06,VWS V14.01,2013-06-01 20:40:00,
2013-06-01 15:43:00,58.5,53.0,29.59,NW,325,11.0,13.0,82,0.00,,SKC,0.06,VWS V14.01,2013-06-01 20:43:00,
2013-06-01 15:44:00,58.5,53.0,29.59,NW,321,5.0,13.0,82,0.00,,SKC,0.06,VWS V14.01,2013-06-01 20:44:00,
2013-06-01 15:45:00,58.5,53.0,29.59,NW,325,8.0,15.0,82,0.00,,SKC,0.06,VWS V14.01,2013-06-01 20:45:00,
2013-06-01 15:46:00,58.5,53.0,29.59,NNW,336,8.0,15.0,82,0.00,,SKC,0.06,VWS V14.01,2013-06-01 20:46:00,
2013-06-01 15:47:00,58.4,52.9,29.59,NW,311,8.0,15.0,82,0.00,,SKC,0.06,VWS V14.01,2013-06-01 20:47:00,
2013-06-01 15:50:00,58.3,52.5,29.60,NW,321,8.0,15.0,81,0.00,,SKC,0.06,VWS V14.01,2013-06-01 20:50:00,
2013-06-01 15:52:00,58.5,53.7,29.59,NNW,327,5.0,11.0,84,0.00,,SKC,0.06,VWS V14.01,2013-06-01 20:52:00,
2013-06-01 15:53:00,58.2,52.7,29.60,NW,315,8.0,15.0,82,0.00,,SKC,0.06,VWS V14.01,2013-06-01 20:53:00,
2013-06-01 15:56:00,58.0,52.5,29.60,North,5,6.0,15.0,82,0.00,,SKC,0.06,VWS V14.01,2013-06-01 20:56:00,
2013-06-01 15:57:00,58.6,53.1,29.59,NW,319,9.0,12.0,82,0.00,,SKC,0.06,VWS V14.01,2013-06-01 20:57:00,
2013-06-01 16:00:00,57.9,52.8,29.61,NNW,338,6.0,15.0,83,0.00,,SKC,0.06,VWS V14.01,2013-06-01 21:00:00,
2013-06-01 16:01:00,57.9,52.8,29.61,NW,315,8.0,10.0,83,0.00,,SKC,0.06,VWS V14.01,2013-06-01 21:01:00,
2013-06-01 16:02:00,57.9,52.5,29.61,NNW,344,1.0,10.0,82,0.00,,SKC,0.06,VWS V14.01,2013-06-01 21:02:00,
2013-06-01 16:03:00,57.9,52.5,29.61,NNW,343,4.0,10.0,82,0.00,,SKC,0.06,VWS V14.01,2013-06-01 21:03:00,
2013-06-01 16:04:00,58.4,52.9,29.60,NNW,331,10.0,15.0,82,0.00,,SKC,0.06,VWS V14.01,2013-06-01 21:04:00,
2013-06-01 16:07:00,57.8,52.7,29.61,NW,309,6.0,10.0,83,0.00,,SKC,0.06,VWS V14.01,2013-06-01 21:07:00,
2013-06-01 16:08:00,57.7,52.6,29.61,WNW,294,7.0,10.0,83,0.00,,SKC,0.06,VWS V14.01,2013-06-01 21:08:00,
2013-06-01 16:10:00,58.1,53.0,29.60,NW,321,2.0,15.0,83,0.00,,SKC,0.06,VWS V14.01,2013-06-01 21:10:00,
2013-06-01 16:14:00,57.1,52.3,29.62,NW,325,5.0,10.0,84,0.00,,SKC,0.06,VWS V14.01,2013-06-01 21:14:00,
2013-06-01 16:15:00,57.9,52.8,29.61,NNW,338,5.0,15.0,83,0.00,,SKC,0.06,VWS V14.01,2013-06-01 21:15:00,
2013-06-01 16:17:00,56.8,51.7,29.62,NNW,329,8.0,10.0,83,0.00,,SKC,0.06,VWS V14.01,2013-06-01 21:17:00,
2013-06-01 16:21:00,57.9,52.5,29.61,NNW,329,4.0,10.0,82,0.00,,SKC,0.06,VWS V14.01,2013-06-01 21:21:00,
2013-06-01 16:23:00,56.2,51.1,29.63,NW,319,5.0,11.0,83,0.00,,SKC,0.06,VWS V14.01,2013-06-01 21:23:00,
2013-06-01 16:24:00,56.2,51.4,29.63,NW,320,2.0,11.0,84,0.00,,SKC,0.06,VWS V14.01,2013-06-01 21:24:00,
2013-06-01 16:25:00,56.1,51.3,29.63,NW,319,6.0,11.0,84,0.00,,SKC,0.06,VWS V14.01,2013-06-01 21:25:00,
2013-06-01 16:26:00,57.5,52.4,29.61,NW,320,6.0,10.0,83,0.00,,SKC,0.06,VWS V14.01,2013-06-01 21:26:00,
2013-06-01 16:29:00,55.9,51.1,29.63,NW,321,5.0,11.0,84,0.00,,SKC,0.06,VWS V14.01,2013-06-01 21:29:00,
2013-06-01 16:30:00,55.9,51.1,29.63,WNW,302,5.0,11.0,84,0.00,,SKC,0.06,VWS V14.01,2013-06-01 21:30:00,
2013-06-01 16:31:00,56.9,52.1,29.62,NW,323,6.0,10.0,84,0.00,,SKC,0.06,VWS V14.01,2013-06-01 21:31:00,
2013-06-01 16:32:00,55.7,51.0,29.63,NW,325,6.0,12.0,84,0.00,,SKC,0.06,VWS V14.01,2013-06-01 21:32:00,
2013-06-01 16:34:00,55.6,50.8,29.63,NNW,334,4.0,12.0,84,0.00,,SKC,0.06,VWS V14.01,2013-06-01 21:34:00,
2013-06-01 16:35:00,55.5,50.8,29.63,NW,314,6.0,12.0,84,0.00,,SKC,0.06,VWS V14.01,2013-06-01 21:35:00,
2013-06-01 16:36:00,56.4,51.3,29.62,NW,323,4.0,11.0,83,0.00,,SKC,0.06,VWS V14.01,2013-06-01 21:36:00,
2013-06-01 16:39:00,55.2,50.5,29.63,NW,323,8.0,12.0,84,0.00,,SKC,0.06,VWS V14.01,2013-06-01 21:39:00,
2013-06-01 16:43:00,56.0,51.2,29.63,NNW,334,0.0,11.0,84,0.00,,SKC,0.06,VWS V14.01,2013-06-01 21:43:00,
2013-06-01 16:44:00,54.6,49.9,29.64,NW,322,7.0,13.0,84,0.00,,SKC,0.06,VWS V14.01,2013-06-01 21:44:00,
2013-06-01 16:46:00,54.4,50.0,29.64,NW,313,8.0,13.0,85,0.00,,SKC,0.06,VWS V14.01,2013-06-01 21:46:00,
2013-06-01 16:47:00,54.3,49.6,29.64,NW,315,7.0,13.0,84,0.00,,SKC,0.06,VWS V14.01,2013-06-01 21:47:00,
2013-06-01 16:48:00,54.2,49.8,29.64,NW,317,6.0,13.0,85,0.00,,SKC,0.06,VWS V14.01,2013-06-01 21:48:00,
2013-06-01 16:49:00,55.6,50.8,29.63,NNW,334,2.0,12.0,84,0.00,,SKC,0.06,VWS V14.01,2013-06-01 21:49:00,
2013-06-01 16:50:00,54.0,49.6,29.64,NW,313,4.0,13.0,85,0.00,,SKC,0.06,VWS V14.01,2013-06-01 21:50:00,
2013-06-01 16:52:00,53.8,49.4,29.64,NW,317,5.0,13.0,85,0.00,,SKC,0.06,VWS V14.01,2013-06-01 21:52:00,
2013-06-01 16:54:00,55.3,50.6,29.63,NW,323,7.0,12.0,84,0.00,,SKC,0.06,VWS V14.01,2013-06-01 21:54:00,
2013-06-01 16:55:00,53.6,49.5,29.65,NW,321,5.0,13.0,86,0.00,,SKC,0.06,VWS V14.01,2013-06-01 21:55:00,
2013-06-01 16:56:00,53.6,49.5,29.65,NW,321,3.0,13.0,86,0.00,,SKC,0.06,VWS V14.01,2013-06-01 21:56:00,
2013-06-01 16:58:00,53.5,49.4,29.65,NW,321,6.0,13.0,86,0.00,,SKC,0.06,VWS V14.01,2013-06-01 21:58:00,
2013-06-01 16:59:00,53.4,49.3,29.65,NNW,330,5.0,13.0,86,0.00,,SKC,0.06,VWS V14.01,2013-06-01 21:59:00,
2013-06-01 17:00:00,53.4,49.3,29.65,NNW,329,6.0,13.0,86,0.00,,SKC,0.06,VWS V14.01,2013-06-01 22:00:00,
2013-06-01 17:01:00,54.5,50.1,29.64,NW,324,8.0,13.0,85,0.00,,SKC,0.06,VWS V14.01,2013-06-01 22:01:00,
2013-06-01 17:02:00,53.3,49.2,29.65,NW,326,7.0,11.0,86,0.00,,SKC,0.06,VWS V14.01,2013-06-01 22:02:00,
2013-06-01 17:03:00,53.2,48.8,29.66,NW,320,9.0,11.0,85,0.00,,SKC,0.06,VWS V14.01,2013-06-01 22:03:00,
2013-06-01 17:04:00,53.2,48.8,29.65,NW,323,6.0,11.0,85,0.00,,SKC,0.06,VWS V14.01,2013-06-01 22:04:00,
2013-06-01 17:05:00,53.1,49.0,29.66,North,360,6.0,11.0,86,0.00,,SKC,0.06,VWS V14.01,2013-06-01 22:05:00,
2013-06-01 17:06:00,53.1,49.0,29.66,NW,326,6.0,11.0,86,0.00,,SKC,0.06,VWS V14.01,2013-06-01 22:06:00,
2013-06-01 17:07:00,53.9,49.5,29.64,NW,314,8.0,13.0,85,0.00,,SKC,0.06,VWS V14.01,2013-06-01 22:07:00,
2013-06-01 17:08:00,53.0,48.9,29.66,NNW,333,6.0,11.0,86,0.00,,SKC,0.06,VWS V14.01,2013-06-01 22:08:00,
2013-06-01 17:09:00,52.9,48.8,29.66,NNE,13,4.0,11.0,86,0.00,,SKC,0.06,VWS V14.01,2013-06-01 22:09:00,
2013-06-01 17:10:00,52.9,48.8,29.66,North,10,4.0,11.0,86,0.00,,SKC,0.06,VWS V14.01,2013-06-01 22:10:00,
2013-06-01 17:11:00,52.9,48.8,29.66,North,9,2.0,11.0,86,0.00,,SKC,0.06,VWS V14.01,2013-06-01 22:11:00,
2013-06-01 17:12:00,52.9,48.8,29.66,North,349,4.0,12.0,86,0.00,,SKC,0.06,VWS V14.01,2013-06-01 22:12:00,
2013-06-01 17:13:00,52.9,48.8,29.66,NNW,348,4.0,12.0,86,0.00,,SKC,0.06,VWS V14.01,2013-06-01 22:13:00,
2013-06-01 17:14:00,53.5,49.4,29.65,NW,321,8.0,13.0,86,0.00,,SKC,0.06,VWS V14.01,2013-06-01 22:14:00,
2013-06-01 17:15:00,52.9,48.8,29.66,NNW,342,0.0,12.0,86,0.00,,SKC,0.06,VWS V14.01,2013-06-01 22:15:00,
2013-06-01 17:16:00,52.9,48.8,29.67,NNW,339,0.0,12.0,86,0.00,,SKC,0.06,VWS V14.01,2013-06-01 22:16:00,
2013-06-01 17:17:00,52.9,48.8,29.67,North,5,4.0,12.0,86,0.00,,SKC,0.06,VWS V14.01,2013-06-01 22:17:00,
2013-06-01 17:18:00,52.9,48.8,29.67,NNE,15,4.0,12.0,86,0.00,,SKC,0.06,VWS V14.01,2013-06-01 22:18:00,
2013-06-01 17:19:00,52.9,48.8,29.67,NNW,343,5.0,12.0,86,0.00,,SKC,0.06,VWS V14.01,2013-06-01 22:19:00,
2013-06-01 17:20:00,52.9,48.8,29.67,NNW,333,4.0,12.0,86,0.00,,SKC,0.06,VWS V14.01,2013-06-01 22:20:00,
2013-06-01 17:21:00,52.9,48.8,29.67,NW,325,6.0,12.0,86,0.00,,SKC,0.06,VWS V14.01,2013-06-01 22:21:00,
2013-06-01 17:22:00,52.9,48.8,29.67,NW,324,6.0,12.0,86,0.00,,SKC,0.06,VWS V14.01,2013-06-01 22:22:00,
2013-06-01 17:23:00,52.8,48.4,29.67,NW,314,9.0,12.0,85,0.00,,SKC,0.06,VWS V14.01,2013-06-01 22:23:00,
2013-06-01 17:24:00,52.7,48.3,29.67,NW,315,9.0,12.0,85,0.00,,SKC,0.06,VWS V14.01,2013-06-01 22:24:00,
2013-06-01 17:25:00,52.7,48.0,29.67,NW,318,6.0,12.0,84,0.00,,SKC,0.06,VWS V14.01,2013-06-01 22:25:00,
2013-06-01 17:26:00,52.6,47.9,29.67,NW,320,5.0,12.0,84,0.00,,SKC,0.06,VWS V14.01,2013-06-01 22:26:00,
2013-06-01 17:27:00,52.5,47.8,29.67,NW,324,7.0,12.0,84,0.00,,SKC,0.06,VWS V14.01,2013-06-01 22:27:00,
2013-06-01 17:28:00,52.4,47.7,29.67,NNW,338,4.0,12.0,84,0.00,,SKC,0.06,VWS V14.01,2013-06-01 22:28:00,
2013-06-01 17:29:00,52.4,47.7,29.67,NNW,337,4.0,12.0,84,0.00,,SKC,0.06,VWS V14.01,2013-06-01 22:29:00,
2013-06-01 17:30:00,52.4,47.7,29.67,NW,326,4.0,12.0,84,0.00,,SKC,0.06,VWS V14.01,2013-06-01 22:30:00,
2013-06-01 17:31:00,52.3,47.9,29.67,NW,323,1.0,7.0,85,0.00,,SKC,0.06,VWS V14.01,2013-06-01 22:31:00,
2013-06-01 17:32:00,52.3,47.9,29.67,NNW,328,5.0,7.0,85,0.00,,SKC,0.06,VWS V14.01,2013-06-01 22:32:00,
2013-06-01 17:33:00,52.3,47.9,29.67,North,360,5.0,10.0,85,0.00,,SKC,0.06,VWS V14.01,2013-06-01 22:33:00,
2013-06-01 17:34:00,52.3,47.6,29.67,North,351,4.0,10.0,84,0.00,,SKC,0.06,VWS V14.01,2013-06-01 22:34:00,
2013-06-01 17:35:00,52.2,47.8,29.67,North,355,4.0,10.0,85,0.00,,SKC,0.06,VWS V14.01,2013-06-01 22:35:00,
2013-06-01 17:36:00,52.2,47.8,29.67,NW,313,4.0,10.0,85,0.00,,SKC,0.06,VWS V14.01,2013-06-01 22:36:00,
2013-06-01 17:37:00,52.2,47.8,29.68,NW,315,4.0,10.0,85,0.00,,SKC,0.06,VWS V14.01,2013-06-01 22:37:00,
2013-06-01 17:38:00,52.2,47.8,29.68,NW,316,4.0,10.0,85,0.00,,SKC,0.06,VWS V14.01,2013-06-01 22:38:00,
2013-06-01 17:39:00,52.2,47.8,29.68,NW,316,3.0,10.0,85,0.00,,SKC,0.06,VWS V14.01,2013-06-01 22:39:00,
2013-06-01 17:40:00,52.1,48.0,29.68,NW,320,4.0,10.0,86,0.00,,SKC,0.06,VWS V14.01,2013-06-01 22:40:00,
2013-06-01 17:41:00,52.1,48.0,29.67,NW,320,6.0,10.0,86,0.00,,SKC,0.06,VWS V14.01,2013-06-01 22:41:00,
2013-06-01 17:42:00,52.1,47.7,29.68,NNW,347,4.0,10.0,85,0.00,,SKC,0.06,VWS V14.01,2013-06-01 22:42:00,
2013-06-01 17:43:00,52.1,47.7,29.67,NW,315,5.0,10.0,85,0.00,,SKC,0.06,VWS V14.01,2013-06-01 22:43:00,
2013-06-01 17:44:00,52.0,47.6,29.68,NW,315,4.0,10.0,85,0.00,,SKC,0.06,VWS V14.01,2013-06-01 22:44:00,
2013-06-01 17:45:00,52.0,47.6,29.68,NW,315,2.0,10.0,85,0.00,,SKC,0.06,VWS V14.01,2013-06-01 22:45:00,
2013-06-01 17:46:00,52.0,47.6,29.68,NW,324,5.0,10.0,85,0.00,,SKC,0.06,VWS V14.01,2013-06-01 22:46:00,
2013-06-01 17:47:00,52.0,47.6,29.68,North,355,4.0,10.0,85,0.00,,SKC,0.06,VWS V14.01,2013-06-01 22:47:00,
2013-06-01 17:48:00,51.9,47.5,29.68,NNW,346,3.0,10.0,85,0.00,,SKC,0.06,VWS V14.01,2013-06-01 22:48:00,
2013-06-01 17:49:00,51.9,47.5,29.68,NW,323,8.0,10.0,85,0.00,,SKC,0.06,VWS V14.01,2013-06-01 22:49:00,
2013-06-01 17:50:00,51.9,47.5,29.68,North,10,7.0,10.0,85,0.00,,SKC,0.06,VWS V14.01,2013-06-01 22:50:00,
2013-06-01 17:51:00,51.9,47.5,29.68,NNE,27,3.0,10.0,85,0.00,,SKC,0.06,VWS V14.01,2013-06-01 22:51:00,
2013-06-01 17:52:00,51.9,47.2,29.68,NW,315,2.0,10.0,84,0.00,,SKC,0.06,VWS V14.01,2013-06-01 22:52:00,
2013-06-01 17:53:00,51.9,47.5,29.68,NW,321,3.0,10.0,85,0.00,,SKC,0.06,VWS V14.01,2013-06-01 22:53:00,
2013-06-01 17:54:00,51.9,47.5,29.68,NW,321,3.0,10.0,85,0.00,,SKC,0.06,VWS V14.01,2013-06-01 22:54:00,
2013-06-01 17:55:00,51.9,47.5,29.68,NW,324,2.0,10.0,85,0.00,,SKC,0.06,VWS V14.01,2013-06-01 22:55:00,
2013-06-01 17:56:00,51.9,47.5,29.68,North,360,4.0,10.0,85,0.00,,SKC,0.06,VWS V14.01,2013-06-01 22:56:00,
2013-06-01 17:57:00,51.9,47.5,29.68,North,360,7.0,10.0,85,0.00,,SKC,0.06,VWS V14.01,2013-06-01 22:57:00,
2013-06-01 17:58:00,51.9,47.5,29.68,North,355,1.0,10.0,85,0.00,,SKC,0.06,VWS V14.01,2013-06-01 22:58:00,
2013-06-01 17:59:00,51.9,47.5,29.68,North,355,4.0,10.0,85,0.00,,SKC,0.06,VWS V14.01,2013-06-01 22:59:00,
2013-06-01 18:00:00,51.9,47.5,29.68,North,360,1.0,10.0,85,0.00,,SKC,0.06,VWS V14.01,2013-06-01 23:00:00,
2013-06-01 18:01:00,51.9,47.5,29.68,North,355,4.0,5.0,85,0.00,,SKC,0.06,VWS V14.01,2013-06-01 23:01:00,
2013-06-01 18:02:00,52.0,47.6,29.68,NNW,337,11.0,11.0,85,0.00,,SKC,0.06,VWS V14.01,2013-06-01 23:02:00,
2013-06-01 18:03:00,52.0,47.3,29.68,NNW,342,7.0,11.0,84,0.00,,SKC,0.06,VWS V14.01,2013-06-01 23:03:00,
2013-06-01 18:04:00,51.9,46.9,29.68,NNW,339,5.0,11.0,83,0.00,,SKC,0.06,VWS V14.01,2013-06-01 23:04:00,
2013-06-01 18:05:00,51.9,46.9,29.68,North,355,7.0,11.0,83,0.00,,SKC,0.06,VWS V14.01,2013-06-01 23:05:00,
2013-06-01 18:06:00,51.9,46.9,29.68,NW,319,10.0,16.0,83,0.00,,SKC,0.06,VWS V14.01,2013-06-01 23:06:00,
2013-06-01 18:07:00,51.9,46.9,29.68,NW,309,4.0,16.0,83,0.00,,SKC,0.06,VWS V14.01,2013-06-01 23:07:00,
2013-06-01 18:08:00,51.9,46.9,29.68,NNW,335,4.0,16.0,83,0.00,,SKC,0.06,VWS V14.01,2013-06-01 23:08:00,
2013-06-01 18:09:00,51.9,46.9,29.69,North,355,1.0,16.0,83,0.00,,SKC,0.06,VWS V14.01,2013-06-01 23:09:00,
2013-06-01 18:10:00,51.8,46.8,29.69,North,355,4.0,16.0,83,0.00,,SKC,0.06,VWS V14.01,2013-06-01 23:10:00,
2013-06-01 18:11:00,51.8,46.8,29.69,NNW,336,4.0,16.0,83,0.00,,SKC,0.06,VWS V14.01,2013-06-01 23:11:00,
2013-06-01 18:12:00,51.8,46.5,29.69,NNW,343,6.0,16.0,82,0.00,,SKC,0.06,VWS V14.01,2013-06-01 23:12:00,
2013-06-01 18:13:00,51.8,46.5,29.69,NNW,343,9.0,16.0,82,0.00,,SKC,0.06,VWS V14.01,2013-06-01 23:13:00,
2013-06-01 18:14:00,51.7,46.1,29.69,NW,320,8.0,16.0,81,0.00,,SKC,0.06,VWS V14.01,2013-06-01 23:14:00,
2013-06-01 18:15:00,51.7,46.1,29.69,NNW,348,3.0,16.0,81,0.00,,SKC,0.06,VWS V14.01,2013-06-01 23:15:00,
2013-06-01 18:16:00,51.7,46.4,29.69,NNW,327,1.0,16.0,82,0.00,,SKC,0.06,VWS V14.01,2013-06-01 23:16:00,
2013-06-01 18:17:00,51.6,46.3,29.69,NNW,327,5.0,16.0,82,0.00,,SKC,0.06,VWS V14.01,2013-06-01 23:17:00,
2013-06-01 18:18:00,51.6,46.3,29.69,North,355,5.0,16.0,82,0.00,,SKC,0.06,VWS V14.01,2013-06-01 23:18:00,
2013-06-01 18:19:00,51.6,46.3,29.69,NW,323,5.0,16.0,82,0.00,,SKC,0.06,VWS V14.01,2013-06-01 23:19:00,
2013-06-01 18:20:00,51.5,45.9,29.69,NW,324,6.0,16.0,81,0.00,,SKC,0.06,VWS V14.01,2013-06-01 23:20:00,
2013-06-01 18:21:00,51.5,45.9,29.69,NNE,12,4.0,16.0,81,0.00,,SKC,0.06,VWS V14.01,2013-06-01 23:21:00,
2013-06-01 18:22:00,51.5,45.9,29.69,NNW,343,4.0,16.0,81,0.00,,SKC,0.06,VWS V14.01,2013-06-01 23:22:00,
2013-06-01 18:23:00,51.4,45.8,29.70,NNW,343,1.0,16.0,81,0.00,,SKC,0.06,VWS V14.01,2013-06-01 23:23:00,
2013-06-01 18:24:00,51.5,45.9,29.69,NNW,343,4.0,16.0,81,0.00,,SKC,0.06,VWS V14.01,2013-06-01 23:24:00,
2013-06-01 18:25:00,51.5,46.2,29.70,NNW,343,5.0,16.0,82,0.00,,SKC,0.06,VWS V14.01,2013-06-01 23:25:00,
2013-06-01 18:26:00,51.5,46.2,29.69,NNW,343,6.0,16.0,82,0.00,,SKC,0.06,VWS V14.01,2013-06-01 23:26:00,
2013-06-01 18:27:00,51.4,46.1,29.70,NNE,12,3.0,16.0,82,0.00,,SKC,0.06,VWS V14.01,2013-06-01 23:27:00,
2013-06-01 18:28:00,51.4,45.8,29.70,North,360,2.0,16.0,81,0.00,,SKC,0.06,VWS V14.01,2013-06-01 23:28:00,
2013-06-01 18:29:00,51.5,46.2,29.70,North,355,3.0,16.0,82,0.00,,SKC,0.06,VWS V14.01,2013-06-01 23:29:00,
2013-06-01 18:30:00,51.5,46.2,29.70,North,355,1.0,16.0,82,0.00,,SKC,0.06,VWS V14.01,2013-06-01 23:30:00,
2013-06-01 18:32:00,51.5,45.9,29.70,North,355,4.0,15.0,81,0.00,,SKC,0.06,VWS V14.01,2013-06-01 23:32:00,
2013-06-01 18:33:00,51.5,45.9,29.70,North,355,8.0,15.0,81,0.00,,SKC,0.06,VWS V14.01,2013-06-01 23:33:00,
2013-06-01 18:34:00,51.5,45.9,29.70,NNW,334,6.0,15.0,81,0.00,,SKC,0.06,VWS V14.01,2013-06-01 23:34:00,
2013-06-01 18:35:00,51.5,45.9,29.70,NNW,339,4.0,15.0,81,0.00,,SKC,0.06,VWS V14.01,2013-06-01 23:35:00,
2013-06-01 18:36:00,51.5,45.9,29.70,North,355,6.0,15.0,81,0.00,,SKC,0.06,VWS V14.01,2013-06-01 23:36:00,
2013-06-01 18:37:00,51.5,45.9,29.70,NNW,346,6.0,15.0,81,0.00,,SKC,0.06,VWS V14.01,2013-06-01 23:37:00,
2013-06-01 18:38:00,51.5,45.9,29.70,North,355,4.0,15.0,81,0.00,,SKC,0.06,VWS V14.01,2013-06-01 23:38:00,
2013-06-01 18:39:00,51.5,46.2,29.70,NNW,344,5.0,15.0,82,0.00,,SKC,0.06,VWS V14.01,2013-06-01 23:39:00,
2013-06-01 18:40:00,51.4,45.8,29.70,NNW,339,2.0,15.0,81,0.00,,SKC,0.06,VWS V14.01,2013-06-01 23:40:00,
2013-06-01 18:42:00,51.4,45.8,29.71,North,360,5.0,15.0,81,0.00,,SKC,0.06,VWS V14.01,2013-06-01 23:42:00,
2013-06-01 18:43:00,51.4,45.8,29.70,North,355,4.0,15.0,81,0.00,,SKC,0.06,VWS V14.01,2013-06-01 23:43:00,
2013-06-01 18:44:00,51.4,45.8,29.71,NNE,14,4.0,15.0,81,0.00,,SKC,0.06,VWS V14.01,2013-06-01 23:44:00,
2013-06-01 18:47:00,51.5,46.2,29.70,NNW,339,5.0,9.0,82,0.00,,SKC,0.06,VWS V14.01,2013-06-01 23:47:00,
2013-06-01 18:48:00,51.3,46.0,29.71,NNW,336,7.0,15.0,82,0.00,,SKC,0.06,VWS V14.01,2013-06-01 23:48:00,
2013-06-01 18:49:00,51.3,46.0,29.71,North,349,10.0,15.0,82,0.00,,SKC,0.06,VWS V14.01,2013-06-01 23:49:00,
2013-06-01 18:50:00,51.2,45.9,29.71,NNW,333,7.0,15.0,82,0.00,,SKC,0.06,VWS V14.01,2013-06-01 23:50:00,
2013-06-01 18:51:00,51.2,45.9,29.71,NNW,333,0.0,15.0,82,0.00,,SKC,0.06,VWS V14.01,2013-06-01 23:51:00,
2013-06-01 18:52:00,51.2,45.9,29.71,NW,315,8.0,15.0,82,0.00,,SKC,0.06,VWS V14.01,2013-06-01 23:52:00,
2013-06-01 18:53:00,51.1,45.8,29.71,NNW,335,7.0,15.0,82,0.00,,SKC,0.06,VWS V14.01,2013-06-01 23:53:00,
2013-06-01 18:54:00,51.0,45.7,29.71,NW,325,5.0,15.0,82,0.00,,SKC,0.06,VWS V14.01,2013-06-01 23:54:00,
2013-06-01 18:55:00,51.0,45.7,29.71,NNW,338,4.0,15.0,82,0.00,,SKC,0.06,VWS V14.01,2013-06-01 23:55:00,
2013-06-01 18:56:00,51.0,45.7,29.71,NNW,337,5.0,15.0,82,0.00,,SKC,0.06,VWS V14.01,2013-06-01 23:56:00,
2013-06-01 18:57:00,51.4,45.8,29.70,NNW,338,6.0,15.0,81,0.00,,SKC,0.06,VWS V14.01,2013-06-01 23:57:00,
2013-06-01 18:58:00,50.9,45.9,29.71,North,355,2.0,15.0,83,0.00,,SKC,0.06,VWS V14.01,2013-06-01 23:58:00,
2013-06-01 18:59:00,50.9,45.9,29.71,NNW,333,5.0,15.0,83,0.00,,SKC,0.06,VWS V14.01,2013-06-01 23:59:00,
2013-06-01 19:00:00,50.9,45.9,29.71,NW,311,4.0,15.0,83,0.00,,SKC,0.06,VWS V14.01,2013-06-02 00:00:00,
2013-06-01 19:01:00,50.8,45.8,29.71,NW,313,4.0,5.0,83,0.00,,SKC,0.06,VWS V14.01,2013-06-02 00:01:00,
2013-06-01 19:02:00,50.8,45.8,29.71,NW,313,1.0,5.0,83,0.00,,SKC,0.06,VWS V14.01,2013-06-02 00:02:00,
2013-06-01 19:03:00,50.8,45.8,29.72,NW,313,0.0,5.0,83,0.00,,SKC,0.06,VWS V14.01,2013-06-02 00:03:00,
2013-06-01 19:04:00,50.8,45.8,29.72,NW,313,3.0,5.0,83,0.00,,SKC,0.06,VWS V14.01,2013-06-02 00:04:00,
2013-06-01 19:05:00,50.8,45.8,29.72,NW,313,0.0,5.0,83,0.00,,SKC,0.06,VWS V14.01,2013-06-02 00:05:00,
2013-06-01 19:06:00,50.8,45.8,29.72,NW,313,1.0,5.0,83,0.00,,SKC,0.06,VWS V14.01,2013-06-02 00:06:00,
2013-06-01 19:07:00,50.8,46.2,29.72,NW,313,0.0,5.0,84,0.00,,SKC,0.06,VWS V14.01,2013-06-02 00:07:00,
2013-06-01 19:08:00,50.8,46.2,29.72,NW,313,0.0,5.0,84,0.00,,SKC,0.06,VWS V14.01,2013-06-02 00:08:00,
2013-06-01 19:09:00,50.8,46.2,29.72,NW,313,2.0,5.0,84,0.00,,SKC,0.06,VWS V14.01,2013-06-02 00:09:00,
2013-06-01 19:10:00,50.8,46.2,29.72,NW,313,0.0,5.0,84,0.00,,SKC,0.06,VWS V14.01,2013-06-02 00:10:00,
2013-06-01 19:11:00,50.9,46.2,29.72,NW,313,2.0,5.0,84,0.00,,SKC,0.06,VWS V14.01,2013-06-02 00:11:00,
2013-06-01 19:12:00,50.9,46.2,29.72,NW,321,1.0,6.0,84,0.00,,SKC,0.06,VWS V14.01,2013-06-02 00:12:00,
2013-06-01 19:13:00,50.8,46.2,29.72,North,360,4.0,6.0,84,0.00,,SKC,0.06,VWS V14.01,2013-06-02 00:13:00,
2013-06-01 19:14:00,50.8,46.2,29.72,NNW,346,2.0,6.0,84,0.00,,SKC,0.06,VWS V14.01,2013-06-02 00:14:00,
2013-06-01 19:15:00,50.8,45.8,29.72,North,5,2.0,6.0,83,0.00,,SKC,0.06,VWS V14.01,2013-06-02 00:15:00,
2013-06-01 19:16:00,50.8,45.8,29.72,NW,309,7.0,9.0,83,0.00,,SKC,0.06,VWS V14.01,2013-06-02 00:16:00,
2013-06-01 19:17:00,50.8,45.8,29.72,NW,316,3.0,9.0,83,0.00,,SKC,0.06,VWS V14.01,2013-06-02 00:17:00,
2013-06-01 19:18:00,50.8,45.8,29.72,NW,316,5.0,9.0,83,0.00,,SKC,0.06,VWS V14.01,2013-06-02 00:18:00,
2013-06-01 19:19:00,50.8,45.8,29.72,NNW,332,6.0,9.0,83,0.00,,SKC,0.06,VWS V14.01,2013-06-02 00:19:00,
2013-06-01 19:20:00,50.8,45.5,29.72,North,355,5.0,9.0,82,0.00,,SKC,0.06,VWS V14.01,2013-06-02 00:20:00,
2013-06-01 19:21:00,50.7,45.4,29.72,NW,326,6.0,9.0,82,0.00,,SKC,0.06,VWS V14.01,2013-06-02 00:21:00,
2013-06-01 19:22:00,50.7,45.4,29.72,NNW,338,5.0,9.0,82,0.00,,SKC,0.06,VWS V14.01,2013-06-02 00:22:00,
2013-06-01 19:23:00,50.7,45.4,29.72,North,355,1.0,9.0,82,0.00,,SKC,0.06,VWS V14.01,2013-06-02 00:23:00,
2013-06-01 19:24:00,50.6,45.3,29.72,NNW,329,8.0,9.0,82,0.00,,SKC,0.06,VWS V14.01,2013-06-02 00:24:00,
2013-06-01 19:25:00,50.6,45.3,29.73,NNW,329,4.0,9.0,82,0.00,,SKC,0.06,VWS V14.01,2013-06-02 00:25:00,
2013-06-01 19:26:00,50.6,45.3,29.73,NNW,330,5.0,9.0,82,0.00,,SKC,0.06,VWS V14.01,2013-06-02 00:26:00,
2013-06-01 19:27:00,50.6,45.3,29.73,NNW,330,6.0,9.0,82,0.00,,SKC,0.06,VWS V14.01,2013-06-02 00:27:00,
2013-06-01 19:28:00,50.5,45.2,29.73,NNW,330,4.0,9.0,82,0.00,,SKC,0.06,VWS V14.01,2013-06-02 00:28:00,
2013-06-01 19:29:00,50.5,45.2,29.73,NW,323,6.0,9.0,82,0.00,,SKC,0.06,VWS V14.01,2013-06-02 00:29:00,
2013-06-01 19:30:00,50.5,45.2,29.73,NW,324,4.0,9.0,82,0.00,,SKC,0.06,VWS V14.01,2013-06-02 00:30:00,
2013-06-01 19:31:00,50.5,45.2,29.73,North,350,2.0,7.0,82,0.00,,SKC,0.06,VWS V14.01,2013-06-02 00:31:00,
2013-06-01 19:32:00,50.5,45.2,29.73,North,360,5.0,7.0,82,0.00,,SKC,0.06,VWS V14.01,2013-06-02 00:32:00,
2013-06-01 19:33:00,50.5,45.2,29.73,North,360,4.0,7.0,82,0.00,,SKC,0.06,VWS V14.01,2013-06-02 00:33:00,
2013-06-01 19:34:00,50.5,45.2,29.73,NNW,343,5.0,7.0,82,0.00,,SKC,0.06,VWS V14.01,2013-06-02 00:34:00,
2013-06-01 19:35:00,50.5,45.2,29.73,NNW,338,5.0,7.0,82,0.00,,SKC,0.06,VWS V14.01,2013-06-02 00:35:00,
2013-06-01 19:36:00,50.5,45.2,29.73,NW,320,9.0,9.0,82,0.00,,SKC,0.06,VWS V14.01,2013-06-02 00:36:00,
2013-06-01 19:37:00,50.5,45.2,29.73,NW,326,2.0,9.0,82,0.00,,SKC,0.06,VWS V14.01,2013-06-02 00:37:00,
2013-06-01 19:38:00,50.4,45.1,29.74,NNW,340,4.0,9.0,82,0.00,,SKC,0.06,VWS V14.01,2013-06-02 00:38:00,
2013-06-01 19:39:00,50.4,45.1,29.74,NNW,338,8.0,9.0,82,0.00,,SKC,0.06,VWS V14.01,2013-06-02 00:39:00,
2013-06-01 19:40:00,50.4,45.1,29.74,NNW,340,4.0,9.0,82,0.00,,SKC,0.06,VWS V14.01,2013-06-02 00:40:00,
2013-06-01 19:41:00,50.4,45.1,29.74,NNW,340,0.0,9.0,82,0.00,,SKC,0.06,VWS V14.01,2013-06-02 00:41:00,
2013-06-01 19:42:00,50.4,45.1,29.74,North,9,6.0,9.0,82,0.00,,SKC,0.06,VWS V14.01,2013-06-02 00:42:00,
2013-06-01 19:43:00,50.4,44.8,29.74,North,350,8.0,9.0,81,0.00,,SKC,0.06,VWS V14.01,2013-06-02 00:43:00,
2013-06-01 19:44:00,50.4,44.8,29.74,NNW,348,4.0,9.0,81,0.00,,SKC,0.06,VWS V14.01,2013-06-02 00:44:00,
2013-06-01 19:45:00,50.4,44.8,29.74,NNW,348,1.0,9.0,81,0.00,,SKC,0.06,VWS V14.01,2013-06-02 00:45:00,
2013-06-01 19:46:00,50.5,45.5,29.74,NNW,339,4.0,9.0,83,0.00,,SKC,0.06,VWS V14.01,2013-06-02 00:46:00,
2013-06-01 19:47:00,50.4,45.4,29.74,NW,325,1.0,9.0,83,0.00,,SKC,0.06,VWS V14.01,2013-06-02 00:47:00,
2013-06-01 19:48:00,50.5,45.5,29.74,NW,323,0.0,9.0,83,0.00,,SKC,0.06,VWS V14.01,2013-06-02 00:48:00,
2013-06-01 19:49:00,50.5,45.5,29.74,NW,323,2.0,9.0,83,0.00,,SKC,0.06,VWS V14.01,2013-06-02 00:49:00,
2013-06-01 19:50:00,50.5,45.5,29.74,NW,326,5.0,9.0,83,0.00,,SKC,0.06,VWS V14.01,2013-06-02 00:50:00,
2013-06-01 19:51:00,50.5,45.5,29.74,NNW,327,0.0,9.0,83,0.00,,SKC,0.06,VWS V14.01,2013-06-02 00:51:00,
2013-06-01 19:52:00,50.5,45.5,29.74,NNW,327,4.0,9.0,83,0.00,,SKC,0.06,VWS V14.01,2013-06-02 00:52:00,
2013-06-01 19:53:00,50.5,45.5,29.74,NNW,343,1.0,9.0,83,0.00,,SKC,0.06,VWS V14.01,2013-06-02 00:53:00,
2013-06-01 19:54:00,50.5,45.2,29.74,NNW,344,1.0,9.0,82,0.00,,SKC,0.06,VWS V14.01,2013-06-02 00:54:00,
2013-06-01 19:55:00,50.5,45.5,29.74,NNW,346,2.0,9.0,83,0.00,,SKC,0.06,VWS V14.01,2013-06-02 00:55:00,
2013-06-01 19:56:00,50.5,45.5,29.74,NNW,346,0.0,9.0,83,0.00,,SKC,0.06,VWS V14.01,2013-06-02 00:56:00,
2013-06-01 19:57:00,50.5,45.5,29.74,North,349,0.0,9.0,83,0.00,,SKC,0.06,VWS V14.01,2013-06-02 00:57:00,
2013-06-01 19:58:00,50.6,45.6,29.74,North,350,5.0,9.0,83,0.00,,SKC,0.06,VWS V14.01,2013-06-02 00:58:00,
2013-06-01 19:59:00,50.5,45.5,29.74,North,351,2.0,9.0,83,0.00,,SKC,0.06,VWS V14.01,2013-06-02 00:59:00,
2013-06-01 20:00:00,50.6,45.3,29.74,North,5,5.0,9.0,82,0.00,,SKC,0.06,VWS V14.01,2013-06-02 01:00:00,
2013-06-01 20:01:00,50.5,45.2,29.74,North,360,6.0,6.0,82,0.00,,SKC,0.06,VWS V14.01,2013-06-02 01:01:00,
2013-06-01 20:02:00,50.5,45.2,29.74,North,360,3.0,6.0,82,0.00,,SKC,0.06,VWS V14.01,2013-06-02 01:02:00,
2013-06-01 20:03:00,50.5,45.2,29.74,North,360,4.0,6.0,82,0.00,,SKC,0.06,VWS V14.01,2013-06-02 01:03:00,
2013-06-01 20:04:00,50.5,45.2,29.74,North,5,4.0,6.0,82,0.00,,SKC,0.06,VWS V14.01,2013-06-02 01:04:00,
2013-06-01 20:05:00,50.5,45.2,29.75,North,5,1.0,6.0,82,0.00,,SKC,0.06,VWS V14.01,2013-06-02 01:05:00,
2013-06-01 20:06:00,50.5,45.2,29.75,North,5,2.0,6.0,82,0.00,,SKC,0.06,VWS V14.01,2013-06-02 01:06:00,
2013-06-01 20:07:00,50.5,45.2,29.75,North,5,2.0,6.0,82,0.00,,SKC,0.06,VWS V14.01,2013-06-02 01:07:00,
2013-06-01 20:08:00,50.6,45.3,29.74,North,5,0.0,6.0,82,0.00,,SKC,0.06,VWS V14.01,2013-06-02 01:08:00,
2013-06-01 20:09:00,50.5,45.2,29.75,NNW,343,8.0,8.0,82,0.00,,SKC,0.06,VWS V14.01,2013-06-02 01:09:00,
2013-06-01 20:10:00,50.5,45.2,29.75,NNW,327,6.0,9.0,82,0.00,,SKC,0.06,VWS V14.01,2013-06-02 01:10:00,
2013-06-01 20:11:00,50.5,45.2,29.75,NNW,327,1.0,9.0,82,0.00,,SKC,0.06,VWS V14.01,2013-06-02 01:11:00,
2013-06-01 20:12:00,50.5,45.2,29.75,NNE,12,4.0,9.0,82,0.00,,SKC,0.06,VWS V14.01,2013-06-02 01:12:00,
2013-06-01 20:13:00,50.6,45.6,29.75,NNE,32,0.0,9.0,83,0.00,,SKC,0.06,VWS V14.01,2013-06-02 01:13:00,
2013-06-01 20:14:00,50.6,45.6,29.75,NNE,15,0.0,9.0,83,0.00,,SKC,0.06,VWS V14.01,2013-06-02 01:14:00,
2013-06-01 20:15:00,50.6,45.6,29.75,NNE,15,4.0,9.0,83,0.00,,SKC,0.06,VWS V14.01,2013-06-02 01:15:00,
2013-06-01 20:16:00,50.6,45.6,29.75,NNW,336,1.0,9.0,83,0.00,,SKC,0.06,VWS V14.01,2013-06-02 01:16:00,
2013-06-01 20:17:00,50.6,45.3,29.75,North,355,5.0,9.0,82,0.00,,SKC,0.06,VWS V14.01,2013-06-02 01:17:00,
2013-06-01 20:18:00,50.6,45.3,29.75,North,355,0.0,9.0,82,0.00,,SKC,0.06,VWS V14.01,2013-06-02 01:18:00,
2013-06-01 20:19:00,50.6,45.0,29.75,North,355,0.0,9.0,81,0.00,,SKC,0.06,VWS V14.01,2013-06-02 01:19:00,
2013-06-01 20:20:00,50.6,45.0,29.75,North,355,0.0,9.0,81,0.00,,SKC,0.06,VWS V14.01,2013-06-02 01:20:00,
2013-06-01 20:21:00,50.6,45.3,29.75,North,5,6.0,9.0,82,0.00,,SKC,0.06,VWS V14.01,2013-06-02 01:21:00,
2013-06-01 20:22:00,50.6,45.3,29.75,NNE,15,5.0,9.0,82,0.00,,SKC,0.06,VWS V14.01,2013-06-02 01:22:00,
2013-06-01 20:23:00,50.6,45.3,29.75,NNW,347,6.0,9.0,82,0.00,,SKC,0.06,VWS V14.01,2013-06-02 01:23:00,
2013-06-01 20:24:00,50.6,45.3,29.75,NNE,26,0.0,9.0,82,0.00,,SKC,0.06,VWS V14.01,2013-06-02 01:24:00,
2013-06-01 20:25:00,50.5,45.2,29.75,North,360,0.0,9.0,82,0.00,,SKC,0.06,VWS V14.01,2013-06-02 01:25:00,
2013-06-01 20:26:00,50.6,45.0,29.75,North,360,2.0,9.0,81,0.00,,SKC,0.06,VWS V14.01,2013-06-02 01:26:00,
2013-06-01 20:27:00,50.5,45.2,29.75,North,355,0.0,9.0,82,0.00,,SKC,0.06,VWS V14.01,2013-06-02 01:27:00,
2013-06-01 20:28:00,50.5,45.2,29.75,North,355,0.0,9.0,82,0.00,,SKC,0.06,VWS V14.01,2013-06-02 01:28:00,
2013-06-01 20:29:00,50.5,45.2,29.75,North,355,0.0,9.0,82,0.00,,SKC,0.06,VWS V14.01,2013-06-02 01:29:00,
2013-06-01 20:30:00,50.6,45.3,29.75,NNW,346,5.0,9.0,82,0.00,,SKC,0.06,VWS V14.01,2013-06-02 01:30:00,
2013-06-01 20:31:00,50.6,45.3,29.75,NNW,342,7.0,10.0,82,0.00,,SKC,0.06,VWS V14.01,2013-06-02 01:31:00,
2013-06-01 20:32:00,50.6,45.3,29.75,North,349,4.0,10.0,82,0.00,,SKC,0.06,VWS V14.01,2013-06-02 01:32:00,
2013-06-01 20:33:00,50.5,44.9,29.75,North,351,0.0,10.0,81,0.00,,SKC,0.06,VWS V14.01,2013-06-02 01:33:00,
2013-06-01 20:34:00,50.5,44.9,29.75,North,351,1.0,10.0,81,0.00,,SKC,0.06,VWS V14.01,2013-06-02 01:34:00,
2013-06-01 20:35:00,50.5,44.9,29.75,North,351,0.0,10.0,81,0.00,,SKC,0.06,VWS V14.01,2013-06-02 01:35:00,
2013-06-01 20:36:00,50.5,44.9,29.75,North,351,0.0,10.0,81,0.00,,SKC,0.06,VWS V14.01,2013-06-02 01:36:00,
2013-06-01 20:37:00,50.5,45.2,29.75,North,355,0.0,10.0,82,0.00,,SKC,0.06,VWS V14.01,2013-06-02 01:37:00,
2013-06-01 20:38:00,50.5,45.2,29.75,North,355,2.0,10.0,82,0.00,,SKC,0.06,VWS V14.01,2013-06-02 01:38:00,
2013-06-01 20:39:00,50.5,45.2,29.75,North,355,0.0,10.0,82,0.00,,SKC,0.06,VWS V14.01,2013-06-02 01:39:00,
2013-06-01 20:41:00,50.6,45.3,29.75,North,351,5.0,10.0,82,0.00,,SKC,0.06,VWS V14.01,2013-06-02 01:41:00,
2013-06-01 20:42:00,50.5,45.2,29.75,North,351,3.0,10.0,82,0.00,,SKC,0.06,VWS V14.01,2013-06-02 01:42:00,
2013-06-01 20:43:00,50.6,45.3,29.76,North,351,0.0,10.0,82,0.00,,SKC,0.06,VWS V14.01,2013-06-02 01:43:00,
2013-06-01 20:44:00,50.6,45.3,29.76,North,351,1.0,10.0,82,0.00,,SKC,0.06,VWS V14.01,2013-06-02 01:44:00,
2013-06-01 20:46:00,50.6,45.3,29.76,North,349,1.0,10.0,82,0.00,,SKC,0.06,VWS V14.01,2013-06-02 01:46:00,
2013-06-01 20:47:00,50.6,45.0,29.76,North,351,1.0,10.0,81,0.00,,SKC,0.06,VWS V14.01,2013-06-02 01:47:00,
2013-06-01 20:48:00,50.6,45.0,29.76,North,351,0.0,10.0,81,0.00,,SKC,0.06,VWS V14.01,2013-06-02 01:48:00,
2013-06-01 20:49:00,50.6,45.0,29.76,North,351,0.0,10.0,81,0.00,,SKC,0.06,VWS V14.01,2013-06-02 01:49:00,
2013-06-01 20:50:00,50.6,45.0,29.76,North,351,0.0,10.0,81,0.00,,SKC,0.06,VWS V14.01,2013-06-02 01:50:00,
2013-06-01 20:51:00,50.6,45.3,29.76,North,351,0.0,10.0,82,0.00,,SKC,0.06,VWS V14.01,2013-06-02 01:51:00,
2013-06-01 20:52:00,50.6,45.3,29.76,North,349,2.0,10.0,82,0.00,,SKC,0.06,VWS V14.01,2013-06-02 01:52:00,
2013-06-01 20:53:00,50.6,45.0,29.76,North,349,0.0,10.0,81,0.00,,SKC,0.06,VWS V14.01,2013-06-02 01:53:00,
2013-06-01 20:54:00,50.6,45.0,29.76,North,349,0.0,10.0,81,0.00,,SKC,0.06,VWS V14.01,2013-06-02 01:54:00,
2013-06-01 20:55:00,50.6,45.0,29.76,North,349,0.0,10.0,81,0.00,,SKC,0.06,VWS V14.01,2013-06-02 01:55:00,
2013-06-01 20:56:00,50.6,45.3,29.76,NNE,30,5.0,10.0,82,0.00,,SKC,0.06,VWS V14.01,2013-06-02 01:56:00,
2013-06-01 20:57:00,50.6,45.3,29.76,NNE,30,0.0,10.0,82,0.00,,SKC,0.06,VWS V14.01,2013-06-02 01:57:00,
2013-06-01 20:58:00,50.6,45.3,29.76,NNE,17,2.0,10.0,82,0.00,,SKC,0.06,VWS V14.01,2013-06-02 01:58:00,
2013-06-01 20:59:00,50.6,45.3,29.76,NNE,17,0.0,10.0,82,0.00,,SKC,0.06,VWS V14.01,2013-06-02 01:59:00,
2013-06-01 21:00:00,50.6,45.3,29.76,NNE,17,0.0,10.0,82,0.00,,SKC,0.06,VWS V14.01,2013-06-02 02:00:00,
2013-06-01 21:01:00,50.6,45.3,29.76,NNE,17,0.0,4.0,82,0.00,,SKC,0.06,VWS V14.01,2013-06-02 02:01:00,
2013-06-01 21:02:00,50.6,45.0,29.76,NNE,22,1.0,5.0,81,0.00,,SKC,0.06,VWS V14.01,2013-06-02 02:02:00,
2013-06-01 21:03:00,50.6,45.0,29.76,NNE,21,0.0,5.0,81,0.00,,SKC,0.06,VWS V14.01,2013-06-02 02:03:00,
2013-06-01 21:04:00,50.6,45.0,29.76,NNE,21,2.0,5.0,81,0.00,,SKC,0.06,VWS V14.01,2013-06-02 02:04:00,
2013-06-01 21:05:00,50.6,45.0,29.76,NNE,21,0.0,5.0,81,0.00,,SKC,0.06,VWS V14.01,2013-06-02 02:05:00,
2013-06-01 21:06:00,50.6,45.3,29.76,NNE,22,1.0,6.0,82,0.00,,SKC,0.06,VWS V14.01,2013-06-02 02:06:00,
2013-06-01 21:07:00,50.6,45.3,29.76,NNE,22,0.0,6.0,82,0.00,,SKC,0.06,VWS V14.01,2013-06-02 02:07:00,
2013-06-01 21:08:00,50.6,45.3,29.76,NNE,21,0.0,6.0,82,0.00,,SKC,0.06,VWS V14.01,2013-06-02 02:08:00,
2013-06-01 21:09:00,50.6,45.3,29.76,NNE,21,0.0,6.0,82,0.00,,SKC,0.06,VWS V14.01,2013-06-02 02:09:00,
2013-06-01 21:10:00,50.6,45.3,29.76,NNE,21,0.0,6.0,82,0.00,,SKC,0.06,VWS V14.01,2013-06-02 02:10:00,
2013-06-01 21:11:00,50.6,45.3,29.77,NNE,21,0.0,6.0,82,0.00,,SKC,0.06,VWS V14.01,2013-06-02 02:11:00,
2013-06-01 21:12:00,50.6,45.3,29.76,NNE,21,3.0,6.0,82,0.00,,SKC,0.06,VWS V14.01,2013-06-02 02:12:00,
2013-06-01 21:13:00,50.6,45.0,29.76,NNE,21,0.0,6.0,81,0.00,,SKC,0.06,VWS V14.01,2013-06-02 02:13:00,
2013-06-01 21:14:00,50.6,45.0,29.77,NNE,21,0.0,6.0,81,0.00,,SKC,0.06,VWS V14.01,2013-06-02 02:14:00,
2013-06-01 21:15:00,50.6,45.0,29.76,NNE,21,0.0,6.0,81,0.00,,SKC,0.06,VWS V14.01,2013-06-02 02:15:00,
2013-06-01 21:16:00,50.5,44.9,29.76,NNE,21,0.0,6.0,81,0.00,,SKC,0.06,VWS V14.01,2013-06-02 02:16:00,
2013-06-01 21:17:00,50.5,44.9,29.76,NNE,21,1.0,6.0,81,0.00,,SKC,0.06,VWS V14.01,2013-06-02 02:17:00,
2013-06-01 21:18:00,50.5,44.9,29.77,NNE,21,1.0,6.0,81,0.00,,SKC,0.06,VWS V14.01,2013-06-02 02:18:00,
2013-06-01 21:19:00,50.5,44.6,29.77,NNE,21,0.0,6.0,80,0.00,,SKC,0.06,VWS V14.01,2013-06-02 02:19:00,
2013-06-01 21:20:00,50.5,44.6,29.77,NNE,21,0.0,6.0,80,0.00,,SKC,0.06,VWS V14.01,2013-06-02 02:20:00,
2013-06-01 21:21:00,50.5,44.6,29.77,NNE,19,1.0,6.0,80,0.00,,SKC,0.06,VWS V14.01,2013-06-02 02:21:00,
2013-06-01 21:22:00,50.4,44.5,29.77,NNE,19,0.0,6.0,80,0.00,,SKC,0.06,VWS V14.01,2013-06-02 02:22:00,
2013-06-01 21:23:00,50.5,44.6,29.77,NNE,19,4.0,6.0,80,0.00,,SKC,0.06,VWS V14.01,2013-06-02 02:23:00,
2013-06-01 21:24:00,50.4,44.8,29.77,NNE,19,0.0,6.0,81,0.00,,SKC,0.06,VWS V14.01,2013-06-02 02:24:00,
2013-06-01 21:25:00,50.4,44.8,29.77,NNE,19,0.0,6.0,81,0.00,,SKC,0.06,VWS V14.01,2013-06-02 02:25:00,
2013-06-01 21:26:00,50.4,44.5,29.77,NNE,19,3.0,6.0,80,0.00,,SKC,0.06,VWS V14.01,2013-06-02 02:26:00,
2013-06-01 21:27:00,50.4,44.8,29.77,NNE,18,0.0,6.0,81,0.00,,SKC,0.06,VWS V14.01,2013-06-02 02:27:00,
2013-06-01 21:28:00,50.4,44.5,29.77,NNE,18,0.0,6.0,80,0.00,,SKC,0.06,VWS V14.01,2013-06-02 02:28:00,
2013-06-01 21:29:00,50.4,44.8,29.77,NNE,18,0.0,6.0,81,0.00,,SKC,0.06,VWS V14.01,2013-06-02 02:29:00,
2013-06-01 21:30:00,50.4,44.5,29.77,NNE,18,0.0,6.0,80,0.00,,SKC,0.06,VWS V14.01,2013-06-02 02:30:00,
2013-06-01 21:31:00,50.4,44.8,29.77,NNE,18,0.0,1.0,81,0.00,,SKC,0.06,VWS V14.01,2013-06-02 02:31:00,
2013-06-01 21:32:00,50.4,44.8,29.77,NNE,18,0.0,1.0,81,0.00,,SKC,0.06,VWS V14.01,2013-06-02 02:32:00,
2013-06-01 21:33:00,50.4,44.8,29.77,NNE,18,0.0,1.0,81,0.00,,SKC,0.06,VWS V14.01,2013-06-02 02:33:00,
2013-06-01 21:34:00,50.4,44.8,29.77,NNE,18,0.0,1.0,81,0.00,,SKC,0.06,VWS V14.01,2013-06-02 02:34:00,
2013-06-01 21:35:00,50.4,44.8,29.77,NNE,18,1.0,2.0,81,0.00,,SKC,0.06,VWS V14.01,2013-06-02 02:35:00,
2013-06-01 21:36:00,50.4,44.8,29.77,NNE,18,0.0,2.0,81,0.00,,SKC,0.06,VWS V14.01,2013-06-02 02:36:00,
2013-06-01 21:37:00,50.3,44.7,29.77,NNE,18,0.0,2.0,81,0.00,,SKC,0.06,VWS V14.01,2013-06-02 02:37:00,
2013-06-01 21:38:00,50.3,44.7,29.78,NNE,18,0.0,2.0,81,0.00,,SKC,0.06,VWS V14.01,2013-06-02 02:38:00,
2013-06-01 21:39:00,50.3,44.7,29.77,North,360,6.0,6.0,81,0.00,,SKC,0.06,VWS V14.01,2013-06-02 02:39:00,
2013-06-01 21:40:00,50.3,44.7,29.77,North,360,0.0,6.0,81,0.00,,SKC,0.06,VWS V14.01,2013-06-02 02:40:00,
2013-06-01 21:41:00,50.4,44.8,29.78,North,355,0.0,6.0,81,0.00,,SKC,0.06,VWS V14.01,2013-06-02 02:41:00,
2013-06-01 21:42:00,50.3,44.7,29.78,North,355,4.0,6.0,81,0.00,,SKC,0.06,VWS V14.01,2013-06-02 02:42:00,
2013-06-01 21:43:00,50.3,44.7,29.78,North,355,0.0,6.0,81,0.00,,SKC,0.06,VWS V14.01,2013-06-02 02:43:00,
2013-06-01 21:44:00,50.4,44.8,29.78,North,355,0.0,6.0,81,0.00,,SKC,0.06,VWS V14.01,2013-06-02 02:44:00,
2013-06-01 21:45:00,50.4,44.8,29.78,North,349,0.0,6.0,81,0.00,,SKC,0.06,VWS V14.01,2013-06-02 02:45:00,
2013-06-01 21:46:00,50.4,45.1,29.78,NNW,348,0.0,6.0,82,0.00,,SKC,0.06,VWS V14.01,2013-06-02 02:46:00,
2013-06-01 21:47:00,50.4,45.1,29.78,North,355,5.0,7.0,82,0.00,,SKC,0.06,VWS V14.01,2013-06-02 02:47:00,
2013-06-01 21:48:00,50.4,45.1,29.78,North,355,6.0,7.0,82,0.00,,SKC,0.06,VWS V14.01,2013-06-02 02:48:00,
2013-06-01 21:49:00,50.4,44.8,29.78,North,5,4.0,8.0,81,0.00,,SKC,0.06,VWS V14.01,2013-06-02 02:49:00,
2013-06-01 21:50:00,50.4,44.8,29.78,NNE,28,8.0,8.0,81,0.00,,SKC,0.06,VWS V14.01,2013-06-02 02:50:00,
2013-06-01 21:51:00,50.4,44.5,29.78,NNW,339,3.0,10.0,80,0.00,,SKC,0.06,VWS V14.01,2013-06-02 02:51:00,
2013-06-01 21:52:00,50.5,44.9,29.78,NNW,339,5.0,10.0,81,0.00,,SKC,0.06,VWS V14.01,2013-06-02 02:52:00,
2013-06-01 21:53:00,50.4,44.8,29.78,NNW,339,1.0,10.0,81,0.00,,SKC,0.06,VWS V14.01,2013-06-02 02:53:00,
2013-06-01 21:54:00,50.5,44.9,29.78,NNW,339,5.0,10.0,81,0.00,,SKC,0.06,VWS V14.01,2013-06-02 02:54:00,
2013-06-01 21:55:00,50.4,44.5,29.78,North,355,6.0,10.0,80,0.00,,SKC,0.06,VWS V14.01,2013-06-02 02:55:00,
2013-06-01 21:56:00,50.4,44.5,29.78,NW,308,1.0,10.0,80,0.00,,SKC,0.06,VWS V14.01,2013-06-02 02:56:00,
2013-06-01 21:57:00,50.4,44.5,29.78,NNE,24,0.0,10.0,80,0.00,,SKC,0.06,VWS V14.01,2013-06-02 02:57:00,
2013-06-01 21:58:00,50.4,44.5,29.78,NNE,24,0.0,10.0,80,0.00,,SKC,0.06,VWS V14.01,2013-06-02 02:58:00,
2013-06-01 21:59:00,50.4,44.5,29.78,NNE,24,4.0,10.0,80,0.00,,SKC,0.06,VWS V14.01,2013-06-02 02:59:00,
2013-06-01 22:00:00,50.4,44.5,29.78,NNE,23,4.0,10.0,80,0.00,,SKC,0.06,VWS V14.01,2013-06-02 03:00:00,
2013-06-01 22:02:00,50.4,44.5,29.78,NNE,16,2.0,5.0,80,0.00,,SKC,0.06,VWS V14.01,2013-06-02 03:02:00,
2013-06-01 22:03:00,50.4,44.5,29.78,NNW,344,4.0,9.0,80,0.00,,SKC,0.06,VWS V14.01,2013-06-02 03:03:00,
2013-06-01 22:04:00,50.4,44.1,29.78,North,5,4.0,9.0,79,0.00,,SKC,0.06,VWS V14.01,2013-06-02 03:04:00,
2013-06-01 22:05:00,50.4,44.1,29.78,NNW,327,6.0,9.0,79,0.00,,SKC,0.06,VWS V14.01,2013-06-02 03:05:00,
2013-06-01 22:06:00,50.4,44.1,29.78,NNW,343,3.0,9.0,79,0.00,,SKC,0.06,VWS V14.01,2013-06-02 03:06:00,
2013-06-01 22:07:00,50.3,44.0,29.78,ENE,57,1.0,9.0,79,0.00,,SKC,0.06,VWS V14.01,2013-06-02 03:07:00,
2013-06-01 22:08:00,50.4,44.1,29.78,NE,52,3.0,9.0,79,0.00,,SKC,0.06,VWS V14.01,2013-06-02 03:08:00,
2013-06-01 22:09:00,50.3,44.0,29.78,North,355,5.0,9.0,79,0.00,,SKC,0.06,VWS V14.01,2013-06-02 03:09:00,
2013-06-01 22:10:00,50.4,44.1,29.78,NNW,341,1.0,11.0,79,0.00,,SKC,0.06,VWS V14.01,2013-06-02 03:10:00,
2013-06-01 22:11:00,50.4,43.8,29.78,NNW,341,1.0,11.0,78,0.00,,SKC,0.06,VWS V14.01,2013-06-02 03:11:00,
2013-06-01 22:12:00,50.4,44.1,29.78,NNE,28,1.0,11.0,79,0.00,,SKC,0.06,VWS V14.01,2013-06-02 03:12:00,
2013-06-01 22:14:00,50.4,44.1,29.78,NW,314,9.0,11.0,79,0.00,,SKC,0.06,VWS V14.01,2013-06-02 03:14:00,
2013-06-01 22:15:00,50.4,43.8,29.78,NNW,329,0.0,11.0,78,0.00,,SKC,0.06,VWS V14.01,2013-06-02 03:15:00,
2013-06-01 22:16:00,50.4,44.5,29.78,NNE,22,5.0,5.0,80,0.00,,SKC,0.06,VWS V14.01,2013-06-02 03:16:00,
2013-06-01 22:17:00,50.4,43.8,29.78,NNW,334,6.0,11.0,78,0.00,,SKC,0.06,VWS V14.01,2013-06-02 03:17:00,
2013-06-01 22:19:00,50.4,43.8,29.78,NNE,24,0.0,11.0,78,0.00,,SKC,0.06,VWS V14.01,2013-06-02 03:19:00,
2013-06-01 22:20:00,50.4,44.1,29.78,North,5,4.0,11.0,79,0.00,,SKC,0.06,VWS V14.01,2013-06-02 03:20:00,
2013-06-01 22:21:00,50.4,44.1,29.78,North,355,2.0,11.0,79,0.00,,SKC,0.06,VWS V14.01,2013-06-02 03:21:00,
2013-06-01 22:22:00,50.4,44.1,29.78,NNE,12,5.0,11.0,79,0.00,,SKC,0.06,VWS V14.01,2013-06-02 03:22:00,
2013-06-01 22:23:00,50.4,43.8,29.79,North,355,4.0,11.0,78,0.00,,SKC,0.06,VWS V14.01,2013-06-02 03:23:00,
2013-06-01 22:24:00,50.4,43.5,29.79,North,355,1.0,11.0,77,0.00,,SKC,0.06,VWS V14.01,2013-06-02 03:24:00,
2013-06-01 22:25:00,50.4,43.8,29.79,North,5,2.0,11.0,78,0.00,,SKC,0.06,VWS V14.01,2013-06-02 03:25:00,
2013-06-01 22:26:00,50.4,43.8,29.79,North,5,0.0,11.0,78,0.00,,SKC,0.06,VWS V14.01,2013-06-02 03:26:00,
2013-06-01 22:27:00,50.4,43.8,29.79,North,5,1.0,11.0,78,0.00,,SKC,0.06,VWS V14.01,2013-06-02 03:27:00,
2013-06-01 22:28:00,50.4,43.8,29.79,North,5,6.0,11.0,78,0.00,,SKC,0.06,VWS V14.01,2013-06-02 03:28:00,
2013-06-01 22:29:00,50.4,44.5,29.78,North,355,4.0,11.0,80,0.00,,SKC,0.06,VWS V14.01,2013-06-02 03:29:00,
2013-06-01 22:30:00,50.4,43.8,29.79,NW,315,5.0,11.0,78,0.00,,SKC,0.06,VWS V14.01,2013-06-02 03:30:00,
2013-06-01 22:31:00,50.3,43.4,29.79,NW,324,8.0,11.0,77,0.00,,SKC,0.06,VWS V14.01,2013-06-02 03:31:00,
2013-06-01 22:32:00,50.3,43.0,29.79,NNW,347,6.0,11.0,76,0.00,,SKC,0.06,VWS V14.01,2013-06-02 03:32:00,
2013-06-01 22:33:00,50.3,43.0,29.79,NNW,337,11.0,11.0,76,0.00,,SKC,0.06,VWS V14.01,2013-06-02 03:33:00,
2013-06-01 22:34:00,50.3,43.0,29.79,North,355,1.0,18.0,76,0.00,,SKC,0.06,VWS V14.01,2013-06-02 03:34:00,
2013-06-01 22:35:00,50.3,43.0,29.79,NNW,346,5.0,18.0,76,0.00,,SKC,0.06,VWS V14.01,2013-06-02 03:35:00,
2013-06-01 22:36:00,50.3,43.0,29.79,NNW,344,4.0,18.0,76,0.00,,SKC,0.06,VWS V14.01,2013-06-02 03:36:00,
2013-06-01 22:37:00,50.3,43.0,29.79,NNW,344,4.0,18.0,76,0.00,,SKC,0.06,VWS V14.01,2013-06-02 03:37:00,
2013-06-01 22:38:00,50.3,43.4,29.79,NNW,330,6.0,18.0,77,0.00,,SKC,0.06,VWS V14.01,2013-06-02 03:38:00,
2013-06-01 22:39:00,50.3,43.0,29.79,North,9,5.0,18.0,76,0.00,,SKC,0.06,VWS V14.01,2013-06-02 03:39:00,
2013-06-01 22:40:00,50.3,43.0,29.79,NNW,327,4.0,18.0,76,0.00,,SKC,0.06,VWS V14.01,2013-06-02 03:40:00,
2013-06-01 22:41:00,50.2,42.9,29.79,NNW,336,1.0,18.0,76,0.00,,SKC,0.06,VWS V14.01,2013-06-02 03:41:00,
2013-06-01 22:42:00,50.2,42.6,29.80,NW,323,2.0,18.0,75,0.00,,SKC,0.06,VWS V14.01,2013-06-02 03:42:00,
2013-06-01 22:43:00,50.2,42.9,29.80,NNW,332,2.0,18.0,76,0.00,,SKC,0.06,VWS V14.01,2013-06-02 03:43:00,
2013-06-01 22:44:00,50.2,42.9,29.80,NNW,344,6.0,18.0,76,0.00,,SKC,0.06,VWS V14.01,2013-06-02 03:44:00,
2013-06-01 22:45:00,50.2,42.9,29.80,NNW,344,6.0,18.0,76,0.00,,SKC,0.06,VWS V14.01,2013-06-02 03:45:00,
2013-06-01 22:46:00,50.2,42.9,29.80,NNW,346,2.0,18.0,76,0.00,,SKC,0.06,VWS V14.01,2013-06-02 03:46:00,
2013-06-01 22:47:00,50.2,42.9,29.80,NNW,344,4.0,18.0,76,0.00,,SKC,0.06,VWS V14.01,2013-06-02 03:47:00,
2013-06-01 22:48:00,50.2,42.6,29.80,North,5,3.0,18.0,75,0.00,,SKC,0.06,VWS V14.01,2013-06-02 03:48:00,
2013-06-01 22:49:00,50.1,42.8,29.80,North,5,4.0,18.0,76,0.00,,SKC,0.06,VWS V14.01,2013-06-02 03:49:00,
2013-06-01 22:50:00,50.1,42.8,29.80,NW,325,6.0,18.0,76,0.00,,SKC,0.06,VWS V14.01,2013-06-02 03:50:00,
2013-06-01 22:51:00,50.1,42.8,29.79,North,9,2.0,18.0,76,0.00,,SKC,0.06,VWS V14.01,2013-06-02 03:51:00,
2013-06-01 22:52:00,50.1,42.8,29.80,NNW,345,4.0,18.0,76,0.00,,SKC,0.06,VWS V14.01,2013-06-02 03:52:00,
2013-06-01 22:53:00,50.1,42.8,29.80,North,351,5.0,18.0,76,0.00,,SKC,0.06,VWS V14.01,2013-06-02 03:53:00,
2013-06-01 22:54:00,50.1,42.8,29.80,NNW,344,2.0,18.0,76,0.00,,SKC,0.06,VWS V14.01,2013-06-02 03:54:00,
2013-06-01 22:55:00,50.1,42.8,29.80,NNW,348,1.0,18.0,76,0.00,,SKC,0.06,VWS V14.01,2013-06-02 03:55:00,
2013-06-01 22:56:00,50.1,42.8,29.79,North,360,1.0,18.0,76,0.00,,SKC,0.06,VWS V14.01,2013-06-02 03:56:00,
2013-06-01 22:57:00,50.1,42.8,29.79,North,349,1.0,18.0,76,0.00,,SKC,0.06,VWS V14.01,2013-06-02 03:57:00,
2013-06-01 22:58:00,50.1,42.8,29.79,NNW,348,0.0,18.0,76,0.00,,SKC,0.06,VWS V14.01,2013-06-02 03:58:00,
2013-06-01 22:59:00,50.1,43.2,29.80,NNW,348,1.0,18.0,77,0.00,,SKC,0.06,VWS V14.01,2013-06-02 03:59:00,
2013-06-01 23:00:00,50.1,43.2,29.80,NNW,348,0.0,18.0,77,0.00,,SKC,0.06,VWS V14.01,2013-06-02 04:00:00,
2013-06-01 23:01:00,50.1,43.2,29.80,NNW,343,3.0,8.0,77,0.00,,SKC,0.06,VWS V14.01,2013-06-02 04:01:00,
2013-06-01 23:02:00,50.1,43.2,29.80,NNW,343,8.0,9.0,77,0.00,,SKC,0.06,VWS V14.01,2013-06-02 04:02:00,
2013-06-01 23:03:00,50.1,42.8,29.80,NE,50,6.0,12.0,76,0.00,,SKC,0.06,VWS V14.01,2013-06-02 04:03:00,
2013-06-01 23:04:00,50.1,42.8,29.80,North,355,5.0,12.0,76,0.00,,SKC,0.06,VWS V14.01,2013-06-02 04:04:00,
2013-06-01 23:05:00,50.0,43.1,29.80,North,355,3.0,12.0,77,0.00,,SKC,0.06,VWS V14.01,2013-06-02 04:05:00,
2013-06-01 23:06:00,50.0,43.1,29.80,North,355,0.0,12.0,77,0.00,,SKC,0.06,VWS V14.01,2013-06-02 04:06:00,
2013-06-01 23:07:00,50.0,43.1,29.80,North,355,0.0,12.0,77,0.00,,SKC,0.06,VWS V14.01,2013-06-02 04:07:00,
2013-06-01 23:08:00,50.0,42.7,29.80,North,355,6.0,12.0,76,0.00,,SKC,0.06,VWS V14.01,2013-06-02 04:08:00,
2013-06-01 23:09:00,50.0,43.1,29.80,North,355,4.0,12.0,77,0.00,,SKC,0.06,VWS V14.01,2013-06-02 04:09:00,
2013-06-01 23:10:00,50.0,42.7,29.80,NNW,347,7.0,12.0,76,0.00,,SKC,0.06,VWS V14.01,2013-06-02 04:10:00,
2013-06-01 23:11:00,50.0,43.1,29.80,North,355,6.0,12.0,77,0.00,,SKC,0.06,VWS V14.01,2013-06-02 04:11:00,
2013-06-01 23:12:00,50.0,43.1,29.80,North,355,4.0,12.0,77,0.00,,SKC,0.06,VWS V14.01,2013-06-02 04:12:00,
2013-06-01 23:13:00,50.0,43.1,29.80,NW,319,5.0,12.0,77,0.00,,SKC,0.06,VWS V14.01,2013-06-02 04:13:00,
2013-06-01 23:14:00,50.0,42.7,29.80,NNW,334,3.0,12.0,76,0.00,,SKC,0.06,VWS V14.01,2013-06-02 04:14:00,
2013-06-01 23:15:00,49.9,42.7,29.80,North,349,5.0,12.0,76,0.00,,SKC,0.06,VWS V14.01,2013-06-02 04:15:00,
2013-06-01 23:16:00,49.9,42.7,29.80,North,350,1.0,12.0,76,0.00,,SKC,0.06,VWS V14.01,2013-06-02 04:16:00,
2013-06-01 23:17:00,49.9,43.0,29.80,NW,311,3.0,12.0,77,0.00,,SKC,0.06,VWS V14.01,2013-06-02 04:17:00,
2013-06-01 23:18:00,49.9,43.0,29.80,NW,322,2.0,12.0,77,0.00,,SKC,0.06,VWS V14.01,2013-06-02 04:18:00,
2013-06-01 23:19:00,49.9,43.0,29.80,NNW,328,4.0,12.0,77,0.00,,SKC,0.06,VWS V14.01,2013-06-02 04:19:00,
2013-06-01 23:20:00,49.9,43.0,29.80,WNW,297,4.0,12.0,77,0.00,,SKC,0.06,VWS V14.01,2013-06-02 04:20:00,
2013-06-01 23:21:00,49.9,42.7,29.80,North,360,6.0,12.0,76,0.00,,SKC,0.06,VWS V14.01,2013-06-02 04:21:00,
2013-06-01 23:22:00,49.9,42.7,29.80,North,355,5.0,12.0,76,0.00,,SKC,0.06,VWS V14.01,2013-06-02 04:22:00,
2013-06-01 23:23:00,49.9,43.0,29.80,NNW,340,1.0,12.0,77,0.00,,SKC,0.06,VWS V14.01,2013-06-02 04:23:00,
2013-06-01 23:24:00,49.9,43.0,29.80,NNW,343,0.0,12.0,77,0.00,,SKC,0.06,VWS V14.01,2013-06-02 04:24:00,
2013-06-01 23:25:00,49.9,43.0,29.81,NNW,343,4.0,12.0,77,0.00,,SKC,0.06,VWS V14.01,2013-06-02 04:25:00,
2013-06-01 23:26:00,49.9,43.0,29.81,North,355,7.0,12.0,77,0.00,,SKC,0.06,VWS V14.01,2013-06-02 04:26:00,
2013-06-01 23:27:00,49.8,42.9,29.81,NNW,342,1.0,12.0,77,0.00,,SKC,0.06,VWS V14.01,2013-06-02 04:27:00,
2013-06-01 23:28:00,49.8,42.5,29.81,NNW,340,1.0,12.0,76,0.00,,SKC,0.06,VWS V14.01,2013-06-02 04:28:00,
2013-06-01 23:29:00,49.8,42.9,29.81,NNE,26,4.0,14.0,77,0.00,,SKC,0.06,VWS V14.01,2013-06-02 04:29:00,
2013-06-01 23:30:00,49.8,42.9,29.81,NNE,28,2.0,14.0,77,0.00,,SKC,0.06,VWS V14.01,2013-06-02 04:30:00,
2013-06-01 23:31:00,49.8,43.2,29.81,NE,40,12.0,12.0,78,0.00,,SKC,0.06,VWS V14.01,2013-06-02 04:31:00,
2013-06-01 23:32:00,49.8,42.9,29.81,NNE,33,0.0,12.0,77,0.00,,SKC,0.06,VWS V14.01,2013-06-02 04:32:00,
2013-06-01 23:33:00,49.8,42.9,29.81,NNE,18,6.0,12.0,77,0.00,,SKC,0.06,VWS V14.01,2013-06-02 04:33:00,
2013-06-01 23:34:00,49.8,42.9,29.81,NNE,17,7.0,12.0,77,0.00,,SKC,0.06,VWS V14.01,2013-06-02 04:34:00,
2013-06-01 23:35:00,49.8,42.9,29.82,North,351,1.0,12.0,77,0.00,,SKC,0.06,VWS V14.01,2013-06-02 04:35:00,
2013-06-01 23:36:00,49.8,43.2,29.81,NW,321,5.0,12.0,78,0.00,,SKC,0.06,VWS V14.01,2013-06-02 04:36:00,
2013-06-01 23:37:00,49.8,42.9,29.81,North,5,5.0,12.0,77,0.00,,SKC,0.06,VWS V14.01,2013-06-02 04:37:00,
2013-06-01 23:38:00,49.8,42.9,29.82,NNE,22,2.0,12.0,77,0.00,,SKC,0.06,VWS V14.01,2013-06-02 04:38:00,
2013-06-01 23:39:00,49.8,42.9,29.82,NNE,25,6.0,12.0,77,0.00,,SKC,0.06,VWS V14.01,2013-06-02 04:39:00,
2013-06-01 23:40:00,49.8,42.9,29.82,NNE,22,5.0,12.0,77,0.00,,SKC,0.06,VWS V14.01,2013-06-02 04:40:00,
2013-06-01 23:41:00,49.8,42.9,29.82,NNE,12,5.0,12.0,77,0.00,,SKC,0.06,VWS V14.01,2013-06-02 04:41:00,
2013-06-01 23:42:00,49.8,42.9,29.82,North,5,3.0,12.0,77,0.00,,SKC,0.06,VWS V14.01,2013-06-02 04:42:00,
2013-06-01 23:43:00,49.7,42.8,29.82,NE,37,9.0,12.0,77,0.00,,SKC,0.06,VWS V14.01,2013-06-02 04:43:00,
2013-06-01 23:44:00,49.8,43.2,29.82,NNW,330,2.0,12.0,78,0.00,,SKC,0.06,VWS V14.01,2013-06-02 04:44:00,
2013-06-01 23:45:00,49.8,43.2,29.82,NW,308,0.0,12.0,78,0.00,,SKC,0.06,VWS V14.01,2013-06-02 04:45:00,
2013-06-01 23:48:00,49.7,43.1,29.82,NNE,17,1.0,2.0,78,0.00,,SKC,0.06,VWS V14.01,2013-06-02 04:48:00,
2013-06-01 23:49:00,49.8,43.2,29.82,NNE,17,0.0,4.0,78,0.00,,SKC,0.06,VWS V14.01,2013-06-02 04:49:00,
2013-06-01 23:50:00,49.7,43.1,29.82,NNE,16,5.0,5.0,78,0.00,,SKC,0.06,VWS V14.01,2013-06-02 04:50:00,
2013-06-01 23:51:00,49.7,43.1,29.82,North,5,5.0,5.0,78,0.00,,SKC,0.06,VWS V14.01,2013-06-02 04:51:00,
2013-06-01 23:52:00,49.7,43.1,29.82,North,355,1.0,5.0,78,0.00,,SKC,0.06,VWS V14.01,2013-06-02 04:52:00,
2013-06-01 23:53:00,49.7,43.1,29.82,North,355,0.0,5.0,78,0.00,,SKC,0.06,VWS V14.01,2013-06-02 04:53:00,
2013-06-01 23:54:00,49.7,43.1,29.82,North,355,0.0,5.0,78,0.00,,SKC,0.06,VWS V14.01,2013-06-02 04:54:00,
2013-06-01 23:55:00,49.7,43.1,29.82,North,350,1.0,6.0,78,0.00,,SKC,0.06,VWS V14.01,2013-06-02 04:55:00,
2013-06-01 23:56:00,49.7,43.1,29.82,North,350,0.0,6.0,78,0.00,,SKC,0.06,VWS V14.01,2013-06-02 04:56:00,
2013-06-01 23:57:00,49.7,43.1,29.82,NNW,333,1.0,9.0,78,0.00,,SKC,0.06,VWS V14.01,2013-06-02 04:57:00,
2013-06-01 23:58:00,49.7,43.1,29.82,NNW,333,0.0,9.0,78,0.00,,SKC,0.06,VWS V14.01,2013-06-02 04:58:00,
2013-06-01 23:59:00,49.7,43.1,29.83,NNW,333,0.0,9.0,78,0.00,,SKC,0.06,VWS V14.01,2013-06-02 04:59:00,